     2.11           OBSERVATION DATA    M (MIXED)           RINEX VERSION / TYPE
GPSBase 2.50 2620 12-Mar-07 23:59:46                        PGM / RUN BY / DATE
ZIMT                                                        MARKER NAME
14001M005                                                   MARKER NUMBER
GPSBase SWISSTOPO                                           OBSERVER / AGENCY
4618K01146 TRIMBLE NETR5 Nav 3.20 / Boot 3                  REC # / TYPE / VERS
     0                                                      RCV CLOCK OFFS APPL
34330 TRM55971.00 NONE                                      ANT # / TYPE
  4331292.9720   567545.1100  4633135.7280                  APPROX POSITION XYZ
        0.0840        0.0000        0.0000                  ANTENNA: DELTA H/E/N
     1     1     0                                          WAVELENGTH FACT L1/2
     8    C1    P1    P2    C2    L1    L2    S1    S2      # / TYPES OF OBSERV
    30.000                                                  INTERVAL
  2007     3    13     0     0    0.0000000     GPS         TIME OF FIRST OBS
                                                            END OF HEADER
 07  3 13  0  0  0.0000000  0 20R03G28R02G22G26G12R21G29G30R19G14G09
                                G17R10R22G18R17R01R20G05
  23927635.242                    23927636.207    23927629.859    -1777337.41404
  -2005884.05147        38.000          35.000
  25387430.703                    25387426.094                     -366138.15204
   -359716.39842        39.000          14.000
  21829317.977                    21829317.297    21829313.289   -14223534.68806
 -11080613.73247        45.000          42.000
  23779361.484                    23779354.086                   -11135355.07206
  -8399676.33146        46.000          30.000
  22503138.883                    22503134.211                   -11613106.81406
  -8191252.90947        47.000          35.000
  21865262.188                    21865256.645    21865257.109   -19995546.44307
 -15515247.42347        50.000          39.000
  20397505.008                    20397506.559    20397501.234   -12109552.08704
 -13548721.19847        39.000          39.000
  23183317.734                    23183313.828                    -9891851.24606
  -7287196.47346        45.000          30.000
  24808103.813                    24808099.492                    -5027880.11406
  -3080357.55546        45.000          29.000
  24312114.648                    24312114.441    24312118.117      236240.23200
  -1609528.68146        31.000          31.000
  25568003.367                                                     -598488.14603
          .00051        37.000
  19871942.813                    19871938.402                   -30299476.26507
 -22179029.12147        50.000          43.000
  22233559.711                    22233554.664    22233554.469   -15089750.83307
 -13697991.81347        49.000          37.000
  21314600.500                    21314598.531    21314599.258   -12601353.57407
 -13495695.04748        49.000          44.000
  23641545.594                    23641545.855    23641546.527    -3501133.64603
  -2701375.65947        36.000          37.000
  23379490.406                    23379485.574                   -13767100.92206
 -10262955.95046        46.000          27.000
  24710002.734                                                            .00010
                          .00051
  22837523.688                    22837523.008    22837521.656    10526923.42404
  -2276764.16047        38.000          39.000
  23551365.383                                                            .00010
                          .00051
  22380871.820                    22380867.453                   -13088437.70106
 -13290576.20547        47.000          33.000
 07  3 13  0  0 30.0000000  0 20R03G28R02G22G26G12R21G29G30R19G14G09
                                G17R10R22G18R17R01R20G05
  23913400.469                    23913402.254    23913398.918    -1853711.55104
  -2065286.20047        39.000          39.000
  25405914.789                    25405910.254                     -269004.95504
   -284028.16345        39.000          16.000
  21834823.156                    21834822.242    21834818.234   -14194107.43906
 -11057725.85547        45.000          41.000
  23779444.414                    23779437.496                   -11134921.89106
  -8399338.80846        46.000          30.000
  22522773.109                    22522768.590                   -11509926.04706
  -8110852.31447        46.000          35.000
  21850943.133                    21850937.352    21850937.391   -20070794.88907
 -15573882.54747        50.000          38.000
  20382259.711                    20382261.262    20382256.500   -12191242.53104
 -13612258.20247        39.000          40.000
  23202536.453                    23202532.367                    -9790859.42806
  -7208501.55846        45.000          29.000
  24787346.234                    24787341.809                    -5136963.68105
  -3165357.76046        42.000          25.000
  24335133.680                    24335135.582    24335137.309      359378.64500
  -1513754.35047        31.000          32.000
  25547194.406                                                     -707838.61402
          .00051        35.000
  19868163.313                    19868158.711                   -30319338.58707
 -22194506.26947        50.000          43.000
  22238821.430                    22238816.059    22238815.926   -15062099.38407
 -13676445.21647        48.000          37.000
  21328753.953                    21328752.219    21328752.672   -12525616.82107
 -13436788.70748        49.000          45.000
  23615559.547                    23615562.152    23615560.688    -3640483.32003
  -2809758.67447        36.000          38.000
  23389350.461                    23389345.121                   -13715286.72706
 -10222581.28846        45.000          27.000
  24710002.734                                                            .00010
                          .00051
  22858403.828                    22858404.090    22858401.930    10638772.86204
  -2189770.17747        38.000          39.000
  22586560.695                                                            .00010
                          .00051
  22363600.531                    22363596.242                   -13179199.81806
 -13361299.90647        46.000          33.000
 07  3 13  0  1  0.0000000  0 19R03G28R02G22G26G12R21G29R19G14G09G17
                                R10R22G18R17R01R20G05
  23899277.688                    23899277.715    23899275.691    -1929496.24603
  -2124229.85247        37.000          39.000
  25424398.047                    25424394.070                     -171874.50804
   -208342.11142        38.000          14.000
  21840475.273                    21840474.594    21840471.414   -14163891.51106
 -11034224.60947        45.000          42.000
  23779629.758                    23779622.770                   -11133945.87006
  -8398578.26146        45.000          29.000
  22542458.305                    22542454.355                   -11406477.75906
  -8030243.26647        45.000          35.000
  21836684.492                    21836678.941    21836679.266   -20145721.89307
 -15632267.21347        50.000          38.000
  20367138.961                    20367140.629    20367135.828   -12272276.47004
 -13675284.57347        39.000          40.000
  23221795.148                    23221790.988                    -9689652.55806
  -7129639.07646        45.000          29.000
  24358202.453                    24358203.418    24358203.137      482761.90102
  -1432970.49947        35.000          34.000
  25526397.969                                                     -817120.35603
          .00051        36.000
  19864466.617                    19864461.824                   -30338764.12807
 -22209643.05047        51.000          43.000
  22244193.531                    22244187.707    22244187.496   -15033869.10907
 -13654447.58547        49.000          37.000
  21342957.555                    21342956.055    21342956.805   -12449607.30607
 -13377670.20648        49.000          45.000
  23589581.336                    23589581.363    23589580.598    -3779795.65803
  -2918112.71347        36.000          38.000
  23399295.547                    23399289.594                   -13663028.06606
 -10181860.28946        45.000          28.000
  24710002.734                                                            .00010
                          .00051
  22879338.750                    22879337.719    22879336.867    10750909.54605
  -2102552.79847        40.000          41.000
  22586560.695                                                            .00010
                          .00051
  22346378.977                    22346374.660                   -13269699.04906
 -13431818.75747        47.000          34.000
 07  3 13  0  1 30.0000000  0 20R03G28R02G22G26G12R21G29G30R19G14G09
                                G17R10R22G18R17R01R20G05
  23885267.789                    23885268.402    23885264.238    -2004678.83004
  -2182705.22447        38.000          38.000
  25442882.344                    25442877.848                      -74737.87905
   -132651.26245        40.000          16.000
  21846277.641                    21846276.844    21846272.793   -14132879.13306
 -11010103.86247        44.000          41.000
  23779920.164                    23779913.102                   -11132416.97306
  -8397386.93046        44.000          29.000
  22562196.750                    22562192.984                   -11302754.22106
  -7949419.75447        46.000          35.000
  21822489.836                    21822484.434    21822484.457   -20220316.17407
 -15690392.61947        50.000          39.000
  20352141.188                    20352142.387    20352137.984   -12352640.73604
 -13737790.11847        39.000          40.000
  23241096.711                    23241092.379                    -9588223.01206
  -7050603.08046        46.000          29.000
  24745882.883                    24745878.188                     -149209.62006
  -3264700.81646        44.000          26.000
  24381315.211                    24381313.828    24381314.824      606396.74203
  -1336810.14447        36.000          35.000
  25505618.344                                                     -926320.98003
          .00051        37.000
  19860854.992                    19860850.145                   -30357742.41807
 -22224431.32847        51.000          43.000
  22249677.477                    22249672.277    22249672.105   -15005050.81107
 -13631991.77747        49.000          37.000
  21357214.984                    21357213.367    21357214.129   -12373315.40707
 -13318332.10048        49.000          45.000
  23563610.805                    23563612.004    23563610.883    -3919056.64003
  -3026426.77747        36.000          39.000
  23409325.570                    23409321.297                   -13610317.52206
 -10140787.13546        46.000          28.000
  24710002.734                                                            .00010
                          .00051
  22900327.063                    22900327.910    22900324.590    10863339.14005
  -2015107.57947        40.000          39.000
  22586560.695                                                            .00010
                          .00051
  22329210.258                    22329205.117                   -13359924.24706
 -13502124.08747        47.000          34.000
 07  3 13  0  2  0.0000000  0 20R03G28R02G22G26G12R21G29G30R19G14G09
                                G17R10R22G18R17R01R20G05
  23871366.055                    23871367.723    23871361.152    -2079267.41902
  -2240718.48747        34.000          35.000
  25461366.039                    25461361.340                       22392.99405
    -56964.86145        42.000          18.000
  21852225.203                    21852224.641    21852220.008   -14101083.05606
 -10985373.60147        45.000          40.000
  23780314.531                    23780307.324                   -11130346.61606
  -8395773.65546        44.000          28.000
  22581984.211                    22581980.664                   -11198768.45606
  -7868391.89547        45.000          35.000
  21808356.094                    21808351.406    21808351.008   -20294588.10007
 -15748266.81947        49.000          40.000
  20337268.430                    20337269.043    20337264.535   -12432342.36004
 -13799780.25647        39.000          40.000
  23260437.922                    23260433.480                    -9486583.89606
  -6971403.78746        43.000          30.000
  24725178.750                    24725175.527                     -258010.59305
  -3349480.71546        41.000          27.000
  24404472.063                    24404471.855    24404472.184      730267.72905
  -1240465.96447        41.000          38.000
  25484852.445                                                    -1035448.96803
          .00051        37.000
  19857326.898                    19857322.004                   -30376283.39307
 -22238878.84247        50.000          43.000
  22255271.352                    22255266.020    22255265.527   -14975656.10707
 -13609086.81147        50.000          37.000
  21371522.305                    21371521.156    21371522.156   -12296752.44407
 -13258783.13748        49.000          45.000
  23537650.070                    23537649.980    23537649.426    -4058275.82304
  -3134708.36447        38.000          40.000
  23419439.828                    23419434.770                   -13557168.32706
 -10099372.22046        45.000          28.000
  24710002.734                                                            .00010
                          .00051
  22921366.219                    22921366.012    22921363.398    10976045.42203
  -1927447.23047        37.000          38.000
  22586560.695                                                            .00010
                          .00051
  22312090.797                    22312085.980                   -13449885.01306
 -13572223.35847        47.000          34.000
 07  3 13  0  2 30.0000000  0 20R03G28R02G22G26G12R21G29G30R19G14G09
                                G17R10R22G18R17R01R20G05
  23857577.391                    23857578.238    23857572.445    -2153254.78400
  -2298264.26646        31.000          31.000
  25479848.297                    25479842.941                      119520.03005
     18718.49645        42.000          18.000
  21858319.914                    21858319.941    21858315.934   -14068502.98606
 -10960033.53847        46.000          42.000
  23780812.492                    23780805.488                   -11127731.70206
  -8393736.10046        44.000          29.000
  22601822.016                    22601818.543                   -11094519.43606
  -7787158.90547        46.000          35.000
  21794285.195                    21794280.094    21794280.242   -20368533.42207
 -15805886.52847        50.000          40.000
  20322520.719                    20322520.629    20322516.223   -12511373.78904
 -13861249.11747        39.000          40.000
  23279819.508                    23279815.551                    -9384733.17606
  -6892039.59846        44.000          30.000
  24704490.258                    24704489.535                     -366715.92602
  -3434185.97145        34.000          20.000
  24427672.305                    24427673.973    24427672.109      854374.26005
  -1143938.72147        41.000          36.000
  25464100.688                    25464093.813                    -1144498.85603
    -32034.66256        37.000          21.000
  19853882.891                    19853878.184                   -30394382.84107
 -22252982.31047        51.000          43.000
  22260975.242                    22260969.906    22260969.742   -14945682.84107
 -13585731.01147        50.000          38.000
  21385882.203                    21385880.938    21385881.207   -12219915.61707
 -13199021.19348        49.000          44.000
  23511696.477                    23511697.441    23511697.207    -4197445.02204
  -3242951.04147        38.000          41.000
  23429637.109                    23429632.723                   -13503580.01206
 -10057615.12446        46.000          26.000
  24710002.734                                                            .00010
                          .00051
  22942454.695                    22942455.543    22942455.645    11089027.84203
  -1839571.96747        37.000          39.000
  22586560.695                                                            .00010
                          .00051
  22295022.773                    22295018.547                   -13539576.73707
 -13642113.00447        48.000          33.000
 07  3 13  0  3  0.0000000  0 20R03G28R02G22G26G12R21G29G30R19G14G09
                                G17R10R22G18R17R01R20G05
  23843902.266                    23843905.227    23843894.801    -2226637.67902
  -2355339.88346        35.000          28.000
  25498330.492                    25498325.328                      216643.11905
     94398.79745        41.000          18.000
  21864561.750                    21864560.367    21864556.449   -14035139.39206
 -10934084.07747        45.000          41.000
  23781413.242                    23781405.977                   -11124572.68506
  -8391274.52746        43.000          28.000
  22621710.180                    22621706.371                   -10990008.53106
  -7705721.85447        45.000          34.000
  21780276.289                    21780271.125    21780271.355   -20442150.02007
 -15863250.08347        50.000          40.000
  20307897.859                    20307897.887    20307893.961   -12589730.00704
 -13922192.83547        39.000          39.000
  23299240.992                    23299237.199                    -9282672.53706
  -6812511.85646        46.000          31.000
  24683825.391                    24683821.520                     -475323.05106
  -3518814.87646        43.000          21.000
  24450915.844                    24450917.277    24450914.949      978715.38903
  -1047229.11047        37.000          33.000
  25443364.828                    25443358.090                    -1253467.60203
   -116945.45845        37.000          16.000
  19850522.844                    19850517.973                   -30412039.40607
 -22266740.67447        50.000          43.000
  22266788.758                    22266783.289    22266783.465   -14915131.30607
 -13561924.61047        50.000          37.000
  21400291.422                    21400290.625    21400290.938   -12142804.56507
 -13139045.94948        49.000          44.000
  23485754.055                    23485754.434    23485754.945    -4336560.00104
  -3351151.54847        38.000          40.000
  23439918.063                    23439912.887                   -13449553.49606
 -10015516.55246        46.000          27.000
  24710002.734                                                            .00010
                          .00051
  22963599.469                    22963599.496    22963597.258    11202282.66904
  -1751484.89247        38.000          37.000
  22586560.695                                                            .00010
                          .00051
  22278006.742                    22278002.340                   -13628997.60007
 -13711791.57047        48.000          33.000
 07  3 13  0  3 30.0000000  0 20R03G28R02G22G26G12R21G29G30R19G14G09
                                G17R10R22G18R17R01R20G05
  23830342.875                    23830344.543    23830341.883    -2299413.71204
  -2411943.50047        39.000          37.000
  25516811.172                    25516806.000                      313759.81505
    170074.20645        41.000          16.000
  21870948.633                    21870947.719    21870944.828   -14000995.39706
 -10907527.63147        44.000          42.000
  23782118.125                    23782111.082                   -11120870.30506
  -8388389.59346        44.000          28.000
  22641646.930                    22641642.844                   -10885239.52606
  -7624083.68847        47.000          34.000
  21766329.734                    21766324.848    21766324.895   -20515438.57707
 -15920358.03447        50.000          41.000
  20293402.281                    20293403.129    20293398.566   -12667410.70204
 -13982611.13347        39.000          40.000
  23318701.750                    23318697.711                    -9180405.72706
  -6732823.45946        44.000          29.000
  24663176.430                    24663170.492                     -583831.95405
  -3603367.45945        42.000          20.000
  24474203.023                    24474203.520    24474199.625     1103283.06403
   -950342.87546        37.000          25.000
  25422642.781                    25422639.133                    -1362354.18501
   -201792.18245        33.000          15.000
  19847247.094                    19847241.984                   -30429253.59607
 -22280154.33347        50.000          43.000
  22272712.258                    22272706.590    22272706.422   -14884003.86407
 -13537669.47047        50.000          37.000
  21414751.961                    21414750.461    21414751.488   -12065420.86307
 -13078858.63948        49.000          45.000
  23459822.898                    23459823.043    23459823.789    -4475617.45404
  -3459307.33047        39.000          39.000
  23450281.125                    23450275.809                   -13395092.79806
  -9973079.66946        45.000          26.000
  24710002.734                                                            .00010
                          .00051
  22984791.273                    22984791.770    22984788.914    11315803.43504
  -1663191.04947        39.000          39.000
  22586560.695                                                            .00010
                          .00051
  22261042.133                    22261037.281                   -13718147.48807
 -13781258.98947        48.000          33.000
 07  3 13  0  4  0.0000000  0 20R03G28R02G22G26G12R21G29G30R19G14G09
                                G17R10R22G18R17R01R20G05
  23816895.813                    23816897.012    23816893.820    -2371576.09904
  -2468069.82547        39.000          38.000
  25535290.297                    25535286.148                      410872.47804
    245746.38545        38.000          16.000
  21877481.281                    21877480.957    21877476.977   -13966069.86706
 -10880363.36547        44.000          41.000
  23782926.430                    23782919.234                   -11116622.35006
  -8385079.51346        44.000          28.000
  22661633.188                    22661628.684                   -10780210.75806
  -7542243.10647        45.000          34.000
  21752446.445                    21752441.855    21752441.816   -20588394.76407
 -15977206.98847        49.000          40.000
  20279033.531                    20279034.379    20279029.051      -96300.27104
 -14027053.12247        39.000          38.000
  23338202.273                    23338198.023                    -9077930.56006
  -6652972.71046        43.000          30.000
  24642546.570                    24642544.449                     -692237.66404
  -3687839.37746        38.000          22.000
  24497532.992                    24497532.547    24497532.188     1228079.48504
   -853279.06847        38.000          35.000
  25401939.906                    25401935.813                    -1471152.03602
   -286569.69845        35.000          15.000
  19844056.805                    19844051.520                   -30446020.68007
 -22293219.59347        51.000          42.000
  22278745.680                    22278739.855    22278739.813   -14852297.82007
 -13512963.45347        49.000          38.000
  21429264.766                    21429263.500    21429264.426   -11987761.34707
 -13018456.80748        48.000          44.000
  23433903.797                    23433904.059    23433903.602    -4614609.41704
  -3567412.16347        38.000          38.000
  23460727.867                    23460721.625                   -13340197.34906
  -9930304.04046        45.000          26.000
  24710002.734                                                            .00010
                          .00051
  23006032.406                    23006031.375    23006030.695    11429589.36702
  -1574690.89047        34.000          38.000
  22586560.695                                                            .00010
                          .00051
  22244129.711                    22244125.199                   -13807021.73806
 -13850511.61947        47.000          33.000
 07  3 13  0  4 30.0000000  0 20R03G28R02G22G26G12R21G29G30R19G14G09
                                G17R10R22G18R17R01R20G05
  23803561.398                    23803563.184    23803560.129    -2443127.36504
  -2523720.85147        38.000          39.000
  25553770.359                    25553764.992                      507974.92204
    321410.57545        39.000          17.000
  21884160.141                    21884159.344    21884155.789   -13930370.88406
 -10852597.48247        44.000          41.000
  23783837.227                    23783830.488                   -11111834.20106
  -8381348.49746        45.000          29.000
  22681667.516                    22681662.848                   -10674929.61506
  -7460205.86247        46.000          34.000
  21738625.750                    21738621.277    21738621.258   -20661022.43707
 -16033799.94647        50.000          40.000
  20264791.094                    20264793.113    20264787.734     -172616.71304
 -14086410.33847        39.000          39.000
  23357740.758                    23357736.523                    -8975254.14406
  -6572965.10546        44.000          29.000
  24621936.430                    24621935.051                     -800543.63304
  -3772233.51946        38.000          24.000
  24520902.641                    24520903.371    24520901.980     1353093.59204
   -756045.90147        38.000          36.000
  25381252.328                    25381248.605                    -1579864.07403
   -371280.40245        36.000          16.000
  19840949.969                    19840944.930                   -30462344.91607
 -22305939.77147        50.000          42.000
  22284888.547                    22284882.715    22284882.086   -14820019.32807
 -13487811.37547        49.000          38.000
  21443828.109                    21443826.492    21443827.086   -11909831.45607
 -12957844.70148        49.000          44.000
  23407995.773                    23407996.035    23407995.691    -4753537.70704
  -3675467.53347        39.000          37.000
  23471255.203                    23471250.070                   -13284874.07906
  -9887195.03646        45.000          26.000
  24710002.734                                                            .00010
                          .00051
  23027320.398                    23027320.426    23027321.145    11543630.77103
  -1485992.06547        37.000          40.000
  22586560.695                                                            .00010
                          .00051
  22227269.352                    22227264.820                   -13895623.86007
 -13919552.21447        48.000          34.000
 07  3 13  0  5  0.0000000  0 20R03G28R02G22G26G12R21G29G30R19G14G09
                                G17R10R22G18R17R01R20G05
  23790342.539                    23790344.090    23790337.801    -2514063.09004
  -2578893.02947        38.000          37.000
  25572244.805                    25572240.410                      605067.56805
    397067.23745        40.000          19.000
  21890983.672                    21890982.289    21890978.641   -13893897.83806
 -10824229.58247        43.000          41.000
  23784851.461                    23784844.992                   -11106504.69206
  -8377195.62546        44.000          28.000
  22701750.320                    22701745.691                   -10569396.52306
  -7377972.29747        45.000          34.000
  21724868.242                    21724863.828    21724863.512   -20733319.39107
 -16090135.21047        49.000          40.000
  20250678.344                    20250678.840    20250674.184     -248247.87605
 -14145234.56347        40.000          39.000
  23377317.781                    23377313.266                    -8872377.79106
  -6492801.72446        44.000          30.000
  24601347.367                    24601344.438                     -908747.73105
  -3856548.21546        42.000          25.000
  24544312.500                    24544313.465    24544311.777     1478324.03805
   -658644.40147        41.000          38.000
  25360583.383                    25360577.957                    -1688486.69603
   -455921.40345        36.000          19.000
  19837928.438                    19837922.957                   -30478224.60307
 -22318313.55547        50.000          43.000
  22291139.461                    22291134.137    22291133.820   -14787168.13207
 -13462213.03147        49.000          38.000
  21458441.977                    21458440.945    21458440.988   -11831630.33607
 -12897021.61848        49.000          44.000
  23382101.477                    23382102.324    23382101.066    -4892396.74005
  -3783468.99447        40.000          37.000
  23481864.109                    23481859.387                   -13229123.79506
  -9843753.31046        44.000          26.000
  24710002.734                                                            .00010
                          .00051
  23048658.117                    23048657.910    23048656.195    11657924.84004
  -1397096.63847        38.000          38.000
  22586560.695                                                            .00010
                          .00051
  22210461.445                    22210456.328                   -13983951.41906
 -13988378.87547        47.000          34.000
 07  3 13  0  5 30.0000000  0 20R03G28R02G22G26G12R21G29G30R19G14G09
                                G17R10R22G18R17R01R20G05
  23777238.539                    23777239.738    23777234.543    -2584379.01803
  -2633583.18347        36.000          37.000
  25590719.422                    25590715.020                      702149.89504
    472715.77245        39.000          19.000
  21897950.742                    21897950.180    21897946.031   -13856652.92906
 -10795261.34047        44.000          40.000
  23785968.234                    23785962.000                   -11100634.25706
  -8372621.23346        43.000          30.000
  22721879.453                    22721875.520                   -10463613.86106
  -7295544.26247        45.000          34.000
  21711173.664                    21711169.277    21711168.949   -20805284.20407
 -16146211.66447        49.000          40.000
  20236692.094                    20236693.645    20236688.836     -323189.35804
 -14203522.36047        39.000          39.000
  23396932.469                    23396928.430                    -8769302.40205
  -6412483.25246        42.000          28.000
  24580777.172                    24580772.883                    -1016848.13706
  -3940782.34846        46.000          27.000
  24567764.141                    24567764.285    24567760.367     1603768.17002
   -561076.73347        34.000          37.000
  25339930.063                    25339926.465                    -1797016.96902
   -540490.45442        34.000          14.000
  19834991.250                    19834986.699                   -30493658.21007
 -22330339.74947        49.000          42.000
  22297499.516                    22297494.258    22297494.242   -14753744.76407
 -13436168.84247        48.000          37.000
  21473106.242                    21473105.445    21473105.977   -11753157.92207
 -12835987.53948        48.000          44.000
  23356219.523                    23356220.371    23356219.102    -5031184.27904
  -3891414.89347        39.000          37.000
  23492554.727                    23492549.684                   -13172948.61506
  -9799980.45846        46.000          28.000
  24710002.734                                                            .00010
                          .00051
  23070041.742                    23070040.945    23070037.586    11772467.03002
  -1308008.45447        35.000          36.000
  22586560.695                                                            .00010
                          .00051
  22193705.898                    22193700.793                   -14072002.65706
 -14056990.21247        46.000          34.000
 07  3 13  0  6  0.0000000  0 19R03G28R02G22G26G12R21G29G30G14G09G17
                                R10R22G18R17R01R20G05
  23764249.758                    23764251.309    23764245.711    -2654072.80902
  -2687789.41847        34.000          35.000
  25609191.242                    25609186.484                      799219.36103
    548354.32845        37.000          17.000
  21905061.609                    21905061.871    21905057.680   -13818639.92506
 -10765695.67347        44.000          40.000
  23787188.609                    23787182.348                   -11094224.45606
  -8367626.61546        44.000          29.000
  22742056.617                    22742052.199                   -10357584.57406
  -7212924.05347        45.000          34.000
  21697542.398                    21697537.707    21697537.230   -20876917.02307
 -16202029.42047        49.000          40.000
  20222837.578                    20222838.191    20222833.297     -397437.85705
 -14261271.17547        40.000          39.000
  23416584.039                    23416579.859                    -8666031.15106
  -6332012.16846        43.000          30.000
  24560227.305                    24560219.895                    -1124843.60304
  -4024934.74445        38.000          19.000
  25319294.891                    25319291.883                    -1905453.63101
   -624986.60845        33.000          15.000
  19832139.164                    19832134.348                   -30508645.94407
 -22342018.51447        50.000          42.000
  22303968.203                    22303962.820    22303962.668   -14719751.48007
 -13409680.56947        48.000          36.000
  21487821.414                    21487819.680    21487819.688   -11674415.56807
 -12774743.51348        49.000          44.000
  23330350.906                    23330352.105    23330352.285    -5169897.90504
  -3999303.28247        39.000          38.000
  23503324.234                    23503319.691                   -13116352.59706
  -9755879.70946        46.000          28.000
  24710002.734                                                            .00010
                          .00051
  23091466.820                    23091466.730    23091467.031    11887252.13002
  -1218731.05147        34.000          40.000
  22586560.695                                                            .00010
                          .00051
  22177002.281                    22176997.977                   -14159777.45206
 -14125386.12447        47.000          34.000
 07  3 13  0  6 30.0000000  0 20R03G28R02G22G26G12R21G29G30R19G14G09
                                G17R10R22G18R17R01R20G05
  23751380.523                    23751381.020    23751376.473    -2723137.87200
  -2741506.70247        32.000          34.000
  25627660.844                    25627656.461                      896279.38903
    623985.47245        36.000          17.000
  21912316.633                    21912316.070    21912312.422   -13779857.04806
 -10735531.23647        43.000          40.000
  23788511.445                    23788505.219                   -11087271.63206
  -8362208.87646        45.000          30.000
  22762280.195                    22762276.480                   -10251306.89706
  -7130110.27747        44.000          34.000
  21683975.445                    21683970.547    21683970.504   -20948213.07107
 -16257584.77647        49.000          40.000
  20209111.805                    20209112.652    20209107.980     -470987.07804
 -14318476.10847        39.000          39.000
  23436273.461                    23436269.125                    -8562562.08305
  -6251386.94346        42.000          28.000
  24539694.547                    24539691.508                      -63607.92805
  -4042094.95656        41.000          22.000
  24614781.828                    24614781.504    24614777.203     1855283.95303
   -434479.61946        36.000          29.000
  25298679.805                    25298675.605                    -2013790.13904
   -709404.69045        38.000          16.000
  19829373.094                    19829368.117                   -30523182.94307
 -22353346.04747        50.000          42.000
  22310545.914                    22310540.566    22310540.418   -14685185.27407
 -13382745.85047        48.000          37.000
  21502587.469                    21502586.203    21502585.824   -11595399.69407
 -12713286.72947        49.000          43.000
  23304499.602                    23304500.215    23304500.879    -5308529.67804
  -4107127.98647        38.000          38.000
  23514174.992                    23514169.785                   -13059333.86006
  -9711449.53746        45.000          27.000
  24710002.734                                                            .00010
                          .00051
  23112941.422                    23112942.270    23112938.133    12002279.50904
  -1129265.37447        38.000          37.000
  22586560.695                                                            .00010
                          .00051
  22160353.086                    22160349.113                   -14247270.54307
 -14193562.53147        48.000          35.000
 07  3 13  0  7  0.0000000  0 20R03G28R02G22G26G12R21G29G30R19G14G09
                                G17R10R22G18R17R01R20G05
  23738627.422                    23738628.973    23738623.648    -2791575.76403
  -2794736.27747        36.000          35.000
  25646127.031                    25646123.570                      993323.69901
    699604.40445        33.000          15.000
  21919715.102                    21919714.422    21919711.270   -13740310.67606
 -10704772.95747        43.000          40.000
  23789936.516                    23789930.008                   -11079781.60506
  -8356372.48146        44.000          29.000
  22782550.219                    22782546.563                   -10144787.97906
  -7047108.54847        45.000          33.000
  21670471.844                    21670466.770    21670466.625   -21019176.26507
 -16312880.75847        49.000          40.000
  20195517.063                    20195518.262    20195512.680     -543838.58305
 -14375138.38747        40.000          39.000
  23455998.969                    23455994.828                    -8458902.14505
  -6170612.96746        41.000          27.000
  24519184.953                    24519182.578                     -171387.66406
  -4126079.01546        43.000          29.000
  24638347.094                    24638347.004    24638341.211     1981345.89703
   -336431.37646        37.000          26.000
  25278082.789                    25278077.801                    -2122029.05505
   -793746.69545        40.000          19.000
  19826691.758                    19826686.418                   -30537273.66607
 -22364325.82347        51.000          43.000
  22317231.539                    22317226.406    22317226.258   -14650052.50107
 -13355369.65847        48.000          37.000
  21517403.750                    21517402.367    21517402.297   -11516115.69307
 -12651621.41147        49.000          43.000
  23278663.383                    23278662.938    23278663.770    -5447076.09704
  -4214886.29247        38.000          36.000
  23525104.156                    23525099.520                   -13001899.92406
  -9666695.85446        46.000          27.000
  24710002.734                                                            .00010
                          .00051
  23134457.211                    23134457.824    23134457.277    12117540.20703
  -1039618.17547        36.000          41.000
  22586560.695                                                            .00010
                          .00051
  22143756.750                    22143752.504                   -14334485.57606
 -14261522.27047        47.000          35.000
 07  3 13  0  7 30.0000000  0 19R03G28R02G22G26G12R21G29G30G14G09G17
                                R10R22G18R17R01R20G05
  23725992.711                    23725993.324    23725986.938    -2859383.82004
  -2847475.84347        39.000          34.000
  25664591.648                    25664588.215                     1090352.26202
    775210.98345        34.000          16.000
  21927255.930                    21927254.781    21927250.770   -13700003.26106
 -10673422.75147        44.000          40.000
  23791464.453                    23791457.023                   -11071754.24206
  -8350117.40346        44.000          29.000
  22802866.031                    22802861.578                   -10038029.65706
  -6963920.26247        46.000          33.000
  21657031.359                    21657026.258    21657026.047   -21089805.36106
 -16367916.40647        47.000          40.000
  20182052.680                    20182054.348    20182048.758     -615989.13705
 -14431255.47147        40.000          39.000
  23475760.992                    23475756.660                    -8355052.93306
  -6089691.52146        43.000          29.000
  24498697.102                    24498693.766                     -279059.13806
  -4209978.77646        47.000          28.000
  25257504.195                    25257499.859                    -2230167.27903
   -878010.26445        37.000          19.000
  19824095.703                    19824090.367                   -30550916.46207
 -22374956.58247        49.000          43.000
  22324024.336                    22324019.828    22324019.164   -14614353.74406
 -13327552.44147        47.000          37.000
  21532269.883                    21532268.969    21532269.070   -11436563.47407
 -12589747.49348        50.000          44.000
  23252842.969                    23252844.988    23252843.672    -5585533.52604
  -4322575.43647        39.000          36.000
  23536112.320                    23536106.805                   -12944052.93706
  -9621620.30546        45.000          26.000
  24710002.734                                                            .00010
                          .00051
  23156015.344                    23156015.723    23156010.102    12233029.28603
   -949793.37347        37.000          33.000
  22586560.695                                                            .00010
                          .00051
  22127213.633                    22127209.277                   -14421420.90206
 -14329264.05547        47.000          36.000
 07  3 13  0  8  0.0000000  0 19R03G28R02G22G26G12R21G29G30G14G09G17
                                R10R22G18R17R01R20G05
  23713474.273                    23713475.707    23713471.270    -2926556.38504
  -2899721.17047        39.000          38.000
  25683052.344                                                     1187365.96203
          .00051        36.000
  21934937.344                    21934937.840    21934933.652   -13658935.31806
 -10641481.02147        45.000          40.000
  23793093.984                    23793087.082                   -11063188.81306
  -8343443.03346        44.000          29.000
  22823227.031                    22823222.176                    -9931032.11106
  -6880545.55847        45.000          33.000
  21643655.094                    21643650.086    21643650.250   -21160097.30107
 -16422689.31947        49.000          40.000
  20168719.891                    20168722.027    20168716.582     -687432.78305
 -14486822.74047        40.000          40.000
  23495559.227                    23495555.262                    -8251014.57705
  -6008622.71546        42.000          28.000
  24478226.984                    24478223.055                     -386619.44504
  -4293792.16045        39.000          20.000
  25236946.094                    25236942.047                    -2338200.67203
   -962192.09445        36.000          16.000
  19821585.250                    19821579.891                   -30564108.97507
 -22385236.46147        52.000          43.000
  22330925.891                    22330920.926    22330920.754   -14578088.18407
 -13299293.56747        48.000          37.000
  21547186.469                    21547184.969    21547185.164   -11356741.64807
 -12527663.87647        49.000          43.000
  23227041.664                    23227042.512    23227040.582    -5723897.00205
  -4430191.49547        40.000          36.000
  23547198.227                    23547193.227                   -12885793.05306
  -9576223.01846        45.000          27.000
  24710002.734                                                            .00010
                          .00051
  23177618.547                    23177619.043    23177617.816    12348744.37204
   -859792.75547        38.000          42.000
  22586560.695                                                            .00010
                          .00051
  22110723.961                    22110720.277                   -14508073.48306
 -14396785.51847        47.000          35.000
 07  3 13  0  8 30.0000000  0 19R03G28R02G22G26G12R21G29G30G14G09G17
                                R10R22G18R17R01R20G05
  23701074.586                    23701076.957    23701071.590    -2993090.65204
  -2951470.10147        39.000          38.000
  25701511.867                                                     1284364.04503
          .00051        37.000
  21942763.219                    21942762.539    21942758.469   -13617109.27906
 -10608949.70447        44.000          40.000
  23794825.969                    23794819.289                   -11054085.08606
  -8336349.22646        45.000          29.000
  22843632.703                    22843628.672                    -9823796.98006
  -6796985.74247        46.000          32.000
  21630343.289                    21630338.148    21630338.199   -21230050.93907
 -16477198.63647        48.000          40.000
  20155520.875                    20155522.309    20155517.516     -758166.45105
 -14541837.79747        40.000          41.000
  23515393.031                    23515388.957                    -8146788.23906
  -5927407.41146        44.000          27.000
  24457779.195                    24457777.438                     -494066.87104
  -4377517.25045        38.000          19.000
  25216408.578                    25216404.766                    -2446126.07403
  -1046289.81745        36.000          17.000
  19819160.805                    19819155.688                   -30576849.77407
 -22395164.36547        50.000          43.000
  22337934.508                    22337929.734    22337929.500   -14541256.29707
 -13270593.39847        49.000          37.000
  21562153.648                    21562152.500    21562152.098   -11276649.80807
 -12465370.23747        49.000          43.000
  23201256.961                    23201256.754    23201256.609    -5862163.88204
  -4537732.41947        38.000          36.000
  23558362.828                    23558357.641                   -12827123.01106
  -9530506.11946        45.000          26.000
  24710002.734                                                            .00010
                          .00051
  23199261.063                    23199260.855    23199256.988    12464681.50302
   -769619.37447        35.000          36.000
  22586560.695                                                            .00010
                          .00051
  22094289.117                    22094284.754                   -14594441.32807
 -14464085.11647        48.000          35.000
 07  3 13  0  9  0.0000000  0 19R03G28R02G22G26G12R21G29G30G14G09G17
                                R10R22G18R17R01R20G05
  23688796.508                    23688797.473    23688792.383    -3058985.79704
  -3002721.89147        38.000          38.000
  25719964.469                                                     1381343.20301
          .00051        33.000
  21950727.680                    21950727.941    21950723.223   -13574528.82506
 -10575831.59647        44.000          40.000
  23796661.055                    23796654.203                   -11044446.28906
  -8328838.49446        44.000          29.000
  22864083.383                    22864079.184                    -9716328.94006
  -6713244.41847        46.000          32.000
  21617095.672                    21617090.387    21617090.555   -21299667.73907
 -16531445.47347        50.000          40.000
  20142453.961                    20142454.574    20142450.012     -828188.51205
 -14596299.38647        40.000          40.000
  23535261.023                    23535257.148                    -8042378.80905
  -5846049.42346        42.000          26.000
  24437356.313                    24437351.797                     -601401.98906
  -4461155.07546        45.000          25.000
  25195892.977                    25195887.559                    -2553943.05905
  -1130303.15845        40.000          16.000
  19816821.305                    19816816.660                   -30589140.44207
 -22404741.49647        51.000          43.000
  22345050.297                    22345045.523    22345045.309   -14503861.64207
 -13241454.70147        48.000          36.000
  21577170.703                    21577169.320    21577169.672   -11196290.76507
 -12402868.76248        49.000          44.000
  23175492.109                    23175492.957    23175491.609    -6000329.21404
  -4645194.34547        39.000          37.000
  23569604.563                    23569599.758                   -12768047.02106
  -9484472.91946        45.000          27.000
  24710002.734                                                            .00010
                          .00051
  23220943.438                    23220944.871    23220943.559    12580834.13704
   -679278.57747        38.000          41.000
  22586560.695                                                            .00010
                          .00051
  22077907.484                    22077903.137                   -14680525.78307
 -14531163.87547        49.000          36.000
 07  3 13  0  9 30.0000000  0 19R03G28R02G22G26G12R21G29G30G14G09G17
                                R10R22G18R17R01R20G05
  23676635.352                    23676636.668    23676632.453    -3124237.94704
  -3053473.57247        38.000          39.000
  25738416.242                    25738410.051                     1478303.61502
    819392.68145        35.000          17.000
  21958833.852                    21958833.289    21958829.430   -13531195.97206
 -10542128.25547        44.000          40.000
  23798596.867                    23798591.379                   -11034272.31606
  -8320910.70546        44.000          29.000
  22884577.906                    22884573.820                    -9608629.39506
  -6629322.70947        46.000          32.000
  21603912.250                    21603907.586    21603907.570   -21368946.06707
 -16585428.55747        48.000          40.000
  20129520.898                    20129521.863    20129516.602     -897496.15405
 -14650205.30747        40.000          39.000
  23555164.117                    23555159.809                    -7937787.36906
  -5764549.62146        43.000          27.000
  24416951.867                    24416949.996                     -708623.18106
  -4544703.97946        43.000          30.000
  25175396.359                    25175391.559                    -2661648.66503
  -1214229.56545        36.000          17.000
  19814568.938                    19814563.609                   -30600979.60407
 -22413966.81647        50.000          43.000
  22352273.438                    22352268.336    22352267.938   -14465904.95807
 -13211878.06147        48.000          37.000
  21592237.898                    21592236.281    21592236.227   -11115664.32307
 -12340159.33148        48.000          44.000
  23149745.969                    23149747.637    23149745.691    -6138391.31604
  -4752575.94047        39.000          38.000
  23580923.594                    23580918.223                   -12708567.33706
  -9438125.13946        45.000          26.000
  24710002.734                                                            .00010
                          .00051
  23242667.258                    23242667.988    23242662.727    12697198.75803
   -588772.77147        37.000          34.000
  22586560.695                                                            .00010
                          .00051
  22061580.852                    22061576.250                   -14766324.60307
 -14598020.08047        49.000          36.000
 07  3 13  0 10  0.0000000  0 19R03G28R02G22G26G12R21G29G30G14G09G17
                                R10R22G18R17R01R20G05
  23664594.547                    23664597.859    23664592.406    -3188843.43303
  -3103722.25447        36.000          38.000
  25756862.039                    25756859.246                     1575244.08900
    894930.74445        30.000          16.000
  21967080.719                    21967080.156    21967076.844   -13487113.50306
 -10507841.87247        44.000          40.000
  23800635.125                    23800628.199                   -11023563.61706
  -8312566.30846        44.000          28.000
  22905116.141                    22905111.602                    -9500700.44906
  -6545222.22847        45.000          32.000
  21590793.703                    21590788.832    21590788.637   -21437884.58507
 -16639146.86647        49.000          40.000
  20116720.445                    20116721.762    20116717.566     -966084.32704
 -14703551.64847        39.000          40.000
  23575101.602                    23575097.027                    -7833015.80205
  -5682909.45246        42.000          27.000
  24396571.195                    24396568.359                     -815728.40106
  -4628162.52146        44.000          26.000
  25154920.859                    25154917.477                    -2769240.27602
  -1298067.19745        34.000          16.000
  19812401.758                    19812396.855                   -30612366.17107
 -22422839.46947        50.000          43.000
  22359603.211                    22359598.121    22359597.582   -14427387.49007
 -13181864.45447        49.000          36.000
  21607354.383                    21607352.648    21607353.316   -11034770.69807
 -12277242.07048        49.000          44.000
  23124018.992                    23124020.426    23124018.781    -6276347.66304
  -4859875.33247        38.000          37.000
  23592318.422                    23592312.801                   -12648686.15906
  -9391464.52046        46.000          26.000
  24710002.734                                                            .00010
                          .00051
  23264429.195                    23264430.277    23264425.633    12813770.02904
   -498106.09747        39.000          39.000
  22586560.695                                                            .00010
                          .00051
  22045308.172                    22045303.359                   -14851836.60507
 -14664652.76347        49.000          35.000
 07  3 13  0 10 30.0000000  0 19R03G28R02G22G26G12R21G29G30G14G09G17
                                R10R22G18R17R01R20G05
  23652677.102                    23652679.828    23652676.184    -3252800.63204
  -3153466.73747        38.000          39.000
  25775305.172                                                     1672164.21400
          .00051        30.000
  21975467.367                    21975466.453    21975462.906   -13442283.91806
 -10472974.45647        43.000          40.000
  23802773.883                    23802766.945                   -11012321.28606
  -8303806.06046        45.000          28.000
  22925697.141                    22925693.270                    -9392544.10506
  -6460944.57747        46.000          32.000
  21577740.000                    21577735.254    21577735.164   -21506482.90807
 -16692600.08147        49.000          39.000
  20104056.133                    20104056.746    20104052.246    -1033951.70104
 -14756337.37747        39.000          40.000
  23595072.789                    23595068.582                    -7728065.93806
  -5601130.35146        43.000          28.000
  24376207.258                    24376208.461                     -922716.55102
  -4711529.85745        34.000          19.000
  25134470.648                    25134465.473                    -2876715.38303
  -1381813.94345        37.000          18.000
  19810321.000                    19810315.961                   -30623299.46007
 -22431358.90847        51.000          43.000
  22367039.922                    22367035.023    22367034.344   -14388310.17107
 -13151414.59747        50.000          37.000
  21622521.258                    21622520.461    21622520.535   -10953610.25507
 -12214117.28747        49.000          43.000
  23098313.039                    23098313.184    23098313.176    -6414194.20604
  -4967089.30747        39.000          37.000
  23603789.281                    23603783.980                   -12588406.06006
  -9344493.05146        45.000          25.000
  24710002.734                                                            .00010
                          .00051
  23286226.648                    23286228.199    23286225.871    12930544.53004
   -439621.66647        39.000          37.000
  22586560.695                                                            .00010
                          .00051
  22029090.406                    22029085.914                   -14937060.49007
 -14731060.95447        49.000          35.000
 07  3 13  0 11  0.0000000  0 18R03R02G22G26G12R21G29G30G14G09G17R10
                                R22G18R17R01R20G05
  23640880.281                    23640881.129    23640877.320    -3316109.81504
  -3202707.21847        38.000          37.000
  21983992.320                    21983991.996    21983988.145   -13396714.13806
 -10437531.31947        44.000          41.000
  23805014.391                    23805007.211                   -11000549.94406
  -8294633.57546        45.000          30.000
  22946320.836                    22946316.855                    -9284166.71906
  -6376494.67647        45.000          32.000
  21564750.727                    21564745.344    21564744.980   -21574743.90807
 -16745790.46247        49.000          40.000
  20091524.570                    20091526.473    20091521.418    -1101099.54504
 -14808563.44947        39.000          39.000
  23615077.016                    23615073.141                    -7622943.99806
  -5519217.16546        43.000          27.000
  24355875.484                    24355869.891                    -1029590.00306
  -4794807.88546        46.000          24.000
  25114040.898                    25114035.688                    -2984075.18304
  -1465470.99145        38.000          19.000
  19808326.125                    19808321.234                   -30633783.00107
 -22439527.90347        50.000          43.000
  22374581.078                    22374576.191    22374575.578   -14348678.65907
 -13120532.90647        48.000          37.000
  21637736.820                    21637735.789    21637736.711   -10872187.60707
 -12150788.58748        49.000          44.000
  23072628.727                    23072629.691    23072628.641    -6551927.23704
  -5074215.00147        39.000          37.000
  23615335.289                    23615329.656                   -12527732.97406
  -9297215.36846        44.000          26.000
  24710002.734                                                            .00010
                          .00051
  23308061.922                    23308062.535    23308060.035    13047513.22102
   -348646.12847        35.000          36.000
  22586560.695                                                            .00010
                          .00051
  22012927.180                    22012922.816                   -15021999.24007
 -14797246.97147        49.000          36.000
 07  3 13  0 11 30.0000000  0 18R03R02G22G26G12R21G29G30G14G09G17R10
                                R22G18R17R01R20G05
  23629205.984                    23629207.887    23629199.715    -3378761.79305
  -3251436.57547        40.000          36.000
  21992655.594                    21992655.504    21992651.723   -13350401.03306
 -10401510.01547        44.000          40.000
  23807356.055                    23807350.156                   -10988244.87106
  -8285045.23746        45.000          29.000
  22966987.602                    22966982.945                    -9175565.35106
  -6291870.24647        45.000          32.000
  21551825.953                    21551820.945    21551820.891   -21642661.49707
 -16798713.23547        49.000          40.000
  20079130.953                    20079131.918    20079126.355    -1167519.25905
 -14860223.22147        40.000          40.000
  23635114.602                    23635110.902                    -7517646.81706
  -5437167.45046        43.000          27.000
  24335558.383                    24335556.309                    -1136341.91904
  -4877991.25546        39.000          22.000
  25093634.703                    25093629.105                    -3091311.83304
  -1549032.07645        39.000          17.000
  19806418.234                    19806413.301                   -30643810.08307
 -22447341.22147        50.000          43.000
  22382229.352                    22382223.734    22382223.684   -14308488.53507
 -13089215.92047        49.000          37.000
  21653002.398                    21653001.250    21653001.824   -10790497.47107
 -12087251.83948        49.000          44.000
  23046965.758                    23046968.246    23046967.465    -6689537.79404
  -5181245.42147        39.000          38.000
  23626956.836                    23626950.625                   -12466665.40206
  -9249630.29246        46.000          26.000
  24710002.734                                                            .00010
                          .00051
  23329935.016                    23329935.746    23329931.078    13164676.86004
   -257518.67047        39.000          37.000
  22586560.695                                                            .00010
                          .00051
  21996819.219                    21996814.738                   -15106646.15607
 -14863205.58147        49.000          36.000
 07  3 13  0 12  0.0000000  0 18R03R02G22G26G12R21G29G30G14G09G17R10
                                R22G18R17R01R20G05
  23617654.227                    23617655.543    23617643.398    -3440757.08405
  -3299655.15447        40.000          33.000
  22001457.813                    22001457.367    22001455.012   -13303348.84206
 -10364913.87747        43.000          41.000
  23809798.430                    23809792.555                   -10975408.63406
  -8275042.94446        44.000          28.000
  22987695.336                    22987690.738                    -9066743.59006
  -6207074.07647        46.000          32.000
  21538967.000                    21538961.727    21538961.887   -21710236.50507
 -16851369.06947        50.000          40.000
  20066871.039                    20066872.824    20066868.512    -1233209.71304
 -14911315.78247        39.000          40.000
  23655184.281                    23655181.012                    -7412177.66206
  -5354983.73346        43.000          25.000
  24315269.586                    24315265.930                    -1242972.92606
  -4961080.32746        44.000          28.000
  25073250.188                                                    -3198424.71502
          .00051        34.000
  19804596.609                    19804591.918                   -30653381.82307
 -22454799.71647        50.000          43.000
  22389982.461                    22389977.496    22389977.117   -14267742.95207
 -13057466.10447        48.000          36.000
  21668318.039                    21668316.539    21668316.840   -10708542.14007
 -12023508.82348        49.000          44.000
  23021328.727                    23021329.691    23021329.141    -6827024.46904
  -5288179.50247        39.000          39.000
  23638651.336                    23638646.094                   -12405206.96006
  -9201740.62546        45.000          26.000
  24710002.734                                                            .00010
                          .00051
  23351840.844                    23351841.809    23351838.773    13282029.87502
   -166244.28047        35.000          36.000
  22586560.695                                                            .00010
                          .00051
  21980766.984                    21980762.223                   -15191001.58507
 -14928937.05147        49.000          36.000
 07  3 13  0 12 30.0000000  0 18R03R02G22G26G12R21G29G30G14G09G17R10
                                R22G18R17R01R20G05
  23606221.469                    23606223.254    23606214.051    -3502093.86804
  -3347361.52947        38.000          32.000
  22010397.828                    22010397.266    22010393.766   -13255561.10706
 -10327745.65847        43.000          40.000
  23812341.875                    23812335.859                   -10962042.72206
  -8264627.96546        44.000          28.000
  23008445.133                    23008440.145                    -8957704.36806
  -6122108.45946        46.000          31.000
  21526173.031                    21526167.559    21526167.605   -21777468.79307
 -16903757.85047        49.000          40.000
  20054749.711                    20054751.262    20054746.234    -1298166.87704
 -14961838.00547        39.000          40.000
  23675286.602                    23675282.781                    -7306539.62706
  -5272668.39346        43.000          26.000
  24295000.195                    24294997.688                    -1349482.71305
  -5044074.77946        42.000          23.000
  25052892.063                    25052884.176                    -3305411.81904
  -1614027.26745        38.000          20.000
  19802861.609                    19802857.512                   -30662498.51507
 -22461903.63947        49.000          43.000
  22397841.516                    22397835.859    22397835.684   -14226443.70807
 -13025284.87147        49.000          36.000
  21683683.305                    21683681.688    21683682.191   -10626322.67007
 -11959560.35548        49.000          44.000
  22995713.125                    22995714.090    22995713.375    -6964384.37104
  -5395014.95547        39.000          39.000
  23650420.617                    23650415.504                   -12343361.26806
  -9153549.20646        44.000          25.000
  24710002.734                                                            .00010
                          .00051
  23373782.133                    23373782.746    23373782.258    13399566.84103
    -74826.61447        36.000          42.000
  22586560.695                                                            .00010
                          .00051
  21964770.109                    21964765.691                   -15275065.16607
 -14994441.11347        50.000          36.000
 07  3 13  0 13  0.0000000  0 18R03R02G22G26G12R21G29G30G14G09G17R10
                                R22G18R17R01R20G05
  23594912.578                    23594914.715    23594907.742    -3562769.48303
  -3394553.76847        36.000          33.000
  22019474.180                    22019474.090    22019469.707   -13207040.98806
 -10290007.77247        43.000          40.000
  23814986.016                    23814979.492                   -10948148.33306
  -8253801.16746        44.000          28.000
  23029235.242                    23029230.723                    -8848450.31806
  -6036975.44846        44.000          31.000
  21513444.563                    21513439.461    21513439.516   -21844358.12907
 -16955879.39147        49.000          40.000
  20042766.023                    20042765.934    20042761.520    -1362389.14504
 -15011788.66047        39.000          40.000
  23695420.914                    23695416.375                    -7200735.16305
  -5190223.35146        40.000          25.000
  24274756.453                    24274751.773                    -1455869.55906
  -5126973.67846        45.000          25.000
  25032559.070                    25032552.109                    -3412270.88405
  -1697294.09645        42.000          20.000
  19801213.797                    19801208.621                   -30671159.60607
 -22468652.54447        50.000          43.000
  22405805.742                    22405800.508    22405800.664   -14184592.70707
 -12992673.69247        48.000          37.000
  21699096.438                    21699095.055    21699095.801   -10543839.95807
 -11895407.15848        48.000          45.000
  22970123.039                    22970123.770    22970122.930    -7101613.16304
  -5501748.43647        39.000          39.000
  23662262.656                    23662257.434                   -12281131.03606
  -9105058.15946        44.000          26.000
  24710002.734                                                            .00010
                          .00051
  23395758.617                    23395758.293    23395755.480    13517283.04504
     16730.28847        39.000          37.000
  22586560.695                                                            .00010
                          .00051
  21948829.250                    21948824.387                   -15358836.03607
 -15059717.09047        50.000          37.000
 07  3 13  0 13 30.0000000  0 18R03R02G22G26G12R21G29G30G14G09G17R10
                                R22G18R17R01R20G05
  23583730.500                    23583732.637    23583728.418    -3622779.52104
  -3441228.19647        38.000          37.000
  22028688.211                    22028686.477    22028683.320   -13157791.28706
 -10251702.45647        44.000          41.000
  23817730.492                    23817723.938                   -10933725.95906
  -8242562.95546        46.000          27.000
  23050066.305                    23050061.625                    -8738983.06406
  -5951676.29646        45.000          30.000
  21500781.336                    21500776.586    21500776.574   -21910902.39307
 -17007732.05547        49.000          40.000
  20030917.523                    20030919.309    20030914.910    -1425873.67104
 -15061165.49047        39.000          40.000
  23715586.188                    23715582.047                    -7094765.12806
  -5107649.29346        43.000          25.000
  24254534.273                    24254531.422                    -1562131.89306
  -5209775.52146        43.000          25.000
  25012248.328                    25012242.934                    -3518998.45204
  -1780458.39745        39.000          17.000
  19799652.984                    19799647.445                   -30679363.61807
 -22475045.29647        49.000          43.000
  22413874.430                    22413868.738    22413868.691   -14142190.73607
 -12959633.19447        49.000          36.000
  21714559.227                    21714557.844    21714559.883   -10461093.51207
 -11831048.83948        48.000          45.000
  22944556.031                    22944556.527    22944556.676    -7238707.17704
  -5608377.07347        39.000          39.000
  23674176.734                    23674172.602                   -12218517.94506
  -9056268.74846        43.000          26.000
  24710002.734                                                            .00010
                          .00051
  23417767.195                    23417767.105    23417764.430    13635174.71203
    108423.96947        36.000          37.000
  22586560.695                                                            .00010
                          .00051
  21932944.367                    21932939.875                   -15442312.19107
 -15124763.41947        50.000          37.000
 07  3 13  0 14  0.0000000  0 17R03R02G22G26G12R21G29G30G14G09G17R10
                                R22G18R17R20G05
  23572674.320                    23572676.691    23572671.051    -3682121.07404
  -3487382.77047        39.000          38.000
  22038036.219                    22038035.539    22038031.793   -13107813.27506
 -10212830.68947        44.000          40.000
  23820574.852                    23820568.266                   -10918776.25406
  -8230913.86546        44.000          27.000
  23070937.414                    23070933.320                    -8629304.59906
  -5866212.56846        44.000          29.000
  21488184.125                    21488179.133    21488179.074   -21977101.01407
 -17059315.37847        50.000          40.000
  20019209.930                    20019210.426    20019205.965    -1488616.17205
 -15109965.20047        40.000          40.000
  23735782.438                    23735778.758                    -6988632.12405
  -5024948.27546        41.000          26.000
  24234337.617                    24234334.672                    -1668267.68505
  -5292478.69946        41.000          22.000
  24991964.547                    24991958.406                    -3625592.03203
  -1863518.38242        36.000          14.000
  19798178.688                    19798173.949                   -30687109.69707
 -22481081.20247        50.000          43.000
  22422047.828                    22422042.414    22422041.977   -14099239.00007
 -12926164.30447        48.000          36.000
  21730071.672                    21730070.758    21730071.602   -10378083.69807
 -11766485.68848        48.000          44.000
  22919017.359                    22919018.324    22919018.047    -7375660.78204
  -5714896.54047        39.000          39.000
  23686164.008                    23686159.254                   -12155524.92806
  -9007183.32446        43.000          25.000
  24710002.734                                                            .00010
                          .00051
  22586560.695                                                            .00010
                          .00051
  21917115.570                    21917110.949                   -15525492.50307
 -15189579.22547        50.000          37.000
 07  3 13  0 14 30.0000000  0 18R03R02G22G26G12R21G29G30G14G09G17R10
                                R22G18R17R01R20G05
  23561739.578                    23561741.832    23561736.969    -3740793.23604
  -3533016.62447        39.000          39.000
  22047521.500                    22047521.176    22047517.492   -13057111.51606
 -10173396.01547        43.000          41.000
  23823519.578                    23823513.313                   -10903300.99906
  -8218855.24546        45.000          28.000
  23091848.273                    23091843.496                    -8519418.12506
  -5780586.76646        45.000          30.000
  21475652.859                    21475648.176    21475647.922   -22042954.17807
 -17110629.51047        50.000          40.000
  20007639.852                    20007641.285    20007636.480    -1550614.25804
 -15158185.92347        39.000          40.000
  23756008.992                    23756005.664                    -6882338.82105
  -4942122.34946        41.000          25.000
  24214164.930                    24214162.258                    -1774277.00106
  -5375083.38146        44.000          27.000
  24971706.695                    24971700.426                    -3732049.68004
  -1946472.35445        39.000          16.000
  19796791.641                    19796786.770                   -30694398.12107
 -22486760.49947        50.000          43.000
  22430324.961                    22430320.152    22430320.125   -14055739.67207
 -12892268.72847        49.000          36.000
  21745633.109                    21745631.844    21745632.680   -10294811.90806
 -11701718.74248        47.000          44.000
  22893505.227                    22893506.660    22893506.039    -7512471.20505
  -5821304.64347        40.000          39.000
  23698223.133                    23698217.547                   -12092155.38606
  -8957804.49446        44.000          25.000
  24710002.734                                                            .00010
                          .00051
  23461877.211                    23461878.762    23461876.098       90299.18505
    216488.16547        40.000          39.000
  22586560.695                                                            .00010
                          .00051
  21901343.188                    21901338.656                   -15608376.55007
 -15254164.17747        50.000          37.000
 07  3 13  0 15  0.0000000  0 18R03R02G22G26G12R21G29G30G14G09G17R10
                                R22G18R17R01R20G05
  23550931.492                    23550932.105    23550928.699    -3798793.87504
  -3578128.25547        39.000          40.000
  22057141.039                    22057140.594    22057136.871   -13005688.41906
 -10133400.28247        44.000          41.000
  23826564.773                    23826558.184                   -10887301.21806
  -8206387.87246        46.000          28.000
  23112798.008                    23112793.449                    -8409325.88906
  -5694800.61546        45.000          31.000
  21463187.383                    21463182.543    21463182.625   -22108461.07507
 -17161673.82747        49.000          40.000
  19996209.820                    19996210.199    19996205.832    -1611866.84704
 -15205826.81647        39.000          40.000
  23776266.000                    23776262.871                    -6775887.27705
  -4859173.13146        42.000          26.000
  24194016.336                    24194013.520                    -1880158.27906
  -5457588.18546        45.000          27.000
  24951474.453                    24951468.109                    -3838369.42704
  -2029318.97545        39.000          19.000
  19795492.398                    19795487.012                   -30701228.35907
 -22492082.76347        49.000          43.000
  22438707.320                    22438701.793    22438701.297   -14011694.50107
 -12857947.83647        48.000          36.000
  21761243.203                    21761241.117    21761243.500   -10211278.95606
 -11636748.68948        47.000          45.000
  22868019.773                    22868020.973    22868019.984    -7649134.62005
  -5927598.38647        40.000          40.000
  23710352.727                    23710347.176                   -12028412.14906
  -8908134.46646        43.000          22.000
  24710002.734                                                            .00010
                          .00051
  23483977.070                    23483978.973    23483976.977      208688.59605
    308568.65447        40.000          43.000
  22586560.695                                                            .00010
                          .00051
  21885627.219                    21885622.750                   -15690963.56307
 -15318517.66647        50.000          37.000
 07  3 13  0 15 30.0000000  0 18R03R02G22G26G12R21G29G30G14G09G17R10
                                R22G18R17R01R20G05
  23540247.391                    23540249.879    23540244.836    -3856119.55104
  -3622714.87347        39.000          39.000
  22066895.820                    22066895.258    22066891.070   -12953546.93206
 -10092845.79747        43.000          40.000
  23829709.578                    23829701.871                   -10870777.73106
  -8193512.44146        46.000          28.000
  23133786.789                    23133781.676                    -8299029.98706
  -5608855.76846        45.000          31.000
  21450787.836                    21450782.574    21450782.430   -22173620.85507
 -17212447.67647        49.000          40.000
  19984918.234                    19984918.965    19984915.145    -1672372.54904
 -15252886.78947        39.000          40.000
  23796553.031                    23796549.809                    -6669279.86305
  -4776102.42846        41.000          26.000
  24173892.094                    24173888.410                    -1985910.13605
  -5539992.31446        42.000          25.000
  24931268.844                    24931264.004                    -3944548.25004
  -2112055.78345        38.000          20.000
  19794279.742                    19794274.660                   -30707599.78207
 -22497047.51547        50.000          43.000
  22447191.891                    22447186.453    22447186.156   -13967104.87006
 -12823202.64847        47.000          36.000
  21776902.539                    21776901.742    21776902.383   -10127484.80107
 -11571575.49747        48.000          43.000
  22842562.297                    22842564.316    22842563.578    -7785647.29105
  -6033774.91647        40.000          39.000
  23722553.875                    23722548.066                   -11964297.67506
  -8858175.17746        43.000          25.000
  24710002.734                                                            .00010
                          .00051
  23506110.805                    23506111.652    23506106.664      327234.94701
    400771.42647        33.000          35.000
  22586560.695                                                            .00010
                          .00051
  21869968.344                    21869963.664                   -15773251.95207
 -15382638.46747        50.000          37.000
 07  3 13  0 16  0.0000000  0 18R03R02G22G26G12R21G29G30G14G09G17R10
                                R22G18R17R01R20G05
  23529691.570                    23529693.121    23529689.555    -3912769.06803
  -3666775.60747        37.000          40.000
  22076783.680                    22076782.063    22076778.301   -12900690.86906
 -10051735.55747        43.000          41.000
  23832952.945                    23832944.977                   -10853732.14606
  -8180230.14446        46.000          28.000
  23154813.461                    23154808.793                    -8188533.35006
  -5522754.49646        46.000          31.000
  21438454.094                    21438448.805    21438448.953   -22238433.71307
 -17262951.17347        51.000          40.000
  19973767.383                    19973769.285    19973764.672    -1732126.20605
 -15299361.84947        40.000          40.000
  23816869.867                    23816866.160                    -6562518.29605
  -4692911.63346        42.000          26.000
  24153793.570                    24153789.703                    -2091532.32905
  -5622295.26846        42.000          26.000
  24911091.141                    24911085.250                    -4050584.29004
  -2194681.26445        38.000          19.000
  19793154.641                    19793149.227                   -30713512.48907
 -22501654.80747        51.000          43.000
  22455780.492                    22455775.250    22455774.555   -13921972.69607
 -12788034.72247        48.000          36.000
  21792609.750                    21792609.305    21792609.238   -10043430.52507
 -11506199.94047        48.000          43.000
  22817134.820                    22817136.254    22817135.148    -7922004.43805
  -6139830.47447        41.000          40.000
  23734824.156                    23734818.512                   -11899815.45506
  -8807929.30646        43.000          24.000
  24710002.734                                                            .00010
                          .00051
  23528266.672                    23528267.754    23528261.723      445930.06305
    452326.79147        41.000          32.000
  22586560.695                                                            .00010
                          .00051
  21854366.578                    21854361.789                   -15855241.23907
 -15446526.19547        49.000          37.000
 07  3 13  0 16 30.0000000  0 18R03R02G22G26G12R21G29G30G14G09G17R10
                                R22G18R17R01R20G05
  23519261.852                    23519263.520    23519258.512    -3968736.12503
  -3710305.52847        37.000          37.000
  22086804.828                    22086804.621    22086800.496   -12847122.06306
 -10010070.95347        44.000          41.000
  23836295.922                    23836289.023                   -10836164.29406
  -8166540.92346        45.000          27.000
  23175878.109                    23175873.668                    -8077837.16406
  -5436497.73446        46.000          30.000
  21426187.352                    21426182.219    21426182.430   -22302897.38607
 -17313182.60347        51.000          41.000
  19962757.539                    19962759.441    19962754.566    -1791124.95004
 -15345249.74947        39.000          40.000
  23837213.758                    23837210.656                    -6455604.41505
  -4609602.12546        42.000          27.000
  24133719.156                    24133714.828                    -2197022.02006
  -5704494.99046        43.000          26.000
  24890939.758                    24890936.117                    -4156473.66103
  -2277192.40045        36.000          16.000
  19792117.313                    19792112.172                   -30718963.92907
 -22505902.69147        50.000          43.000
  22464471.898                    22464466.891    22464466.488   -13876298.21207
 -12752444.22547        48.000          36.000
  21808366.227                    21808364.961    21808365.484    -9959115.40907
 -11440621.52347        48.000          43.000
  22791736.672                    22791738.105    22791737.277    -8058201.63805
  -6245761.60347        41.000          40.000
  23747164.883                    23747158.652                   -11834967.01806
  -8757398.11846        43.000          25.000
  24710002.734                                                            .00010
                          .00051
  23550452.969                    23550454.051    23550448.988      564777.24505
    544763.66347        41.000          36.000
  22586560.695                                                            .00010
                          .00051
  21838821.914                    21838817.113                   -15936929.15407
 -15510179.09347        49.000          37.000
 07  3 13  0 17  0.0000000  0 18R03R02G22G26G12R21G29G30G14G09G17R10
                                R22G18R17R01R20G05
  23508960.289                    23508960.434    23508955.914    -4024022.97604
  -3753306.48747        38.000          37.000
  22096957.531                    22096957.559    22096953.402   -12792845.63006
  -9967855.95847        44.000          41.000
  23839737.523                    23839730.914                   -10818077.25306
  -8152447.17046        44.000          27.000
  23196979.977                    23196975.789                    -7966945.27106
  -5350088.48746        45.000          30.000
  21413986.242                    21413981.340    21413981.219   -22367012.81207
 -17363142.65347        50.000          40.000
  19951889.977                    19951890.590    19951885.473    -1849368.71804
 -15390550.45347        39.000          40.000
  23857588.336                    23857584.551                    -6348541.84205
  -4526176.77646        41.000          27.000
  24113670.680                    24113668.449                    -2302379.30805
  -5786591.58246        41.000          26.000
  24870818.828                    24870813.746                    -4262215.51504
  -2359588.72345        38.000          17.000
  19791167.227                    19791162.027                   -30723955.94307
 -22509792.57447        50.000          43.000
  22473266.133                    22473261.000    22473260.508   -13830085.18407
 -12716434.05947        48.000          36.000
  21824171.445                    21824169.359    21824170.586    -9874542.24207
 -11374842.41148        48.000          44.000
  22766368.867                    22766370.066    22766368.625    -8194237.98005
  -6351567.62547        42.000          41.000
  23759573.430                    23759568.055                   -11769757.00206
  -8706585.13146        43.000          24.000
  24710002.734                                                            .00010
                          .00051
  23572663.273                    23572664.473    23572662.480      683766.84103
    637311.05047        36.000          40.000
  22586560.695                                                            .00010
                          .00051
  21823334.023                    21823329.574                   -16018316.53607
 -15573597.80747        49.000          37.000
 07  3 13  0 17 30.0000000  0 18R03R02G22G26G12R21G29G30G14G09G17R10
                                R22G18R17R01R20G05
  23498784.352                    23498786.020    23498779.703    -4078624.10504
  -3795774.04847        39.000          37.000
  22107243.602                    22107243.277    22107239.207   -12737862.67206
  -9925091.43647        44.000          41.000
  23843278.906                    23843271.184                   -10799470.16006
  -8137948.11946        46.000          27.000
  23218119.375                    23218115.387                    -7855858.05906
  -5263527.03146        45.000          31.000
  21401852.469                    21401846.875    21401846.750   -22430777.61907
 -17412829.50647        50.000          41.000
  19941162.047                    19941162.895    19941157.988    -1906852.25905
 -15435259.84947        40.000          41.000
  23877988.891                    23877985.547                    -6241330.53605
  -4442635.50046        42.000          25.000
  24093647.453                    24093643.793                    -2407601.43806
  -5868582.81346        44.000          25.000
  24850726.656                    24850720.449                    -4367805.36405
  -2441866.58746        40.000          21.000
  19790305.141                    19790299.988                   -30728485.81007
 -22513322.34747        50.000          43.000
  22482162.766                    22482157.504    22482157.117   -13783332.92707
 -12680003.73447        48.000          36.000
  21840023.773                    21840022.625    21840023.902    -9789709.12107
 -11308861.11448        48.000          44.000
  22741031.813                    22741033.363    22741031.527    -8330105.96505
  -6457242.71347        41.000          41.000
  23772051.492                    23772045.809                   -11704185.96906
  -8655490.87046        43.000          24.000
  24710002.734                                                            .00010
                          .00051
  23594901.336                    23594902.301    23594902.160      802896.14900
    729967.02547        31.000          40.000
  22586560.695                                                            .00010
                          .00051
  21807904.586                    21807899.734                   -16099400.20607
 -15636779.87447        50.000          37.000
 07  3 13  0 18  0.0000000  0 18R03R02G22G26G12R21G29G30G14G09G17R10
                                R22G18R17R01R20G05
  23488737.656                    23488738.387    23488733.586    -4132539.91504
  -3837708.57847        39.000          39.000
  22117660.594                    22117659.914    22117656.766   -12682178.10506
  -9881781.24047        43.000          41.000
  23846917.859                    23846909.582                   -10780346.12306
  -8123046.28446        44.000          27.000
  23239294.766                    23239290.473                    -7744580.03706
  -5176816.89046        46.000          31.000
  21389784.984                    21389779.594    21389779.559   -22494193.17307
 -17462244.21747        50.000          40.000
  19930577.031                    19930577.762    19930572.328    -1963574.92305
 -15479377.45947        40.000          40.000
  23898418.328                    23898414.004                    -6133974.84905
  -4358981.72346        42.000          24.000
  24073648.852                    24073646.543                    -2512689.16305
  -5950469.29646        40.000          22.000
  24830662.578                    24830656.555                    -4473242.98805
  -2524025.73846        41.000          23.000
  19789531.094                    19789525.563                   -30732555.03407
 -22516493.16447        50.000          43.000
  22491161.063                    22491155.598    22491155.914   -13736045.44207
 -12643156.35347        48.000          35.000
  21855925.164                    21855924.484    21855925.051    -9704618.74606
 -11242679.70747        46.000          43.000
  22715725.711                    22715726.441    22715725.324    -8465804.82505
  -6562786.22847        41.000          40.000
  23784596.859                    23784591.324                   -11638258.71805
  -8604118.99746        42.000          24.000
  24710002.734                                                            .00010
                          .00051
  23617168.008                    23617167.801    23617164.699      922159.20304
    822726.99147        38.000          32.000
  22586560.695                                                            .00010
                          .00051
  21792532.289                    21792527.492                   -16180181.19007
 -15699726.07747        50.000          36.000
 07  3 13  0 18 30.0000000  0 18R03R02G22G26G12R21G29G30G14G09G17R10
                                R22G18R17R01R20G05
  23478818.305                    23478819.973    23478814.777    -4185765.13803
  -3879105.97047        37.000          39.000
  22128208.211                    22128208.004    22128204.875   -12625792.83106
  -9837926.04047        44.000          41.000
  23850655.055                    23850648.352                   -10760704.37406
  -8107741.01846        44.000          27.000
  23260506.477                    23260502.113                    -7633111.41506
  -5089958.23546        45.000          30.000
  21377784.313                    21377779.293    21377779.004   -22557256.75007
 -17511384.64747        50.000          41.000
  19920134.867                    19920135.480    19920130.637    -2019531.56404
 -15522899.29947        39.000          40.000
  23918874.680                    23918870.234                    -6026475.08305
  -4275215.64946        42.000          23.000
  24053678.133                    24053674.352                    -2617638.91106
  -6032248.36746        43.000          25.000
  24810626.852                    24810621.930                    -4578523.62204
  -2606062.54345        39.000          19.000
  19788844.930                    19788839.844                   -30736160.87007
 -22519302.91247        51.000          42.000
  22500261.359                    22500255.980    22500256.023   -13688222.09606
 -12605891.38847        47.000          35.000
  21871875.094                    21871873.711    21871874.320    -9619269.68406
 -11176297.13048        47.000          44.000
  22690453.594                    22690454.090    22690452.773    -8601328.58305
  -6668193.57947        42.000          40.000
  23797209.703                    23797205.055                   -11571976.36905
  -8552470.46246        42.000          23.000
  24710002.734                                                            .00010
                          .00051
  23639456.063                    23639455.031    23639453.109     1041553.10303
    915589.29647        37.000          34.000
  22586560.695                                                            .00010
                          .00051
  21777218.305                    21777213.008                   -16260656.38307
 -15762433.98847        49.000          36.000
 07  3 13  0 19  0.0000000  0 17R03R02G22G26G12R21G29G30G14G09G17R10
                                R22G18R17R20G05
  23469028.297                    23469029.496    23469026.289    -4238298.73104
  -3919965.38647        38.000          40.000
  22138886.914                    22138886.117    22138882.441   -12568711.57406
  -9793529.52347        43.000          41.000
  23854491.188                    23854484.547                   -10740547.04206
  -8092034.04946        45.000          27.000
  23281754.172                    23281749.219                    -7521455.59106
  -5002953.72646        45.000          28.000
  21365850.477                    21365845.242    21365845.109   -22619969.21707
 -17560251.49747        51.000          41.000
  19909834.461                    19909835.660    19909830.910    -2074723.75005
 -15565826.52147        40.000          40.000
  23939358.281                    23939353.680                    -5918834.07905
  -4191339.54646        42.000          25.000
  24033733.711                    24033730.512                    -2722450.76306
  -6113919.85246        43.000          28.000
  24790623.219                    24790617.859                    -4683645.47805
  -2687975.64145        40.000          20.000
  19788246.797                    19788241.340                   -30739303.94807
 -22521752.06847        51.000          43.000
  22509463.289                    22509458.273    22509457.645   -13639865.71107
 -12568211.08447        48.000          35.000
  21887872.039                    21887870.656    21887871.883    -9533663.56106
 -11109714.58548        47.000          44.000
  22665214.086                    22665215.637    22665214.098    -8736672.31605
  -6773460.90947        41.000          40.000
  23809889.094                    23809885.395                   -11505342.69105
  -8500548.13946        41.000          22.000
  24710002.734                                                            .00010
                          .00051
  22586560.695                                                            .00010
                          .00051
  21761962.367                    21761957.613                   -16340825.80707
 -15824903.63847        50.000          36.000
 07  3 13  0 19 30.0000000  0 18R03R02G22G26G12R21G29G30G14G09G17R10
                                R22G18R17R01R20G05
  23459368.531                    23459369.027    23459364.848    -4290139.17503
  -3960285.72347        37.000          38.000
  22149695.289                    22149694.844    22149691.082   -12510939.02206
  -9748595.34747        43.000          40.000
  23858424.648                    23858418.602                   -10719876.47606
  -8075927.11546        45.000          28.000
  23303036.211                    23303031.297                    -7409616.03506
  -4915806.04046        45.000          28.000
  21353983.867                    21353978.395    21353978.328   -22682330.26507
 -17608844.51147        49.000          40.000
  19899678.688                    19899679.184    19899674.121    -2129148.19305
 -15608156.64047        40.000          39.000
  23959868.414                    23959864.332                    -5811055.31205
  -4107356.09446        42.000          24.000
  24013813.445                    24013810.820                    -2827124.39605
  -6195483.66246        40.000          24.000
  24770650.156                    24770644.051                    -4788607.50205
  -2769764.31046        42.000          21.000
  19787736.711                    19787731.234                   -30741984.94807
 -22523841.16547        51.000          43.000
  22518766.125                    22518760.855    22518760.965   -13590978.86407
 -12530117.45247        48.000          36.000
  21903917.930                    21903916.195    21903916.773    -9447802.07206
 -11042933.43347        47.000          43.000
  22640009.328                    22640010.059    22640009.629    -8871833.65005
  -6878586.35347        41.000          41.000
  23822636.227                    23822631.957                   -11438361.68905
  -8448355.19546        42.000          26.000
  24710002.734                                                            .00010
                          .00051
  23684102.164                    23684102.660    23684100.699     1280712.24405
   1101601.57147        40.000          40.000
  22586560.695                                                            .00010
                          .00051
  21746765.117                    21746759.949                   -16420689.54207
 -15887135.11247        50.000          36.000
 07  3 13  0 20  0.0000000  0 18R03R02G22G26G12R21G29G30G14G09G17R10
                                R22G18R17R01R20G05
  23449838.867                    23449839.598    23449833.930    -4341283.35705
  -4000064.58847        40.000          38.000
  22160631.875                    22160631.430    22160628.031   -12452476.84306
  -9703124.77247        43.000          41.000
  23862455.992                    23862449.691                   -10698692.22206
  -8059419.91446        45.000          28.000
  23324353.438                    23324348.684                    -7297593.27506
  -4828515.59146        45.000          28.000
  21342184.055                    21342178.582    21342178.285   -22744337.94607
 -17657162.17947        50.000          41.000
  19889666.180                    19889667.145    19889662.297    -2182801.59304
 -15649887.05347        39.000          40.000
  23980404.008                    23980399.500                    -5703139.31405
  -4023265.72446        41.000          24.000
  23993922.805                    23993919.305                    -2931657.18906
  -6276937.78646        44.000          28.000
  24750706.523                    24750701.199                    -4893405.26004
  -2851424.95845        38.000          19.000
  19787314.516                    19787309.254                   -30744201.86107
 -22525568.62847        51.000          42.000
  22528170.133                    22528164.754    22528164.813   -13541561.57907
 -12491610.47547        48.000          36.000
  21920012.039                    21920010.539    21920010.027    -9361683.95407
 -10975952.69947        48.000          43.000
  22614839.156                    22614840.121    22614838.801    -9006808.81105
  -6983567.01147        41.000          40.000
  23835447.703                    23835443.164                   -11371034.34205
  -8395892.39046        42.000          23.000
  24710002.734                                                            .00010
                          .00051
  23706456.414                    23706456.090    23706454.063     1400468.81800
   1194745.79546        31.000          26.000
  22586560.695                                                            .00010
                          .00051
  21731626.273                    21731621.160                   -16500244.84707
 -15949126.23747        50.000          36.000
 07  3 13  0 20 30.0000000  0 17R03R02G22G26G12R21G29G30G14G09G17R10
                                R22G18R17R20G05
  23440437.602                    23440439.621    23440433.008    -4391729.54905
  -4039300.56147        40.000          37.000
  22171696.203                    22171695.289    22171692.949   -12393327.21006
  -9657119.49747        43.000          41.000
  23866584.289                    23866578.141                   -10676995.96306
  -8042513.73746        45.000          27.000
  23345705.164                    23345700.523                    -7185389.93206
  -4741084.41646        44.000          29.000
  21330451.891                    21330446.547    21330446.449   -22805992.04807
 -17705204.32047        51.000          42.000
  19879797.727                    19879799.863    19879794.695    -2235681.08404
 -15691015.51947        39.000          41.000
  24000965.547                    24000961.469                    -5595088.11205
  -3939069.97446        42.000          25.000
  23974057.828                    23974052.781                    -3036047.87606
  -6358281.16846        45.000          25.000
  24730796.672                    24730792.668                    -4998036.50105
  -2932955.67646        40.000          22.000
  19786981.016                    19786976.281                   -30745954.01507
 -22526933.94247        51.000          42.000
  22537674.141                    22537669.090    22537669.012   -13491616.16506
 -12452691.96647        47.000          35.000
  21936151.930                    21936149.961    21936151.070    -9275310.23107
 -10908773.14147        48.000          43.000
  22589703.266                    22589704.699    22589703.840    -9141593.93305
  -7088399.85647        41.000          40.000
  23848325.078                    23848320.395                   -11303363.99405
  -8343162.24846        42.000          24.000
  24710002.734                                                            .00010
                          .00051
  22586560.695                                                            .00010
                          .00051
  21716545.859                    21716541.195                   -16579491.03107
 -16010876.48347        49.000          37.000
 07  3 13  0 21  0.0000000  0 18R03R02G22G26G12R21G29G30G14G09G17R10
                                R22G18R17R01R20G05
  23431166.719                    23431168.035    23431162.996    -4441475.84905
  -4077992.13447        40.000          38.000
  22182889.328                    22182888.648    22182885.164   -12333496.17906
  -9610584.27347        43.000          40.000
  23870810.508                    23870803.344                   -10654790.85006
  -8025211.04446        45.000          29.000
  23367089.875                    23367085.719                    -7073010.22106
  -4653515.82746        45.000          27.000
  21318785.898                    21318781.051    21318781.066   -22867293.45607
 -17752971.64547        50.000          41.000
  19870073.664                    19870075.332    19870071.055    -2287786.10704
 -15731541.65147        39.000          40.000
  24021551.656                    24021548.234                    -5486905.91605
  -3854772.18246        41.000          27.000
  23954218.648                    23954215.633                    -3140297.17005
  -6439514.38346        42.000          22.000
  24710918.078                    24710913.090                    -5102500.07205
  -3014355.91045        40.000          20.000
  19786735.828                    19786730.355                   -30747242.52707
 -22527937.98747        50.000          43.000
  22547278.844                    22547273.566    22547273.188   -13441146.11506
 -12413364.66447        47.000          35.000
  21952339.875                    21952338.727    21952339.898    -9188683.18906
 -10841396.58447        47.000          43.000
  22564604.633                    22564604.895    22564604.363    -9276185.51405
  -7193082.16147        41.000          40.000
  23861266.969                    23861261.727                   -11235354.98105
  -8290168.26446        41.000          23.000
  24710002.734                                                            .00010
                          .00051
  23751231.500                    23751230.938    23751229.328      138922.44005
   1300805.41847        41.000          40.000
  22586560.695                                                            .00010
                          .00051
  21701524.648                    21701519.570                   -16658428.78607
 -16072386.40547        50.000          37.000
 07  3 13  0 21 30.0000000  0 18R03R02G22G26G12R21G29G30G14G09G17R10
                                R22G18R17R01R20G05
  23422027.492                    23422028.691    23422025.188    -4490518.64104
  -4116136.56047        38.000          38.000
  22194209.313                    22194208.164    22194205.094   -12272984.24806
  -9563519.47347        43.000          40.000
  23875132.734                    23875125.566                   -10632075.65806
  -8007510.89846        47.000          28.000
  23388508.680                    23388504.719                    -6960454.06606
  -4565809.74946        45.000          28.000
  21307188.438                    21307183.410    21307183.207   -22928239.77307
 -17800462.26347        50.000          41.000
  19860496.750                    19860497.832    19860492.934    -2339112.70505
 -15771462.32447        40.000          40.000
  24042162.602                    24042159.566                    -5378592.65905
  -3770372.28046        41.000          26.000
  23934409.875                    23934404.469                    -3244401.59806
  -6520634.71046        44.000          26.000
  24691072.445                    24691067.473                    -5206791.52005
  -3095621.96845        40.000          20.000
  19786579.117                    19786574.641                   -30748064.98607
 -22528578.87247        49.000          42.000
  22556982.891                    22556977.730    22556977.254   -13390150.48207
 -12373627.80047        48.000          35.000
  21968576.469                    21968575.555    21968575.543    -9101800.99107
 -10773821.54347        48.000          43.000
  22539542.844                    22539544.277    22539543.473    -9410576.88805
  -7297608.76047        40.000          40.000
  23874273.727                    23874267.734                   -11167008.10605
  -8236910.98946        42.000          23.000
  24710002.734                                                            .00010
                          .00051
  23773643.734                    23773644.699    23773644.293      259002.25600
   1394200.67846        28.000          31.000
  22586560.695                                                            .00010
                          .00051
  21686562.461                    21686557.945                   -16737054.73507
 -16133653.36247        49.000          37.000
 07  3 13  0 22  0.0000000  0 18R03R02G22G26G12R21G29G30G14G09G17R10
                                R22G18R17R01R20G05
  23413019.711                    23413021.965    23413015.500    -4538858.04105
  -4153733.85447        40.000          38.000
  22205655.727                    22205655.164    22205650.828   -12211797.49106
  -9515929.78147        44.000          40.000
  23879551.820                    23879544.891                   -10608853.71406
  -7989415.88946        45.000          29.000
  23409960.625                    23409955.887                    -6847725.64506
  -4477969.44846        45.000          29.000
  21295658.000                    21295652.961    21295653.070   -22988831.85907
 -17847676.84947        50.000          41.000
  19851063.680                    19851064.762    19851060.039    -2389660.56504
 -15810777.31147        39.000          41.000
  24062798.531                    24062795.156                    -5270152.27305
  -3685873.30346        41.000          25.000
  23914626.578                    23914622.629                    -3348361.43306
  -6601642.28846        44.000          27.000
  24671258.453                    24671252.977                    -5310909.91703
  -3176753.28045        37.000          19.000
  19786511.086                    19786506.598                   -30748422.45607
 -22528857.41647        49.000          42.000
  22566786.406                    22566781.184    22566781.129   -13338633.22307
 -12333484.48647        48.000          35.000
  21984858.750                    21984858.660    21984859.184    -9014666.23706
 -10706050.07847        47.000          43.000
  22514519.672                    22514519.816    22514519.074    -9544766.49805
  -7401978.42947        41.000          40.000
  23887342.516                    23887337.484                   -11098327.98805
  -8183394.01246        42.000          25.000
  24710002.734                                                            .00010
                          .00051
  23796081.594                    23796081.973    23796078.066      379180.14504
   1487672.55347        39.000          36.000
  22586560.695                                                            .00010
                          .00051
  21671659.492                    21671655.301                   -16815369.94507
 -16194678.18247        50.000          37.000
 07  3 13  0 22 30.0000000  0 18R03R02G22G26G12R21G29G30G14G09G17R10
                                R22G18R17R01R20G05
  23404143.711                    23404144.207    23404139.512    -4586490.32503
  -4190781.15847        37.000          39.000
  22217227.836                    22217226.688    22217223.941   -12149937.35006
  -9467816.34747        43.000          41.000
  23884067.250                    23884060.512                   -10585124.71606
  -7970925.80046        45.000          29.000
  23431445.102                    23431440.664                    -6734825.81306
  -4389995.57746        45.000          30.000
  21284195.430                    21284189.980    21284189.910   -23049067.66207
 -17894613.84547        51.000          42.000
  19841776.961                    19841778.043    19841772.516    -2439426.05805
 -15849483.79247        40.000          41.000
  24083456.789                    24083454.305                    -5161585.60905
  -3601275.94446        41.000          22.000
  23894870.945                    23894866.348                    -3452173.76206
  -6682535.02946        43.000          26.000
  24651479.625                    24651474.598                    -5414851.02805
  -3257746.35745        40.000          20.000
  19786532.281                    19786527.211                   -30748313.33907
 -22528772.40247        51.000          43.000
  22576688.320                    22576683.766    22576683.668   -13286594.47207
 -12292934.78947        48.000          34.000
  22001189.023                    22001187.875    22001189.988    -8927277.79406
 -10638081.30548        47.000          44.000
  22489533.781                    22489534.277    22489533.117    -9678750.00305
  -7506187.78547        40.000          40.000
  23900474.367                    23900469.938                   -11029316.11605
  -8129618.58546        41.000          22.000
  24710002.734                                                            .00010
                          .00051
  23818533.172                    23818533.316    23818530.641      499452.96303
   1581218.02847        37.000          39.000
  22586560.695                                                            .00010
                          .00051
  21656816.133                    21656811.371                   -16893371.69007
 -16255458.74447        51.000          37.000
 07  3 13  0 23  0.0000000  0 18R03R02G22G26G12R21G29G30G14G09G17R10
                                R22G18R17R01R20G05
  23395399.453                    23395399.480    23395394.801    -4633413.69804
  -4227277.08147        38.000          38.000
  22228925.234                    22228924.910    22228920.563   -12087408.08606
  -9419182.50747        44.000          40.000
  23888678.063                    23888671.195                   -10560891.12206
  -7952042.46546        44.000          28.000
  23452961.055                    23452957.262                    -6621757.83506
  -4301890.67346        45.000          29.000
  21272800.594                    21272795.457    21272795.258   -23108947.85907
 -17941273.71447        50.000          41.000
  19832635.789                    19832637.223    19832632.617    -2488406.69304
 -15887579.84847        39.000          41.000
  24104141.305                    24104137.258                    -5052895.92805
  -3516582.69246        41.000          22.000
  23875144.852                    23875139.965                    -3555838.91506
  -6763313.02246        44.000          26.000
  24631734.148                    24631729.805                    -5518613.71903
  -3338600.34646        37.000          22.000
  19786641.453                    19786636.867                   -30747738.16707
 -22528324.22247        50.000          43.000
  22586690.320                    22586684.980    22586684.199   -13234036.98806
 -12251980.91147        47.000          35.000
  22017567.453                    22017566.070    22017567.688    -8839637.39706
 -10569916.57947        47.000          43.000
  22464587.828                    22464588.090    22464587.223    -9812524.99705
  -7610234.97947        41.000          39.000
  23913669.008                    23913664.816                   -10959976.38705
  -8075587.69246        40.000          22.000
  24710002.734                                                            .00010
                          .00051
  23841001.453                    23841001.480    23841000.457      619815.67602
   1674833.32047        34.000          33.000
  22586560.695                                                            .00010
                          .00051
  21642032.813                    21642028.191                   -16971060.06607
 -16315995.10947        50.000          37.000
 07  3 13  0 23 30.0000000  0 18R03R02G22G26G12R21G29G30G14G09G17R10
                                R22G18R17R01R20G05
  23386787.188                    23386789.793    23386784.609    -4679625.20505
  -4263219.40147        40.000          37.000
  22240747.641                    22240746.023    22240743.031   -12024212.50406
  -9370030.38347        44.000          40.000
  23893385.641                    23893378.816                   -10536153.66405
  -7932766.55546        42.000          28.000
  23474508.375                    23474504.574                    -6508523.36806
  -4213656.03146        44.000          28.000
  21261473.922                    21261468.504    21261468.586   -23168471.03207
 -17987655.38947        51.000          42.000
  19823643.625                    19823644.355    19823639.598    -2536601.29304
 -15925064.51947        39.000          41.000
  24124847.047                    24124843.590                    -4944084.57405
  -3431794.61246        41.000          22.000
  23855446.609                    23855441.328                    -3659354.68406
  -6843974.63346        45.000          27.000
  24612023.797                    24612019.203                    -5622194.46105
  -3419312.56346        41.000          22.000
  19786839.969                    19786835.156                   -30746695.58707
 -22527511.81947        51.000          43.000
  22596789.602                    22596785.063    22596784.555   -13180962.00006
 -12210623.76847        47.000          35.000
  22033992.453                    22033991.422    22033991.836    -8751744.96106
 -10501555.79947        47.000          43.000
  22439680.414                    22439681.730    22439681.180    -9946084.42505
  -7714114.50447        41.000          40.000
  23926926.641                    23926921.457                   -10890311.07905
  -8021303.08446        42.000          22.000
  24710002.734                                                            .00010
                          .00051
  23863487.258                    23863487.871    23863485.316      740264.40104
   1768515.72847        39.000          36.000
  22586560.695                                                            .00010
                          .00051
  21627309.414                    21627304.738                   -17048433.34707
 -16376285.97147        51.000          38.000
 07  3 13  0 24  0.0000000  0 18R03R02G22G26G12R21G29G30G14G09G17R10
                                R22G18R17R01R20G05
  23378307.992                    23378310.598    23378304.551    -4725124.94804
  -4298608.06547        39.000          37.000
  22252693.750                    22252692.484    22252688.465   -11960355.84606
  -9320364.13247        44.000          40.000
  23898188.875                    23898183.008                   -10510914.89206
  -7913100.01246        43.000          28.000
  23496087.336                    23496083.637                    -6395125.89906
  -4125294.40046        45.000          29.000
  21250214.992                    21250209.703    21250209.613   -23227637.51107
 -18033759.13747        51.000          41.000
  19814795.719                    19814797.035    19814792.047    -2584009.38404
 -15961937.46347        39.000          40.000
  24145575.477                    24145572.313                    -4835154.59305
  -3346914.12246        42.000          22.000
  23835775.922                    23835771.328                    -3762721.28706
  -6924520.02946        43.000          25.000
  24592347.531                    24592343.121                    -5725591.33704
  -3499881.58046        39.000          21.000
  19787126.922                    19787122.289                   -30745186.38907
 -22526335.82747        51.000          43.000
  22606987.875                    22606983.051    22606983.117   -13127372.69407
 -12168865.86747        49.000          36.000
  22050464.172                    22050463.141    22050463.969    -8663602.19406
 -10433000.35047        47.000          43.000
  22414815.828                    22414815.973    22414815.895   -10079424.12205
  -7817823.13047        41.000          40.000
  23940245.094                    23940239.504                   -10820324.04205
  -7966767.73846        41.000          21.000
  24710002.734                                                            .00010
                          .00051
  23885987.914                    23885988.410    23885984.613      860793.75503
   1862260.73047        37.000          34.000
  22586560.695                                                            .00010
                          .00051
  21612645.477                    21612640.469                   -17125491.71307
 -16436331.43047        50.000          37.000
 07  3 13  0 24 30.0000000  0 18R03R02G22G26G12R21G29G30G14G09G17R10
                                R22G18R17R01R20G05
  23369963.227                    23369964.074    23369959.289    -4769911.75704
  -4333442.30347        39.000          37.000
  22264761.727                    22264761.047    22264756.875   -11895841.00906
  -9270185.92447        44.000          40.000
  23903086.938                    23903080.047                   -10485175.71006
  -7893043.52346        44.000          28.000
  23517696.875                    23517692.523                    -6281567.19606
  -4036807.11646        45.000          28.000
  21239023.727                    21239018.793    21239019.027   -23286446.54507
 -18079584.34147        49.000          41.000
  19806095.977                    19806097.527    19806092.898    -2630627.68204
 -15998196.11747        39.000          41.000
  24166326.508                    24166322.531                    -4726107.85505
  -3261942.65046        41.000          21.000
  23816135.070                    23816129.852                    -3865936.92106
  -7004947.77546        45.000          28.000
  24572707.844                    24572702.469                    -5828801.46004
  -3580305.08845        38.000          18.000
  19787503.500                    19787498.199                   -30743209.28007
 -22524795.23247        51.000          43.000
  22617282.758                    22617278.066    22617278.230   -13073269.96607
 -12126707.91047        49.000          35.000
  22066983.320                    22066982.289    22066982.203    -8575209.19906
 -10364250.26047        47.000          42.000
  22389990.711                    22389992.730    22389990.906   -10212540.08305
  -7921357.74247        42.000          40.000
  23953624.180                    23953618.043                   -10750017.65905
  -7911983.55846        42.000          25.000
  24710002.734                                                            .00010
                          .00051
  23908502.281                    23908502.777    23908500.113      981400.10902
   1956065.76547        35.000          34.000
  22586560.695                                                            .00010
                          .00051
  21598042.070                    21598037.332                   -17202233.60607
 -16496130.29847        50.000          37.000
 07  3 13  0 25  0.0000000  0 19R03G04R02G22G26G12R21G29G30G14G09G17
                                R10R22G18R17R01R20G05
  23361749.508                    23361751.645    23361745.527    -4813982.65703
  -4367719.67247        37.000          37.000
  25422720.883                                                      -98855.26605
          .00051        40.000
  22276953.828                    22276952.563    22276948.629   -11830672.43106
  -9219499.28747        43.000          41.000
  23908079.273                    23908073.207                   -10458938.30506
  -7872598.75946        43.000          27.000
  23539336.852                    23539332.535                    -6167850.46906
  -3948196.69046        44.000          29.000
  21227901.078                    21227895.488    21227895.824   -23344898.32907
 -18125131.17347        49.000          41.000
  19797544.500                    19797545.699    19797540.781    -2676453.92904
 -16033838.74447        39.000          41.000
  24187098.891                    24187095.125                    -4616947.62005
  -3176882.72046        41.000          21.000
  23796522.336                    23796517.477                    -3969000.53906
  -7085257.05946        43.000          25.000
  24553102.797                    24553097.496                    -5931823.02005
  -3660581.66445        40.000          20.000
  19787968.719                    19787963.445                   -30740764.86607
 -22522890.49847        50.000          43.000
  22627675.797                    22627670.750    22627670.555   -13018656.47107
 -12084151.94347        49.000          35.000
  22083547.258                    22083545.758    22083547.004    -8486567.41506
 -10295306.65447        47.000          42.000
  22365209.664                    22365210.512    22365209.648   -10345431.66005
  -8024717.82047        41.000          41.000
  23967063.070                    23967057.203                   -10679395.85205
  -7856953.61946        42.000          22.000
  24710002.734                                                            .00010
                          .00051
  23931030.711                    23931031.207    23931027.848     1102077.51703
   2049925.83347        37.000          36.000
  22586560.695                                                            .00010
                          .00051
  21583498.930                    21583493.922                   -17278658.98607
 -16555682.51947        50.000          37.000
 07  3 13  0 25 30.0000000  0 19R03G04R02G22G26G12R21G29G30G14G09G17
                                R10R22G18R17R01R20G05
  23353670.188                    23353672.676    23353667.699    -4857333.45304
  -4401436.91347        39.000          38.000
  25407249.984                                                     -180152.93405
          .00051        42.000
  22289266.016                    22289265.691    22289262.422   -11764851.73906
  -9168305.44747        43.000          41.000
  23913167.781                    23913161.363                   -10432201.99206
  -7851765.32046        44.000          28.000
  23561006.234                    23561001.648                    -6053976.09606
  -3859463.42046        44.000          28.000
  21216846.039                    21216841.242    21216841.191   -23402990.56907
 -18170397.84547        49.000          42.000
  19789140.891                    19789141.738    19789137.277    -2721486.72504
 -16068864.23447        39.000          41.000
  24207892.813                    24207889.277                    -4507673.82505
  -3091734.30546        41.000          22.000
  23776939.844                    23776935.391                    -4071909.55906
  -7165445.88246        44.000          27.000
  24533536.188                    24533530.047                    -6034651.40705
  -3740707.69846        42.000          21.000
  19788523.469                    19788518.430                   -30737850.49507
 -22520619.56248        51.000          44.000
  22638165.094                    22638160.723    22638160.316   -12963532.48807
 -12041198.19547        48.000          34.000
  22100158.961                    22100157.227    22100158.922    -8397675.45206
 -10226168.48347        47.000          43.000
  22340471.758                    22340471.668    22340470.273   -10478092.11505
  -8127898.14347        42.000          40.000
  23980561.633                    23980556.402                   -10608459.43505
  -7801678.54446        42.000          23.000
  24710002.734                                                            .00010
                          .00051
  23953569.758                    23953571.543    23953569.219     1222824.43305
   2143840.16247        40.000          35.000
  22586560.695                                                            .00010
                          .00051
  21569016.273                    21569011.723                   -17354764.83107
 -16614985.74947        50.000          37.000
 07  3 13  0 26  0.0000000  0 19R03G04R02G22G26G12R21G29G30G14G09G17
                                R10R22G18R17R01R20G05
  23345726.203                    23345728.105    23345723.313    -4899963.26003
  -4434593.47347        37.000          38.000
  25391801.648                                                     -261333.07905
          .00051        42.000
  22301700.695                    22301699.898    22301696.547   -11698382.82306
  -9116607.44047        44.000          41.000
  23918348.922                    23918343.656                   -10404969.39406
  -7830545.13846        43.000          27.000
  23582705.000                    23582700.859                    -5939947.22706
  -3770609.75746        45.000          29.000
  21205860.148                    21205855.004    21205855.016   -23460723.26107
 -18215384.34147        48.000          42.000
  19780886.359                    19780887.090    19780881.883    -2765722.61604
 -16103269.91647        38.000          41.000
  24228708.273                    24228704.457                    -4398289.13905
  -3006499.49346        41.000          23.000
  23757386.266                    23757382.773                    -4174663.12906
  -7245513.54546        44.000          27.000
  24514005.523                    24514000.020                    -6137284.88705
  -3820681.83446        41.000          22.000
  19789167.203                    19789161.961                   -30734466.91907
 -22517983.01747        50.000          43.000
  22648751.914                    22648746.871    22648746.191   -12907900.71106
 -11997848.74947        47.000          35.000
  22116816.891                    22116815.508    22116816.344    -8308534.75007
 -10156836.83747        48.000          42.000
  22315776.867                    22315777.246    22315775.445   -10610517.49706
  -8230895.64447        43.000          40.000
  23994119.586                    23994113.844                   -10537212.17405
  -7746161.18446        41.000          22.000
  24710002.734                                                            .00010
                          .00051
  23976124.203                    23976123.406    23976121.770     1343635.17101
   2237804.07347        33.000          35.000
  22586560.695                                                            .00010
                          .00051
  21554594.398                    21554589.801                   -17430550.99207
 -16674039.89447        50.000          37.000
 07  3 13  0 26 30.0000000  0 19R03G04R02G22G26G12R21G29G30G14G09G17
                                R10R22G18R17R01R20G05
  23337916.406                    23337918.309    23337913.219    -4941871.26004
  -4467188.54747        38.000          38.000
  25376377.328                    25376372.285                     -342393.37105
    -39153.10545        42.000          19.000
  22314255.688                    22314254.773    22314251.660   -11631270.53005
  -9064409.01547        42.000          40.000
  23923625.742                    23923618.621                   -10377242.79805
  -7808940.02246        42.000          27.000
  23604433.195                    23604429.160                    -5825766.90306
  -3681638.09946        44.000          29.000
  21194942.289                    21194937.266    21194937.016   -23518096.77607
 -18260090.96147        50.000          42.000
  19772779.797                    19772781.113    19772775.891    -2809163.01105
 -16137056.88647        40.000          40.000
  24249543.914                    24249540.621                    -4288796.78405
  -2921180.78446        41.000          22.000
  23737862.461                    23737858.305                    -4277261.13806
  -7325460.05846        44.000          26.000
  24494512.180                    24494506.676                    -6239721.75905
  -3900502.69546        40.000          21.000
  19789900.086                    19789894.945                   -30730614.71307
 -22514981.29547        50.000          43.000
  22659434.852                    22659428.520    22659428.555   -12851763.79507
 -11954105.69647        48.000          35.000
  22133521.195                    22133520.047    22133520.508    -8219146.76806
 -10087312.87647        47.000          42.000
  22291125.828                    22291127.145    22291125.246   -10742705.31605
  -8333708.36747        42.000          40.000
  24007736.242                    24007731.875                   -10465657.94605
  -7690404.69346        41.000          23.000
  24710002.734                                                            .00010
                          .00051
  23998687.039                    23998688.590    23998683.980     1464505.39704
   2331814.13747        38.000          35.000
  22586560.695                                                            .00010
                          .00051
  21540233.664                    21540229.086                   -17506017.36907
 -16732844.84547        50.000          37.000
 07  3 13  0 27  0.0000000  0 19R03G04R02G22G26G12R21G29G30G14G09G17
                                R10R22G18R17R01R20G05
  23330241.984                    23330242.832    23330240.090    -4983054.69903
  -4499220.09447        37.000          38.000
  25360974.438                    25360971.363                     -423329.82805
   -102220.48045        41.000          17.000
  22326930.406                    22326929.492    22326924.809   -11563516.86006
  -9011711.71747        44.000          39.000
  23928995.773                    23928988.855                   -10349022.51706
  -7786950.18046        43.000          27.000
  23626189.539                    23626185.531                    -5711436.37806
  -3592549.38846        44.000          29.000
  21184093.016                    21184088.230    21184088.199   -23575109.51507
 -18304516.45747        50.000          42.000
  19764822.211                    19764822.707    19764818.535    -2851802.35704
 -16170220.80347        39.000          41.000
  24270400.180                    24270396.531                    -4179198.37205
  -2835779.46846        40.000          22.000
  23718369.242                    23718364.711                    -4379701.15806
  -7405283.39846        45.000          27.000
  24475057.344                    24475051.145                    -6341958.05604
  -3980167.33945        39.000          20.000
  19790722.992                    19790717.531                   -30726292.10707
 -22511613.04347        51.000          43.000
  22670212.820                    22670207.563    22670207.695   -12795122.21407
 -11909969.38647        48.000          35.000
  22150273.234                    22150270.445    22150270.730    -8129510.87506
 -10017596.10847        47.000          42.000
  22266520.398                    22266522.184    22266519.844   -10874649.51406
  -8436331.61447        43.000          40.000
  24021410.109                    24021405.758                   -10393798.69005
  -7634410.48946        42.000          24.000
  24710002.734                                                            .00010
                          .00051
  24021261.969                    24021262.699    24021259.320     1585431.30404
   2425867.67647        39.000          35.000
  22586560.695                                                            .00010
                          .00051
  21525934.211                    21525929.844                   -17581161.79907
 -16791398.94347        50.000          38.000
 07  3 13  0 27 30.0000000  0 19R03G04R02G22G26G12R21G29G30G14G09G17
                                R10R22G18R17R01R20G05
  23322702.445                    23322704.816    23322700.848    -5023513.58703
  -4530688.15347        37.000          38.000
  25345597.148                    25345593.629                     -504140.24105
   -165189.67245        40.000          20.000
  22339722.727                    22339722.637    22339719.195   -11495127.19406
  -8958519.76447        43.000          40.000
  23934459.852                    23934452.887                   -10320311.34705
  -7764577.87146        42.000          27.000
  23647973.172                    23647969.289                    -5596959.28406
  -3503346.47946        44.000          28.000
  21173312.664                    21173307.262    21173307.328   -23631762.26907
 -18348661.44347        50.000          42.000
  19757014.281                    19757015.129    19757010.961    -2893640.82204
 -16202761.80447        39.000          41.000
  24291276.391                    24291272.418                    -4069496.86405
  -2750297.80946        41.000          22.000
  23698904.898                    23698901.129                    -4481983.30806
  -7484983.75746        44.000          26.000
  24455640.578                    24455634.688                    -6443992.41005
  -4059674.65245        40.000          17.000
  19791634.617                    19791629.820                   -30721500.12807
 -22507879.03047        50.000          43.000
  22681086.609                    22681081.289    22681081.246   -12737979.40406
 -11865442.52347        47.000          35.000
  22167068.234                    22167067.438    22167067.520    -8039629.23606
  -9947688.16647        47.000          42.000
  22241961.141                    22241963.043    22241961.262   -11006347.50806
  -8538763.38047        43.000          41.000
  24035142.094                    24035137.547                   -10321638.42705
  -7578181.73646        42.000          25.000
  24710002.734                                                            .00010
                          .00051
  24043844.141                    24043845.223    24043843.539     1706407.23203
   2519960.06447        37.000          36.000
  22586560.695                                                            .00010
                          .00051
  21511696.008                    21511691.422                   -17655984.76307
 -16849702.53447        50.000          38.000
 07  3 13  0 28  0.0000000  0 19R03G04R02G22G26G12R21G29G30G14G09G17
                                R10R22G18R17R01R20G05
  23315299.797                    23315301.465    23315296.480    -5063244.79904
  -4561590.23847        39.000          38.000
  25330243.609                    25330239.750                     -584820.85104
   -228057.62945        38.000          17.000
  22352635.531                    22352635.086    22352631.766   -11426104.11305
  -8904835.19947        42.000          40.000
  23940016.094                    23940010.379                   -10291110.05006
  -7741823.62346        43.000          28.000
  23669785.258                    23669781.527                    -5482337.06806
  -3414030.48346        44.000          28.000
  21162600.641                    21162595.215    21162595.230   -23688053.87607
 -18392525.02247        51.000          42.000
  19749357.875                    19749357.551    19749353.176    -2934676.55304
 -16234678.48847        39.000          41.000
  24312170.477                    24312166.883                    -3959693.42105
  -2664736.68046        40.000          22.000
  23679471.570                    23679467.723                    -4584105.40206
  -7564559.35446        43.000          27.000
  24436263.125                    24436257.020                    -6545821.22204
  -4139021.85045        39.000          18.000
  19792635.953                    19792631.168                   -30716237.61907
 -22503778.38347        49.000          43.000
  22692055.609                    22692050.621    22692050.512   -12680336.54606
 -11820526.01847        47.000          35.000
  22183911.070                    22183909.453    22183910.480    -7949501.45906
  -9877588.79947        47.000          43.000
  22217447.531                    22217450.258    22217448.598   -11137794.34606
  -8640999.76747        43.000          41.000
  24048930.469                    24048926.047                   -10249179.15105
  -7521719.97046        42.000          24.000
  24710002.734                                                            .00010
                          .00051
  24066437.430                    24066436.867    24066436.328     1827430.38902
   2614089.18247        35.000          34.000
  22586560.695                                                            .00010
                          .00051
  21497519.133                    21497514.266                   -17730484.32707
 -16907754.11647        49.000          37.000
 07  3 13  0 28 30.0000000  0 19R03G04R02G22G26G12R21G29G30G14G09G17
                                R10R22G18R17R01R20G05
  23308031.766                    23308033.551    23308029.980    -5102248.44205
  -4591926.43147        40.000          40.000
  25314916.086                    25314912.340                     -665369.40503
   -290822.79645        36.000          17.000
  22365665.688                    22365665.598    22365660.965   -11356451.68306
  -8850661.11847        43.000          40.000
  23945665.344                    23945658.883                   -10261420.79206
  -7718689.16146        44.000          26.000
  23691624.570                    23691620.176                    -5367572.80806
  -3324603.80046        44.000          28.000
  21151957.016                    21151952.211    21151952.152   -23743984.34907
 -18436107.19847        50.000          42.000
  19741849.578                    19741850.895    19741846.000    -2974908.08604
 -16265969.64347        38.000          41.000
  24333084.625                    24333080.445                    -3849790.88005
  -2579098.37246        40.000          21.000
  23660069.016                    23660065.395                    -4686067.08106
  -7644009.99446        43.000          29.000
  24416925.141                    24416919.477                    -6647442.71404
  -4218207.45545        39.000          19.000
  19793726.789                    19793722.121                   -30710504.52407
 -22499311.02947        50.000          42.000
  22703119.523                    22703114.852    22703114.215   -12622196.21407
 -11775221.86547        48.000          35.000
  22200799.313                    22200798.047    22200798.633    -7859128.87906
  -9807299.03047        47.000          42.000
  22192983.141                    22192985.160    22192984.070   -11268987.23605
  -8743038.62847        42.000          42.000
  24062774.711                    24062770.477                   -10176424.67105
  -7465028.23446        42.000          22.000
  24710002.734                                                            .00010
                          .00051
  24089037.109                    24089037.371    24089034.715     1948495.36104
   2708250.78947        38.000          34.000
  22586560.695                                                            .00010
                          .00051
  21483403.727                    21483399.051                   -17804660.37007
 -16965553.61247        49.000          38.000
 07  3 13  0 29  0.0000000  0 19R03G04R02G22G26G12R21G29G30G14G09G17
                                R10R22G18R17R01R20G05
  23300898.930                    23300901.418    23300895.949    -5140520.65205
  -4621693.71247        40.000          38.000
  25299613.844                    25299611.102                     -745781.46803
   -353481.49145        37.000          16.000
  22378811.664                    22378811.691    22378808.578   -11286174.30605
  -8796000.96247        42.000          41.000
  23951407.953                    23951401.879                   -10231244.38906
  -7695175.09246        45.000          28.000
  23713489.297                    23713485.953                    -5252667.59506
  -3235067.29146        45.000          26.000
  21141383.047                    21141377.723    21141377.723   -23799551.99507
 -18479406.65447        51.000          41.000
  19734492.719                    19734493.918    19734487.922    -3014331.74004
 -16296632.48047        39.000          41.000
  24354017.375                    24354012.805                    -3739790.99505
  -2493384.19146        40.000          21.000
  23640696.773                    23640693.000                    -4787866.29606
  -7723334.02846        45.000          27.000
  24397626.531                    24397622.648                    -6748852.88603
  -4297228.32946        36.000          21.000
  19794907.781                    19794902.605                   -30704299.47307
 -22494475.92947        50.000          43.000
  22714277.734                    22714272.684    22714272.770   -12563559.38706
 -11729530.84047        47.000          34.000
  22217733.852                    22217732.117    22217733.035    -7768511.03906
  -9736818.50147        47.000          42.000
  22168567.156                    22168568.004    22168567.113   -11399919.75906
  -8844875.01347        44.000          42.000
  24076676.242                    24076670.266                   -10103376.90705
  -7408107.89746        41.000          22.000
  24710002.734                                                            .00010
                          .00051
  24111643.930                    24111644.660    24111643.055     2069599.05103
   2802442.58147        37.000          36.000
  22586560.695                                                            .00010
                          .00051
  21469350.484                    21469346.066                   -17878510.70307
 -17023099.29847        49.000          38.000
 07  3 13  0 29 30.0000000  0 19R03G04R02G22G26G12R21G29G30G14G09G17
                                R10R22G18R17R01R20G05
  23293903.117                    23293905.723    23293897.684    -5178061.15704
  -4650891.84147        39.000          37.000
  25284337.953                    25284335.660                     -826055.46702
   -416032.71245        34.000          16.000
  22392075.203                    22392075.465    22392072.074   -11215275.67005
  -8740857.62747        42.000          41.000
  23957243.344                    23957236.734                   -10200583.46206
  -7671283.49246        45.000          29.000
  23735381.586                    23735377.875                    -5137625.34606
  -3145423.97846        46.000          26.000
  21130877.727                    21130872.578    21130872.738   -23854758.23307
 -18522424.49047        50.000          41.000
  19727285.680                    19727286.879    19727282.320    -3052948.71004
 -16326667.88747        38.000          41.000
  24374966.859                    24374962.809                    -3629697.01905
  -2407596.69046        41.000          22.000
  23621356.594                    23621351.969                    -4889503.03206
  -7802531.47946        45.000          25.000
  24378370.289                    24378365.855                    -6850050.83305
  -4376083.78446        40.000          22.000
  19796177.883                    19796172.957                   -30697623.52507
 -22489273.89547        50.000          43.000
  22725530.039                    22725524.910    22725524.961   -12504429.43606
 -11683455.55347        47.000          35.000
  22234713.313                    22234711.695    22234712.695    -7677650.16006
  -9666148.93347        46.000          42.000
  22144200.195                    22144200.340    22144199.281   -11530591.36606
  -8946508.46647        43.000          40.000
  24090632.234                    24090626.012                   -10030040.26906
  -7350962.52046        43.000          23.000
  24710002.734                                                            .00010
                          .00051
  24134257.016                    24134257.980    24134256.305     2190735.99902
   2896660.18247        35.000          36.000
  22586560.695                                                            .00010
                          .00051
  21455358.977                    21455354.359                   -17952036.00307
 -17080391.72347        50.000          38.000
 07  3 13  0 30  0.0000000  0 19R03G04R02G22G26G12R21G29G30G14G09G17
                                R10R22G18R17R01R20G05
  23287044.414                    23287045.145    23287039.555    -5214869.13604
  -4679520.27747        39.000          37.000
  25269089.242                    25269086.559                     -906188.19403
   -478473.77945        36.000          17.000
  22405454.117                    22405453.438    22405450.031   -11143760.25006
  -8685234.53347        43.000          41.000
  23963169.633                    23963163.098                   -10169440.14906
  -7647015.98746        44.000          28.000
  23757299.070                    23757295.031                    -5022448.50406
  -3055675.78346        45.000          26.000
  21120440.852                    21120435.594    21120435.797   -23909602.67907
 -18565160.40947        50.000          42.000
  19720230.609                    19720230.871    19720226.207    -3090757.98604
 -16356075.09547        39.000          41.000
  24395934.844                    24395930.602                    -3519510.95005
  -2321737.40246        41.000          22.000
  23602046.805                    23602043.023                    -4990976.32806
  -7881601.57646        44.000          29.000
  24359153.367                    24359147.418                    -6951033.80905
  -4454771.88145        41.000          20.000
  19797538.109                    19797532.852                   -30690476.66107
 -22483704.90947        50.000          42.000
  22736875.375                    22736870.539    22736870.492   -12444808.52307
 -11636997.68947        48.000          35.000
  22251737.008                    22251736.801    22251736.281    -7586547.07707
  -9595290.98247        48.000          42.000
  22119880.867                    22119882.301    22119881.113   -11660996.95406
  -9047935.02447        43.000          41.000
  24104641.945                    24104635.156                    -9956417.82105
  -7293594.39146        42.000          21.000
  24710002.734                                                            .00010
                          .00051
  24156875.805                    24156877.121    24156876.523     2311901.73302
   2990900.05547        34.000          35.000
  22586560.695                                                            .00010
                          .00051
  21441429.672                    21441425.199                   -18025235.51507
 -17137430.29047        49.000          38.000
 07  3 13  0 30 30.0000000  0 19R03G04R02G22G26G12R21G29G30G14G09G17
                                R10R22G18R17R01R20G05
  23280323.305                    23280324.152    23280318.793    -5250941.15104
  -4707576.35447        38.000          37.000
  25253868.313                    25253865.824                     -986175.10903
   -540801.32945        36.000          17.000
  22418947.977                    22418948.004    22418944.555   -11071629.53906
  -8629132.90047        43.000          40.000
  23969187.492                    23969180.938                   -10137814.34106
  -7622372.52146        44.000          29.000
  23779241.859                    23779238.020                    -4907137.73706
  -2965823.24546        44.000          26.000
  21110074.023                    21110068.797    21110068.652   -23964082.75107
 -18607612.40147        51.000          42.000
  19713325.664                    19713326.863    19713322.965    -3127754.74104
 -16384850.33147        38.000          40.000
  24416919.211                    24416915.879                    -3409233.63204
  -2235807.05046        39.000          22.000
  23582768.633                    23582765.191                    -5092283.20706
  -7960541.98646        45.000          27.000
  24339979.602                    24339971.598                    -7051797.56304
  -4533289.23245        39.000          16.000
  19798987.953                    19798983.168                   -30682856.94907
 -22477767.47747        50.000          42.000
  22748314.648                    22748309.453    22748309.242   -12384696.98507
 -11590157.53647        49.000          36.000
  22268807.656                    22268806.273    22268806.566    -7495200.65306
  -9524243.77947        46.000          41.000
  22095613.641                    22095614.020    22095612.965   -11791131.28306
  -9149150.59647        43.000          41.000
  24118705.578                    24118699.406                    -9882510.90005
  -7236004.58646        42.000          22.000
  24710002.734                                                            .00010
                          .00051
  24179500.383                    24179500.879    24179498.402     2433093.59304
   3085160.48946        39.000          30.000
  22586560.695                                                            .00010
                          .00051
  21427562.375                    21427558.270                   -18098106.55107
 -17194212.89547        49.000          38.000
 07  3 13  0 31  0.0000000  0 19R03G04R02G22G26G12R21G29G30G14G09G17
                                R10R22G18R17R01R20G05
  23273736.117                    23273739.313    23273733.535    -5286277.23204
  -4735059.93647        39.000          37.000
  25238675.188                    25238671.934                    -1066015.28204
   -603014.46645        38.000          16.000
  22432554.852                    22432554.527    22432550.297   -10998889.73206
  -8572557.52047        43.000          40.000
  23975296.391                    23975291.203                   -10105709.58806
  -7597355.84446        44.000          28.000
  23801209.961                    23801205.680                    -4791697.56406
  -2875869.88646        44.000          26.000
  21099775.609                    21099770.684    21099770.594   -24018200.44107
 -18649782.01547        50.000          42.000
  19706572.547                    19706573.863    19706569.770    -3163941.40104
 -16412995.51647        39.000          41.000
  24437921.297                    24437917.699                    -3298869.34605
  -2149808.92246        40.000          22.000
  23563521.961                    23563518.859                    -5193424.16506
  -8039353.05246        45.000          29.000
  24320846.648                    24320840.578                    -7152341.45505
  -4611635.09145        40.000          20.000
  19800527.813                    19800522.621                   -30674766.35607
 -22471463.11647        50.000          43.000
  22759845.961                    22759840.969    22759840.609   -12324098.89307
 -11542938.25047        49.000          36.000
  22285923.156                    22285921.539    22285921.512    -7403613.65707
  -9453009.47147        48.000          41.000
  22071396.680                    22071397.176    22071395.984   -11920994.34005
  -9250155.18247        42.000          42.000
  24132822.211                    24132817.102                    -9808324.62105
  -7178197.14546        40.000          22.000
  24710002.734                                                            .00010
                          .00051
  24202128.578                    24202128.840    24202125.363     2554305.00003
   3179436.09447        37.000          33.000
  22586560.695                                                            .00010
                          .00051
  21413757.922                    21413753.469                   -18170650.45107
 -17250740.57947        49.000          38.000
 07  3 13  0 31 30.0000000  0 19R03G04R02G22G26G12R21G29G30G14G09G17
                                R10R22G18R17R01R20G05
  23267290.164                    23267290.543    23267286.523    -5320875.02504
  -4761969.32147        38.000          38.000
  25223512.188                    25223507.809                    -1145703.48304
   -665109.17645        39.000          17.000
  22446275.586                    22446275.023    22446271.434   -10925543.21606
  -8515510.24347        43.000          40.000
  23981496.844                    23981491.375                   -10073126.26506
  -7571966.24946        44.000          28.000
  23823202.117                    23823197.996                    -4676128.46606
  -2785816.05046        45.000          26.000
  21089547.008                    21089541.531    21089541.332   -24071953.44707
 -18691667.47247        50.000          42.000
  19699971.406                    19699972.957    19699968.914    -3199315.12604
 -16440508.39147        39.000          41.000
  24458939.219                    24458935.813                    -3188418.41205
  -2063743.24246        41.000          22.000
  23544307.672                    23544303.590                    -5294396.93606
  -8118033.12946        44.000          28.000
  24301756.430                    24301752.457                    -7252661.00705
  -4689806.10646        40.000          25.000
  19802157.125                    19802152.332                   -30666202.66907
 -22464790.11847        51.000          43.000
  22771469.727                    22771464.723    22771464.473   -12263014.62907
 -11495340.12447        48.000          35.000
  22303083.539                    22303081.805    22303083.016    -7311785.19906
  -9381587.34747        47.000          42.000
  22047231.102                    22047232.652    22047230.656   -12050579.02506
  -9350943.23047        43.000          41.000
  24146992.047                    24146987.570                    -9733860.60405
  -7120173.25746        42.000          22.000
  24710002.734                                                            .00010
                          .00051
  24224760.844                    24224760.164    24224756.063     2675534.10300
   3273725.38847        31.000          35.000
  22586560.695                                                            .00010
                          .00051
  21400016.664                    21400011.785                   -18242864.54707
 -17307011.29447        50.000          38.000
 07  3 13  0 32  0.0000000  0 19R03G04R02G22G26G12R21G29G30G14G09G17
                                R10R22G18R17R01R20G05
  23260980.422                    23260981.973    23260976.832    -5354732.77504
  -4788303.12047        38.000          38.000
  25208377.125                    25208373.336                    -1225237.25003
   -727083.53745        37.000          17.000
  22460110.367                    22460109.219    22460105.906   -10851595.13205
  -8457995.09547        42.000          40.000
  23987788.930                    23987782.383                   -10040066.38306
  -7546205.33546        45.000          28.000
  23845217.641                    23845213.477                    -4560433.28606
  -2695663.98246        44.000          25.000
  21079387.523                    21079382.523    21079382.191   -24125341.70707
 -18733268.70547        50.000          42.000
  19693522.633                    19693523.715    19693519.125    -3233873.22704
 -16467386.91147        39.000          41.000
  24479974.133                    24479969.996                    -3077883.80505
  -1977612.41246        40.000          22.000
  23525125.125                    23525120.574                    -5395200.55406
  -8196581.35346        45.000          27.000
  24282709.516                    24282704.555                    -7352753.95305
  -4767800.60346        40.000          25.000
  19803877.102                    19803872.336                   -30657165.71607
 -22457748.34447        50.000          43.000
  22783185.492                    22783180.797    22783180.656   -12201446.71307
 -11447365.12247        48.000          35.000
  22320289.102                    22320287.953    22320288.953    -7219716.27206
  -9309978.17247        47.000          42.000
  22023119.508                    22023119.301    22023119.516   -12179879.34806
  -9451510.11747        43.000          42.000
  24161214.383                    24161209.805                    -9659121.84405
  -7061935.30546        42.000          22.000
  24710002.734                                                            .00010
                          .00051
  24247391.258                    24247391.871    24247389.645     2796775.88402
   3368024.40347        35.000          36.000
  22586560.695                                                            .00010
                          .00051
  21386337.500                    21386332.355                   -18314748.30707
 -17363024.59347        49.000          38.000
 07  3 13  0 32 30.0000000  0 19R03G04R02G22G26G12R21G29G30G14G09G17
                                R10R22G18R17R01R20G05
  23254808.281                    23254809.598    23254804.895    -5387848.82104
  -4814060.01247        38.000          38.000
  25193272.641                    25193268.547                    -1304613.38302
   -788935.10745        35.000          17.000
  22474055.977                    22474055.063    22474050.887   -10777048.49206
  -8400014.43347        44.000          40.000
  23994170.672                    23994162.230                   -10006531.43406
  -7520074.20846        46.000          26.000
  23867257.727                    23867254.023                    -4444614.19806
  -2605415.34546        44.000          25.000
  21069297.367                    21069292.367    21069292.219   -24178365.18207
 -18774585.68647        50.000          42.000
  19687226.336                    19687227.418    19687222.848    -3267614.25004
 -16493629.91647        39.000          40.000
  24501023.227                    24501019.176                    -2967267.14304
  -1891417.61946        39.000          22.000
  23505976.648                    23505971.215                    -5495833.40206
  -8274996.57446        46.000          28.000
  24263705.695                    24263700.938                    -7452617.54305
  -4845616.35246        40.000          22.000
  19805687.031                    19805682.016                   -30647655.18107
 -22450337.54147        49.000          43.000
  22794993.063                    22794988.180    22794987.922   -12139397.17506
 -11399014.83947        47.000          35.000
  22337539.242                    22337538.211    22337538.547    -7127407.37306
  -9238182.38147        46.000          41.000
  21999060.836                    21999062.270    21999061.258   -12308890.14906
  -9551851.80747        43.000          42.000
  24175488.516                    24175483.645                    -9584111.32205
  -7003485.64446        40.000          21.000
  24710002.734                                                            .00010
                          .00051
  24270025.578                    24270026.191    24270026.152     2918026.17903
   3462330.16747        36.000          36.000
  22586560.695                                                            .00010
                          .00051
  21372721.141                    21372716.828                   -18386300.79207
 -17418779.75247        50.000          38.000
 07  3 13  0 33  0.0000000  0 19R03G04R02G22G26G12R21G29G30G14G09G17
                                R10R22G18R17R01R20G05
  23248775.305                    23248776.973    23248773.211    -5420223.09703
  -4839240.00147        37.000          38.000
  25178199.055                    25178195.215                    -1383828.81303
   -850661.36245        37.000          16.000
  22488111.555                    22488110.992    22488108.410   -10701906.80306
  -8341570.87747        43.000          40.000
  24000641.852                    24000634.914                    -9972523.27706
  -7493574.33746        45.000          28.000
  23889319.195                    23889316.207                    -4328673.68106
  -2515072.07346        43.000          26.000
  21059276.703                    21059271.492    21059271.328   -24231023.62807
 -18815618.23447        50.000          42.000
  19681082.688                    19681083.184    19681078.395    -3300538.86104
 -16519237.93947        39.000          40.000
  24522087.602                    24522083.953                    -2856570.91805
  -1805160.81946        40.000          21.000
  23486858.547                    23486854.500                    -5596294.77606
  -8353278.13346        45.000          29.000
  24244745.891                    24244740.527                    -7552249.54204
  -4923251.66545        38.000          20.000
  19807587.016                    19807581.766                   -30637671.00807
 -22442557.66948        50.000          44.000
  22806892.219                    22806886.930    22806887.051   -12076868.13707
 -11350290.92947        48.000          35.000
  22354833.258                    22354832.109    22354832.957    -7034859.36006
  -9166200.61847        46.000          41.000
  21975056.297                    21975056.793    21975055.492   -12437612.39406
  -9651969.09647        43.000          42.000
  24189813.352                    24189808.656                    -9508832.08904
  -6944826.48845        39.000          20.000
  24710002.734                                                            .00010
                          .00051
  24292661.430                    24292662.160    24292660.559     3039280.94802
   3556639.45547        35.000          32.000
  22586560.695                                                            .00010
                          .00051
  21359168.188                    21359163.328                   -18457521.24107
 -17474276.18747        50.000          39.000
 07  3 13  0 33 30.0000000  0 19R03G04R02G22G26G12R21G29G30G14G09G17
                                R10R22G18R17R01R20G05
  23242882.508                    23242882.184    23242878.895    -5451854.43904
  -4863842.15247        38.000          38.000
  25163154.258                    25163151.836                    -1462881.52803
   -912260.88545        36.000          17.000
  22502277.969                    22502278.113    22502277.020   -10626175.80705
  -8282669.03047        42.000          41.000
  24007203.109                    24007195.773                    -9938044.85506
  -7466708.03546        45.000          28.000
  23911405.180                    23911401.711                    -4212615.11206
  -2424636.83146        44.000          24.000
  21049325.758                    21049320.355    21049320.258   -24283317.40607
 -18856366.62647        49.000          42.000
  19675091.688                    19675093.004    19675087.996    -3332644.99204
 -16544209.37347        39.000          40.000
  24543168.164                    24543163.223                    -2745798.70105
  -1718844.80846        41.000          22.000
  23467773.594                    23467769.840                    -5696584.65806
  -8431426.00846        45.000          29.000
  24225831.203                    24225825.930                    -7651647.93605
  -5000704.99746        41.000          21.000
  19809576.695                    19809571.766                   -30627214.07307
 -22434409.40647        50.000          43.000
  22818881.523                    22818876.156    22818875.832   -12013863.21907
 -11301196.18747        48.000          35.000
  22372172.266                    22372171.352    22372172.258    -6942074.21906
  -9094034.42047        46.000          42.000
  21951106.594                    21951108.262    21951106.484   -12566041.28905
  -9751858.19847        42.000          41.000
  24204190.000                    24204183.973                    -9433288.67505
  -6885961.51145        42.000          20.000
  24710002.734                                                            .00010
                          .00051
  24315297.164                    24315297.309    24315297.652     3160534.94200
   3650948.19047        32.000          33.000
  22586560.695                                                            .00010
                          .00051
  21345678.594                    21345674.086                   -18528409.94107
 -17529514.12947        50.000          39.000
 07  3 13  0 34  0.0000000  0 18R03G04R02G22G26G12R21G29G30G14G09G17
                                R10R22G18R17R20G05
  23237125.242                    23237126.793    23237122.465    -5482739.67904
  -4887864.01947        38.000          38.000
  25148143.547                    25148140.313                    -1541766.72004
   -973729.83945        38.000          18.000
  22516556.141                    22516555.109    22516553.137   -10549858.33206
  -8223311.00547        43.000          41.000
  24013853.039                    24013846.070                    -9903096.49306
  -7439475.57446        43.000          28.000
  23933512.484                    23933508.789                    -4096439.50606
  -2334110.39246        43.000          25.000
  21039444.383                    21039439.156    21039439.059   -24335244.53707
 -18896829.32347        50.000          42.000
  19669252.289                    19669253.957    19669248.422    -3363930.56604
 -16568542.56747        39.000          40.000
  24564260.625                    24564256.922                    -2634950.94605
  -1632469.96246        41.000          22.000
  23448722.211                    23448719.738                    -5796700.43606
  -8509438.28246        44.000          30.000
  24206962.766                    24206956.422                    -7750808.58505
  -5077973.01746        42.000          22.000
  19811656.750                    19811651.555                   -30616282.81907
 -22425891.55447        50.000          43.000
  22830961.555                    22830955.992    22830955.996   -11950382.26007
 -11251730.50047        48.000          34.000
  22389556.453                    22389554.133    22389554.984    -6849051.05506
  -9021683.07247        46.000          41.000
  21927211.961                    21927214.098    21927212.574   -12694171.68505
  -9851515.17847        42.000          41.000
  24218614.977                    24218609.711                    -9357482.46205
  -6826891.68046        42.000          21.000
  24710002.734                                                            .00010
                          .00051
  22586560.695                                                            .00010
                          .00051
  21332252.313                    21332248.188                   -18598964.56407
 -17584491.73247        50.000          39.000
 07  3 13  0 34 30.0000000  0 19R03G04R02G22G26G12R21G29G30G14G09G17
                                R10R22G18R17R01R20G05
  23231508.703                    23231511.191    23231506.031    -5512879.26004
  -4911305.90247        38.000          39.000
  25133164.922                    25133161.410                    -1620482.53405
  -1035066.83145        41.000          20.000
  22530941.203                    22530941.582    22530938.551   -10472958.57206
  -8163500.08247        43.000          40.000
  24020592.445                    24020585.848                    -9867680.65006
  -7411878.83446        44.000          27.000
  23955642.086                    23955638.012                    -3980149.89205
  -2243495.11446        42.000          24.000
  21029632.695                    21029627.137    21029627.145   -24386805.38707
 -18937006.60847        51.000          42.000
  19663567.945                    19663569.496    19663564.523    -3394394.37804
 -16592236.64347        39.000          41.000
  24585368.148                    24585364.516                    -2524030.61704
  -1546038.52446        39.000          21.000
  23429703.633                    23429700.313                    -5896641.49506
  -8587314.39846        44.000          28.000
  24188138.609                    24188132.805                    -7849729.55905
  -5155054.32846        42.000          25.000
  19813827.070                    19813822.199                   -30604877.39007
 -22417004.20747        51.000          43.000
  22843131.703                    22843126.340    22843126.254   -11886428.58207
 -11201896.46747        49.000          35.000
  22406984.242                    22406983.094    22406983.918    -6755791.42206
  -8949147.80147        45.000          41.000
  21903375.227                    21903375.723    21903374.527   -12821999.83906
  -9950937.04347        43.000          42.000
  24233090.086                    24233084.934                    -9281416.99605
  -6767619.92546        41.000          22.000
  24710002.734                                                            .00010
                          .00051
  24360566.406                    24360565.492    24360563.676     3403028.57400
   3839554.22647        31.000          35.000
  22586560.695                                                            .00010
                          .00051
  21318890.125                    21318885.715                   -18669184.96807
 -17639208.90747        51.000          38.000
 07  3 13  0 35  0.0000000  0 19R03G04R02G22G26G12R21G29G30G14G09G17
                                R10R22G18R17R01R20G05
  23226031.227                    23226033.012    23226028.395    -5542273.27603
  -4934167.90147        37.000          38.000
  25118218.930                    25118214.152                    -1699026.13105
  -1096269.73645        41.000          19.000
  22545435.367                    22545434.922    22545431.844   -10395481.97106
  -8103240.54647        44.000          40.000
  24027420.461                    24027413.883                    -9831800.36805
  -7383920.18346        42.000          27.000
  23977792.008                    23977788.258                    -3863749.42405
  -2152793.49246        42.000          24.000
  21019890.305                    21019884.855    21019885.023   -24438000.67607
 -18976899.03747        50.000          41.000
  19658036.898                    19658037.746    19658032.520    -3424038.23704
 -16615292.96347        39.000          41.000
  24606488.297                    24606484.906                    -2413040.96905
  -1459553.11346        40.000          22.000
  23410719.078                    23410715.191                    -5996407.25106
  -8665053.91546        45.000          28.000
  24169360.531                    24169354.781                    -7948409.25305
  -5231947.58046        42.000          22.000
  19816087.539                    19816082.496                   -30592998.60707
 -22407748.01747        51.000          43.000
  22855390.672                    22855385.699    22855385.227   -11822005.29707
 -11151696.50847        48.000          34.000
  22424455.578                    22424454.430    22424456.070    -6662296.77406
  -8876429.75547        46.000          42.000
  21879594.117                    21879595.199    21879594.059   -12949522.03306
 -10050120.96247        44.000          42.000
  24247612.539                    24247608.801                    -9205096.46805
  -6708149.44346        41.000          22.000
  24710002.734                                                            .00010
                          .00051
  24383195.445                    24383197.230    24383194.914     3524257.68902
   3933843.49947        34.000          35.000
  22586560.695                                                            .00010
                          .00051
  21305590.922                    21305586.777                   -18739071.10407
 -17693665.61747        51.000          39.000
 07  3 13  0 35 30.0000000  0 19R03G04R02G22G26G12R21G29G30G14G09G17
                                R10R22G18R17R01R20G05
  23220693.711                    23220696.789    23220690.645    -5570916.83904
  -4956446.27247        39.000          38.000
  25103306.352                    25103300.938                    -1777392.59504
  -1157334.56545        38.000          16.000
  22560036.031                    22560036.059    22560033.012   -10317430.10406
  -8042533.56947        43.000          40.000
  24034336.797                    24034329.695                    -9795455.51906
  -7355599.53446        44.000          27.000
  23999963.266                    23999959.789                    -3747238.58105
  -2062005.82946        42.000          24.000
  21010218.430                    21010212.855    21010212.801   -24488828.34407
 -19016505.00347        50.000          42.000
  19652657.875                    19652658.488    19652654.059    -3452857.66404
 -16637708.05547        39.000          40.000
  24627622.305                    24627619.414                    -2301982.32105
  -1373013.91546        40.000          21.000
  23391768.141                    23391764.855                    -6095995.11706
  -8742654.86946        46.000          29.000
  24150627.906                    24150623.898                    -8046843.15305
  -5308649.21346        42.000          22.000
  19818438.242                    19818433.570                   -30580644.33907
 -22398121.32147        51.000          43.000
  22867739.789                    22867734.344    22867734.500   -11757112.46007
 -11101130.66147        48.000          34.000
  22441971.836                    22441970.336    22441971.621    -6568566.05006
  -8803528.10347        46.000          42.000
  21855872.242                    21855872.738    21855871.883   -13076733.40406
 -10149063.11347        43.000          42.000
  24262184.227                    24262180.516                    -9128521.71004
  -6648480.88546        39.000          21.000
  24710002.734                                                            .00010
                          .00051
  24405824.016                    24405825.684    24405822.594     3645471.79003
   4028121.12847        36.000          35.000
  22586560.695                                                            .00010
                          .00051
  21292356.242                    21292352.070                   -18808620.38407
 -17747859.84947        51.000          38.000
 07  3 13  0 36  0.0000000  0 19R03G04R02G22G26G12R21G29G30G14G09G17
                                R10R22G18R17R01R20G05
  23215497.344                    23215498.895    23215492.098    -5598812.09805
  -4978142.56547        40.000          39.000
  25088427.500                    25088422.793                    -1855580.64202
  -1218260.41045        35.000          16.000
  22574744.508                    22574744.063    22574739.844   -10238809.32406
  -7981384.13347        43.000          40.000
  24041340.758                    24041333.113                    -9758649.52606
  -7326919.50446        43.000          26.000
  24022155.234                    24022151.035                    -3630621.29305
  -1971135.26146        42.000          24.000
  21000615.875                    21000610.441    21000610.340   -24539289.54807
 -19055825.40847        49.000          42.000
  19647433.781                    19647434.746    19647429.555    -3480853.72504
 -16659482.75747        39.000          40.000
  24648770.023                    24648765.453                    -2190858.10405
  -1286423.64346        42.000          22.000
  23372851.633                    23372846.844                    -6195405.45606
  -8820117.44446        46.000          29.000
  24131943.789                    24131938.711                    -8145029.97305
  -5385158.42246        42.000          21.000
  19820879.852                    19820874.492                   -30567816.26407
 -22388125.42647        50.000          42.000
  22880177.094                    22880171.293    22880170.871   -11691753.91807
 -11050201.91347        48.000          34.000
  22459531.352                    22459530.438    22459530.770    -6474601.60706
  -8730444.64647        45.000          42.000
  21832208.703                    21832209.199    21832208.363   -13203629.56206
 -10247760.10947        43.000          42.000
  24276804.180                    24276799.535                    -9051697.89006
  -6588618.17146        43.000          22.000
  24710002.734                                                            .00010
                          .00051
  24428448.133                    24428448.863    24428446.887     3766664.89503
   4122382.42247        36.000          36.000
  22586560.695                                                            .00010
                          .00051
  21279185.539                    21279180.926                   -18877833.58807
 -17801792.20247        51.000          39.000
 07  3 13  0 36 30.0000000  0 19R03G04R02G22G26G12R21G29G30G14G09G17
                                R10R22G18R17R01R20G05
  23210437.383                    23210438.816    23210433.266    -5625957.56004
  -4999255.68047        39.000          38.000
  25073581.633                    25073579.520                    -1933586.96800
  -1279044.64045        32.000          16.000
  22589558.203                    22589556.820    22589552.770   -10159622.66506
  -7919794.53647        43.000          39.000
  24048432.703                    24048425.844                    -9721383.91106
  -7297881.40146        43.000          26.000
  24044366.398                    24044362.418                    -3513899.70706
  -1880183.39846        43.000          26.000
  20991082.945                    20991077.703    20991077.855   -24589383.41907
 -19094859.58847        49.000          42.000
  19642362.375                    19642363.574    19642359.344    -3508024.18204
 -16680615.30747        39.000          41.000
  24669927.406                    24669923.559                    -2079670.49505
  -1199783.94446        42.000          22.000
  23353968.664                    23353964.574                    -6294636.91906
  -8897440.56846        46.000          30.000
  24113307.398                    24113301.570                    -8242966.60805
  -5461472.77346        42.000          23.000
  19823411.031                    19823406.293                   -30554513.67207
 -22377759.76847        51.000          42.000
  22892702.695                    22892697.309    22892697.023   -11625931.91706
 -10998912.05647        47.000          34.000
  22477133.922                    22477132.422    22477134.148    -6380403.88906
  -8657179.75747        46.000          43.000
  21808603.531                    21808605.316    21808603.930   -13330207.61006
 -10346209.69347        43.000          42.000
  24291470.867                    24291464.367                    -8974627.29206
  -6528563.14346        43.000          21.000
  24710002.734                                                            .00010
                          .00051
  24451067.375                    24451067.051    24451063.973     3887833.27703
   4216624.48647        36.000          34.000
  22586560.695                                                            .00010
                          .00051
  21266078.859                    21266074.332                   -18946709.61007
 -17855461.81547        51.000          39.000
 07  3 13  0 37  0.0000000  0 19R03G04R02G22G26G12R21G29G30G14G09G17
                                R10R22G18R17R01R20G05
  23205519.727                    23205521.160    23205513.348    -5652351.40005
  -5019784.24347        40.000          37.000
  25058774.641                    25058771.328                    -2011407.18902
  -1339683.76445        35.000          15.000
  22604476.133                    22604474.516    22604472.609   -10079874.52805
  -7857768.22747        42.000          40.000
  24055610.969                    24055603.590                    -9683659.71006
  -7268485.93446        44.000          26.000
  24066597.906                    24066593.098                    -3397075.23906
  -1789151.34646        43.000          26.000
  20981620.563                    20981614.918    20981614.910   -24639109.11007
 -19133606.86947        50.000          42.000
  19637447.859                    19637448.941    19637443.215    -3534367.75104
 -16701104.75547        39.000          41.000
  24691097.922                    24691093.133                    -1968421.10005
  -1113096.11146        41.000          22.000
  23335119.125                    23335115.930                    -6393687.45606
  -8974622.77446        45.000          30.000
  24094717.641                    24094713.180                    -8340649.46904
  -5537589.30646        39.000          21.000
  19826033.195                    19826028.070                   -30540735.72407
 -22367023.72347        51.000          42.000
  22905316.219                    22905310.703    22905310.477   -11559647.50607
 -10947261.87147        48.000          35.000
  22494780.500                    22494779.352    22494780.848    -6285972.71906
  -8583733.32647        45.000          42.000
  21785060.352                    21785060.379    21785059.031   -13456463.43506
 -10444408.66347        44.000          42.000
  24306183.250                    24306177.629                    -8897312.42806
  -6468317.72446        43.000          21.000
  24710002.734                                                            .00010
                          .00051
  24473683.313                    24473682.867    24473680.422     4008973.78002
   4310844.90547        34.000          33.000
  22586560.695                                                            .00010
                          .00051
  21253036.633                    21253032.383                   -19015246.73807
 -17908867.36247        51.000          40.000
 07  3 13  0 37 30.0000000  0 19R03G04R02G22G26G12R21G29G30G14G09G17
                                R10R22G18R17R01R20G05
  23200740.430                    23200743.156    23200736.051    -5677991.63605
  -5039726.65247        40.000          38.000
  25044001.797                                                    -2089038.80802
          .00051        34.000
  22619499.031                    22619498.707    22619495.945    -9999568.31305
  -7795307.86847        42.000          40.000
  24062875.359                    24062869.008                    -9645479.65305
  -7238735.23946        42.000          27.000
  24088848.273                    24088843.391                    -3280150.78506
  -1698041.38446        44.000          25.000
  20972228.047                    20972222.801    20972222.449   -24688466.72507
 -19172067.34447        50.000          42.000
  19632685.906                    19632687.340    19632682.328    -3559883.20004
 -16720950.08247        39.000          41.000
  24712278.820                    24712275.066                    -1857112.41204
  -1026362.07445        39.000          20.000
  23316305.297                    23316300.488                    -6492556.26106
  -9051663.37746        44.000          27.000
  24076178.797                    24076174.512                    -8438076.60304
  -5613506.51446        39.000          22.000
  19828745.219                    19828740.344                   -30526482.44707
 -22355917.27347        51.000          42.000
  22918016.781                    22918011.836    22918011.547   -11492903.27306
 -10895253.37647        47.000          35.000
  22512471.000                    22512469.383    22512471.105    -6191309.49606
  -8510106.36747        46.000          42.000
  21761575.242                    21761575.973    21761575.684   -13582395.23606
 -10542355.59847        44.000          43.000
  24320939.594                    24320936.988                    -8819756.87504
  -6407884.87446        38.000          22.000
  24710002.734                                                            .00010
                          .00051
  24496290.961                    24496290.871    24496288.266     4130081.90902
   4405040.11747        34.000          33.000
  22586560.695                                                            .00010
                          .00051
  21240058.844                    21240054.352                   -19083444.67407
 -17962008.60247        51.000          39.000
 07  3 13  0 38  0.0000000  0 19R03G04R02G22G26G12R21G29G30G14G09G17
                                R10R22G18R17R01R20G05
  23196102.063                    23196104.668    23196099.848    -5702877.10704
  -5059082.02747        38.000          38.000
  25029264.414                                                    -2166477.59700
          .00051        32.000
  22634626.461                    22634625.781    22634622.223    -9918706.77706
  -7732415.60847        43.000          40.000
  24070227.281                    24070221.363                    -9606844.03505
  -7208629.58446        42.000          27.000
  24111116.547                    24111112.309                    -3163127.05206
  -1606854.06246        43.000          26.000
  20962905.992                    20962901.219    20962901.102   -24737454.25007
 -19210239.42647        50.000          42.000
  19628078.188                    19628079.973    19628074.793    -3584570.06504
 -16740150.96947        39.000          41.000
  24733470.820                    24733467.066                    -1745745.46404
   -939582.61645        39.000          18.000
  23297525.742                    23297522.035                    -6591240.50706
  -9128560.16446        45.000          28.000
  24057688.508                    24057683.965                    -8535243.67705
  -5689221.09546        40.000          22.000
  19831548.383                    19831543.520                   -30511752.27407
 -22344439.22347        50.000          42.000
  22930805.477                    22930800.648    22930799.980   -11425700.10607
 -10842887.28147        48.000          34.000
  22530205.453                    22530203.133    22530204.316    -6096413.35106
  -8436298.29247        46.000          42.000
  21738152.648                    21738154.199    21738153.367   -13707994.80306
 -10640044.13547        44.000          43.000
  24335745.469                    24335740.754                    -8741962.07905
  -6347265.68846        40.000          21.000
  24710002.734                                                            .00010
                          .00051
  24518893.930                    24518893.605    24518889.191     4251155.22600
   4499208.24046        32.000          29.000
  22586560.695                                                            .00010
                          .00051
  21227146.320                    21227142.098                   -19151301.04107
 -18014883.67947        52.000          39.000
 07  3 13  0 38 30.0000000  0 19R03G04R02G22G26G12R21G29G30G14G09G17
                                R10R22G18R17R01R20G05
  23191606.500                    23191607.465    23191602.578    -5727008.81604
  -5077851.13947        38.000          37.000
  25014566.523                    25014563.402                    -2243723.19403
  -1419929.20945        36.000          16.000
  22649854.797                    22649854.824    22649851.398    -9837298.42706
  -7669098.03447        43.000          40.000
  24077665.203                    24077660.008                    -9567757.92505
  -7178172.90746        40.000          24.000
  24133403.336                    24133399.184                    -3046009.90106
  -1515593.93046        43.000          25.000
  20953653.992                    20953648.660    20953648.551   -24786074.98807
 -19248125.69247        50.000          42.000
  19623625.477                    19623627.145    19623622.246    -3608431.97204
 -16758710.23247        39.000          40.000
  24754674.188                    24754669.695                    -1634325.44904
   -852761.85445        38.000          18.000
  23278781.570                    23278778.203                    -6689742.88406
  -9205315.22546        43.000          30.000
  24039247.648                    24039242.320                    -8632151.57706
  -5764733.70346        43.000          22.000
  19834441.438                    19834436.176                   -30496548.69007
 -22332592.28047        50.000          42.000
  22943679.922                    22943674.891    22943674.730   -11358043.78207
 -10790168.06547        48.000          34.000
  22547981.719                    22547980.102    22547980.559    -6001288.50306
  -8362312.32947        45.000          42.000
  21714793.688                    21714794.770    21714793.039   -13833260.65406
 -10737473.09747        44.000          42.000
  24350594.148                    24350588.270                    -8663934.62606
  -6286465.06746        43.000          24.000
  24710002.734                                                            .00010
                          .00051
  24541487.297                    24541485.797    24541483.863     4372186.49400
   4593343.67846        29.000          30.000
  22586560.695                                                            .00010
                          .00051
  21214298.023                    21214293.125                   -19218818.68507
 -18067494.81947        51.000          39.000
 07  3 13  0 39  0.0000000  0 17R03R02G22G26G12R21G29G30G14G09G17R10
                                R22G18R17R20G05
  23187250.164                    23187252.301    23187246.355    -5750385.35704
  -5096032.90547        39.000          38.000
  22665186.148                    22665186.410    22665181.922    -9755343.75606
  -7605355.52547        43.000          40.000
  24085189.250                    24085183.316                    -9528220.64005
  -7147364.69346        40.000          25.000
  24155708.313                    24155703.945                    -2928798.84406
  -1424260.65446        43.000          25.000
  20944472.164                    20944466.633    20944466.551   -24834325.79107
 -19285723.71847        50.000          42.000
  19619326.781                    19619328.801    19619323.836    -3631463.05404
 -16776623.28047        39.000          41.000
  24775887.305                    24775881.441                    -1522851.92005
   -765899.36445        40.000          18.000
  23260072.422                    23260069.285                    -6788059.45806
  -9281925.52046        44.000          30.000
  24020858.188                    24020851.387                    -8728794.51106
  -5840039.92746        43.000          22.000
  19837425.219                    19837420.254                   -30480868.56107
 -22320373.99947        51.000          43.000
  22956641.133                    22956635.676    22956635.184   -11289933.61106
 -10737095.20347        47.000          34.000
  22565801.000                    22565799.383    22565800.414    -5905932.84706
  -8288146.80247        47.000          41.000
  21691496.648                    21691497.730    21691496.652   -13958186.64406
 -10834637.75747        43.000          41.000
  24365485.727                    24365480.414                    -8585674.73205
  -6225483.30246        42.000          22.000
  24710002.734                                                            .00010
                          .00051
  22586560.695                                                            .00010
                          .00051
  21201515.281                    21201510.711                   -19285993.80407
 -18119839.05247        51.000          39.000
 07  3 13  0 39 30.0000000  0 18R03G04R02G22G26G12R21G29G30G14G09G17
                                R10R22G18R17R20G05
  23183034.258                    23183035.574    23183030.242    -5773008.81405
  -5113628.93947        40.000          37.000
  24985281.000                    24985276.723                       -5964.77004
  -1505685.89745        38.000          16.000
  22680618.391                    22680617.711    22680614.508    -9672851.59405
  -7541194.96747        42.000          39.000
  24092798.016                    24092791.145                    -9488238.04805
  -7116209.42146        42.000          26.000
  24178029.469                    24178025.230                    -2811500.16006
  -1332859.08446        43.000          25.000
  20935360.047                    20935354.367    20935354.191   -24882210.81707
 -19323036.72247        50.000          42.000
  19615185.859                    19615186.004    19615180.902    -3653666.62704
 -16793892.71447        39.000          41.000
  24797108.273                    24797103.484                    -1411330.53605
   -678999.53545        40.000          18.000
  23241398.367                    23241394.977                    -6886192.67406
  -9358392.90946        44.000          30.000
  24002516.063                    24002511.766                    -8825173.89904
  -5915140.75446        39.000          22.000
  19840499.336                    19840494.258                   -30464715.66007
 -22307787.33647        51.000          43.000
  22969687.102                    22969681.402    22969681.230   -11221375.70306
 -10683673.45647        47.000          33.000
  22583663.398                    22583661.547    22583662.262    -5810351.37306
  -8213805.67447        46.000          42.000
  21668264.172                    21668264.902    21668264.578   -14082774.02306
 -10931539.05747        44.000          42.000
  24380419.383                    24380414.461                    -8507189.25403
  -6164325.66045        36.000          17.000
  24710002.734                                                            .00010
                          .00051
  22586560.695                                                            .00010
                          .00051
  21188796.844                    21188792.340                   -19352829.73507
 -18171918.99747        50.000          39.000
 07  3 13  0 40  0.0000000  0 18R03G04R02G22G26G12R21G29G30G14G09G17
                                R10R22G18R17R20G05
  23178959.891                    23178961.441    23178957.254    -5794873.58205
  -5130634.87447        40.000          38.000
  24970694.234                    24970692.910                      -82607.25901
  -1565407.34645        33.000          17.000
  22696150.711                    22696150.266    22696147.031    -9589820.23605
  -7476615.08847        42.000          39.000
  24100491.414                    24100485.215                    -9447807.02905
  -7084704.77946        41.000          25.000
  24200367.641                    24200363.707                    -2694110.90105
  -1241386.96246        42.000          26.000
  20926318.063                    20926313.301    20926313.059   -24929723.74507
 -19360059.76947        50.000          42.000
  19611196.406                    19611196.902    19611192.594    -3675037.05104
 -16810514.15047        39.000          41.000
  24818340.227                    24818334.902                    -1299758.97205
   -592060.64445        41.000          20.000
  23222761.266                    23222757.113                    -6984136.51006
  -9434712.74046        46.000          31.000
  23984227.836                    23984222.398                    -8921281.24305
  -5990029.57746        42.000          23.000
  19843663.773                    19843658.844                   -30448084.65607
 -22294828.11947        51.000          43.000
  22982818.875                    22982813.418    22982813.340   -11152367.04506
 -10629900.47147        46.000          34.000
  22601567.164                    22601565.547    22601566.785    -5714539.17106
  -8139285.09647        45.000          42.000
  21645095.523                    21645096.605    21645095.738   -14207013.85306
 -11028170.03647        44.000          43.000
  24395399.047                    24395393.754                    -8428476.09503
  -6102990.87845        37.000          18.000
  24710002.734                                                            .00010
                          .00051
  22586560.695                                                            .00010
                          .00051
  21176143.695                    21176139.348                   -19419320.27207
 -18223729.78947        51.000          39.000
 07  3 13  0 40 30.0000000  0 18R03G04R02G22G26G12R21G29G30G14G09G17
                                R10R22G18R17R20G05
  23175026.672                    23175028.574    23175023.246    -5815979.83004
  -5147050.82747        39.000          39.000
  24956150.875                    24956147.652                     -159042.37403
  -1624967.21345        37.000          16.000
  22711783.383                    22711783.176    22711778.641    -9506256.48806
  -7411621.09547        43.000          39.000
  24108269.406                    24108263.063                    -9406931.74805
  -7052853.91146        42.000          24.000
  24222722.586                    24222718.598                    -2576635.68505
  -1149847.87746        41.000          25.000
  20917347.352                    20917341.691    20917341.766   -24976866.72707
 -19396794.55947        50.000          42.000
  19607364.016                    19607365.215    19607360.328    -3695575.14004
 -16826488.20147        38.000          41.000
  24839580.125                    24839574.820                    -1188141.16204
   -505085.72645        39.000          20.000
  23204158.422                    23204154.531                    -7081892.02606
  -9510885.84546        45.000          31.000
  23965991.422                    23965985.176                    -9017116.76306
  -6064706.64746        43.000          22.000
  19846919.297                    19846914.297                   -30430977.72607
 -22281498.05947        51.000          43.000
  22996035.695                    22996030.242    22996030.148   -11082912.24607
 -10575779.84147        48.000          33.000
  22619513.766                    22619513.441    22619514.230    -5618499.62306
  -8064587.66547        45.000          41.000
  21621992.914                    21621992.707    21621992.887   -14330903.06006
 -11124528.27248        44.000          44.000
  24410421.188                    24410415.922                    -8349540.90205
  -6041482.97946        42.000          26.000
  24710002.734                                                            .00010
                          .00051
  22586560.695                                                            .00010
                          .00051
  21163556.313                    21163551.688                   -19485466.98807
 -18275272.66547        50.000          40.000
 07  3 13  0 41  0.0000000  0 19R03G04R02G22G26G12R21G29G30R05G14G09
                                G17R10R22G18R17R20G05
  23171234.289                    23171236.426    23171229.781    -5836329.05404
  -5162878.02847        38.000          37.000
  24941644.641                    24941642.523                     -235268.19202
  -1684363.92845        34.000          15.000
  22727515.516                    22727513.898    22727508.977    -9422164.94905
  -7346216.61247        42.000          38.000
  24116133.070                    24116125.199                    -9365615.55106
  -7020659.47646        44.000          25.000
  24245092.930                    24245088.992                    -2459078.10605
  -1058244.59246        42.000          26.000
  20908446.602                    20908441.461    20908441.504   -25023640.92907
 -19433241.97747        50.000          42.000
  19603686.164                    19603687.480    19603682.578    -3715282.46904
 -16841816.12447        39.000          41.000
  24860828.336                    24860823.629                    -1076480.80904
   -418077.68345        38.000          19.000
  23185591.641                    23185587.996                    -7179458.98806
  -9586911.98446        43.000          29.000
  24655359.008                                                            .00010
                          .00051
  23947806.813                    23947801.496                    -9112678.86605
  -6139170.58846        41.000          25.000
  19850265.461                    19850259.680                   -30413395.49707
 -22267797.61647        51.000          43.000
  23009337.180                    23009331.781    23009331.457   -11013014.86507
 -10521314.35647        48.000          34.000
  22637503.914                    22637503.000    22637504.430    -5522234.67406
  -7989714.95747        45.000          41.000
  21598955.789                    21598956.168    21598956.516   -14454436.93006
 -11220610.14048        43.000          44.000
  24425483.258                    24425478.082                    -8270387.71706
  -5979805.18646        43.000          26.000
  24710002.734                                                            .00010
                          .00051
  22586560.695                                                            .00010
                          .00051
  21151035.094                    21151029.941                   -19551270.25607
 -18326547.92747        50.000          40.000
 07  3 13  0 41 30.0000000  0 19R03G04R02G22G26G12R21G29G30R05G14G09
                                G17R10R22G18R17R20G05
  23167583.063                    23167585.789    23167578.984    -5855918.33704
  -5178114.09847        39.000          37.000
  24927179.688                    24927177.480                     -311280.30803
  -1743594.09945        37.000          15.000
  22743343.328                    22743343.590    22743340.785    -9337550.05005
  -7280405.05847        42.000          39.000
  24124078.750                    24124070.574                    -9323859.01505
  -6988121.92846        42.000          25.000
  24267479.188                    24267475.133                    -2341438.75905
   -966577.57246        42.000          27.000
  20899616.422                    20899611.199    20899611.012   -25070044.47607
 -19469400.57547        51.000          43.000
  19600163.586                    19600164.785    19600160.000    -3734157.32004
 -16856496.54847        39.000          41.000
  24882084.195                    24882079.500                     -964778.83004
   -331037.16045        38.000          18.000
  23167061.266                    23167058.168                    -7276835.22506
  -9662789.54646        44.000          31.000
  24655359.008                                                            .00010
                          .00051
  23929674.844                    23929670.238                    -9207963.11505
  -6213418.04846        40.000          26.000
  19853701.383                    19853696.176                   -30395336.84307
 -22253725.93947        52.000          42.000
  23022721.844                    23022716.969    23022716.383   -10942675.55306
 -10466504.51247        46.000          33.000
  22655535.766                    22655534.031    22655535.445    -5425743.49306
  -7914666.29647        45.000          41.000
  21575984.727                    21575986.395    21575984.766   -14577613.71806
 -11316414.28247        45.000          43.000
  24440586.797                    24440580.629                    -8191018.24005
  -5917958.83846        41.000          22.000
  24710002.734                                                            .00010
                          .00051
  22586560.695                                                            .00010
                          .00051
  21138578.648                    21138573.629                   -19616727.83807
 -18377553.82147        51.000          40.000
 07  3 13  0 42  0.0000000  0 19R03G04R02G22G26G12R21G29G30R05G14G09
                                G17R10R22G18R17R20G05
  23164074.398                    23164076.770    23164070.676    -5874747.16704
  -5192758.73747        39.000          37.000
  24912757.344                    24912754.309                     -387074.88203
  -1802654.84245        37.000          19.000
  22759269.414                    22759269.207    22759267.176    -9252414.68606
  -7214188.69147        43.000          40.000
  24132107.508                    24132101.125                    -9281663.63106
  -6955242.41946        43.000          25.000
  24289880.297                    24289876.074                    -2223719.51006
   -874848.29946        43.000          26.000
  20890856.766                    20890851.379    20890851.043   -25116076.48407
 -19505269.66247        51.000          43.000
  19596798.227                    19596798.020    19596792.715    -3752197.84604
 -16870528.06147        39.000          41.000
  24903347.750                    24903343.355                     -853036.47503
   -243965.16445        37.000          19.000
  23148568.508                    23148565.117                    -7374018.82906
  -9738516.99946        46.000          31.000
  24655359.008                                                            .00010
                          .00051
  23911595.344                    23911590.117                    -9302966.21105
  -6287446.44246        41.000          22.000
  19857228.836                    19857223.887                   -30376800.91907
 -22239282.36347        51.000          42.000
  23036190.359                    23036185.668    23036185.809   -10871896.00506
 -10411351.62947        46.000          33.000
  22673609.797                    22673608.883    22673608.852    -5329026.36306
  -7839441.85647        45.000          42.000
  21553082.680                    21553084.582    21553082.508   -14700425.91006
 -11411934.88147        45.000          43.000
  24455727.906                    24455724.367                    -8111434.51302
  -5855945.50945        35.000          16.000
  24710002.734                                                            .00010
                          .00051
  22586560.695                                                            .00010
                          .00051
  21126188.305                    21126183.906                   -19681838.39207
 -18428289.31447        50.000          39.000
 07  3 13  0 42 30.0000000  0 19R03G04R02G22G26G12R21G29G30R05G14G09
                                G17R10R22G18R17R20G05
  23160708.727                    23160708.281    23160705.738    -5892815.62303
  -5206812.00747        37.000          38.000
  24898376.664                    24898372.930                     -462650.09605
  -1861544.56146        41.000          21.000
  22775292.945                    22775292.855    22775288.531    -9166764.10905
  -7147571.60347        42.000          38.000
  24140220.516                    24140214.059                    -9239032.71706
  -6922023.59546        43.000          28.000
  24312296.039                    24312291.578                    -2105924.20305
   -783059.76146        42.000          24.000
  20882167.719                    20882161.898    20882161.938   -25161738.38407
 -19540850.36747        51.000          42.000
  19593585.656                    19593587.559    19593582.715    -3769403.76604
 -16883910.42947        39.000          41.000
  24924618.625                    24924614.875                     -741257.32304
   -156864.56445        38.000          20.000
  23130111.492                    23130107.617                    -7471009.98506
  -9814094.47646        46.000          31.000
  24655359.008                                                            .00010
                          .00051
  23893570.664                    23893565.363                    -9397686.81605
  -6361254.73246        42.000          22.000
  19860846.555                    19860841.496                   -30357789.42607
 -22224468.22647        51.000          43.000
  23049742.984                    23049738.141    23049737.465   -10800679.92006
 -10355858.57547        46.000          32.000
  22691724.969                    22691724.406    22691725.102    -5232085.48106
  -7764043.41447        45.000          42.000
  21530248.234                    21530249.199    21530248.137   -14822874.56106
 -11507172.72147        44.000          43.000
  24470913.672                    24470909.203                    -8031641.57603
  -5793769.23245        36.000          19.000
  24710002.734                                                            .00010
                          .00051
  22586560.695                                                            .00010
                          .00051
  21113864.555                    21113859.430                   -19746602.68907
 -18478754.99547        50.000          39.000
 07  3 13  0 43  0.0000000  0 19R03G04R02G22G26G12R21G29G30R05G14G09
                                G17R10R22G18R17R20G05
  23157481.578                    23157484.184    23157477.570    -5910123.91904
  -5220274.00347        38.000          37.000
  24884037.094                    24884032.758                     -538003.48905
  -1920261.55546        40.000          21.000
  22791410.414                    22791410.676    22791406.328    -9080603.73106
  -7080558.00647        43.000          38.000
  24148415.109                    24148408.797                    -9195969.17605
  -6888467.61546        42.000          28.000
  24334725.391                    24334720.996                    -1988055.70705
   -691214.16546        42.000          24.000
  20873549.117                    20873543.473    20873543.309   -25207030.24307
 -19576142.71747        51.000          43.000
  19590531.078                    19590530.988    19590526.578    -3785778.84404
 -16896646.57847        39.000          40.000
  24945896.891                    24945892.000                     -629444.39004
    -69737.64346        38.000          21.000
  23111690.883                    23111687.672                    -7567808.17806
  -9889521.61746        45.000          30.000
  24655359.008                                                            .00010
                          .00051
  23875600.250                    23875594.332                    -9492122.95906
  -6434841.31946        44.000          23.000
  19864554.750                    19864549.598                   -30338302.87707
 -22209283.89747        51.000          42.000
  23063377.625                    23063372.395    23063371.711   -10729030.42306
 -10300027.79047        46.000          33.000
  22709882.609                    22709881.344    22709882.730    -5134922.35706
  -7688472.14447        46.000          42.000
  21507482.500                    21507483.934    21507482.441   -14944955.27206
 -11602124.36748        44.000          44.000
  24486138.766                    24486132.582                    -7951643.14205
  -5731432.80346        42.000          22.000
  24710002.734                                                            .00010
                          .00051
  22586560.695                                                            .00010
                          .00051
  21101605.492                    21101600.695                   -19811020.58307
 -18528950.74347        51.000          39.000
 07  3 13  0 43 30.0000000  0 19R03G04R02G22G26G12R21G29G30R05G14G09
                                G17R10R22G18R17R20G05
  23154400.547                    23154401.160    23154395.375    -5926671.05404
  -5233143.99647        39.000          38.000
  24869741.070                    24869736.125                     -613131.04104
  -1978802.50345        39.000          20.000
  22807622.742                    22807623.590    22807619.852    -8993936.56006
  -7013150.26847        43.000          39.000
  24156692.102                    24156686.164                    -9152474.14905
  -6854575.40546        42.000          29.000
  24357168.281                    24357164.102                    -1870115.25605
   -599312.52446        41.000          24.000
  20865000.938                    20864995.164    20864995.191   -25251950.99007
 -19611145.88847        51.000          43.000
  19587629.789                    19587632.160    19587626.719    -3801318.51704
 -16908732.98447        39.000          40.000
  24967179.781                    24967175.184                     -517598.95804
     17414.65145        38.000          18.000
  23093308.359                    23093304.961                    -7664411.43506
  -9964796.84246        45.000          31.000
  24655359.008                                                            .00010
                          .00051
  23857685.039                    23857679.598                    -9586270.73206
  -6508203.21646        45.000          26.000
  19868353.320                    19868348.703                   -30318340.08407
 -22193728.46947        51.000          42.000
  23077094.055                    23077088.793    23077088.066   -10656948.76806
 -10243860.27747        46.000          33.000
  22728081.586                    22728080.438    22728080.949    -5037536.84306
  -7612727.84247        45.000          41.000
  21484787.094                    21484788.059    21484787.219   -15066659.85806
 -11696783.46348        45.000          44.000
  24501399.352                    24501395.020                    -7871441.22905
  -5668937.81046        40.000          22.000
  24710002.734                                                            .00010
                          .00051
  22586560.695                                                            .00010
                          .00051
  21089413.828                    21089409.133                   -19875090.24007
 -18578875.13647        51.000          39.000
 07  3 13  0 44  0.0000000  0 19R03G04R02G22G26G12R21G29G30R05G14G09
                                G17R10R22G18R17R20G05
  23151457.383                    23151458.816    23151455.719    -5942456.39504
  -5245421.49947        39.000          40.000
  24855487.227                    24855484.660                     -688029.68204
  -2037165.05745        39.000          20.000
  22823931.000                    22823930.320    22823927.031    -8906767.15706
  -6945351.87247        43.000          39.000
  24165050.758                    24165044.688                    -9108549.72006
  -6820348.60346        43.000          28.000
  24379625.078                    24379621.242                    -1752105.34005
   -507356.75446        40.000          22.000
  20856523.055                    20856517.809    20856517.930   -25296500.68007
 -19645859.93247        51.000          42.000
  19584886.492                    19584887.574    19584883.043    -3816023.69804
 -16920170.33847        39.000          41.000
  24988469.148                    24988463.785                     -405723.05604
    104590.72945        38.000          18.000
  23074962.344                    23074959.254                    -7760818.94306
 -10039919.53746        44.000          31.000
  24655359.008                                                            .00010
                          .00051
  23839824.805                    23839818.762                    -9680127.53306
  -6581338.41146        43.000          24.000
  19872242.656                    19872237.320                   -30297900.90807
 -22177801.84247        51.000          42.000
  23090892.523                    23090887.008    23090887.105   -10584437.47306
 -10187357.96847        46.000          33.000
  22746321.945                    22746319.859    22746320.750    -4939929.71806
  -7536811.20547        44.000          40.000
  21462161.914                    21462162.996    21462161.738   -15187986.83006
 -11791148.86448        44.000          44.000
  24516698.156                    24516695.879                    -7791038.73403
  -5606286.54745        37.000          19.000
  24710002.734                                                            .00010
                          .00051
  22586560.695                                                            .00010
                          .00051
  21077288.305                    21077283.500                   -19938811.02307
 -18628527.69147        51.000          40.000
 07  3 13  0 44 30.0000000  0 19R03G04R02G22G26G12R21G29G30R05G14G09
                                G17R10R22G18R17R20G05
  23148657.898                    23148659.332    23148655.496    -5957478.93104
  -5257105.68947        39.000          40.000
  24841278.953                    24841276.281                     -762695.38304
  -2095346.11645        38.000          19.000
  22840331.039                    22840330.477    22840327.547    -8819099.68706
  -6877166.06247        43.000          39.000
  24173491.023                    24173484.598                    -9064197.04206
  -6785788.13046        45.000          28.000
  24402094.711                    24402090.559                    -1634027.35505
   -415347.93846        40.000          22.000
  20848116.227                    20848110.898    20848111.082   -25340678.14407
 -19680283.91747        50.000          43.000
  19582298.836                    19582299.332    19582294.309    -3829893.43504
 -16930957.89947        39.000          41.000
  25009763.820                    25009759.504                     -293818.02104
    191789.42945        39.000          17.000
  23056654.773                    23056650.918                    -7857027.96406
 -10114887.58346        44.000          30.000
  24655359.008                                                            .00010
                          .00051
  23822019.938                    23822014.840                    -9773689.83106
  -6654244.05546        43.000          24.000
  19876223.047                    19876218.383                   -30276984.51107
 -22161503.35247        50.000          42.000
  23104772.172                    23104767.125    23104766.488   -10511497.77606
 -10130521.82347        45.000          34.000
  22764603.211                    22764602.648    22764603.391    -4842100.80406
  -7460722.07247        45.000          41.000
  21439608.508                    21439608.652    21439607.680   -15308930.25006
 -11885215.96547        44.000          43.000
  24532038.242                    24532033.504                    -7710437.72905
  -5543480.67645        40.000          19.000
  24710002.734                                                            .00010
                          .00051
  22586560.695                                                            .00010
                          .00051
  21065229.016                    21065224.484                   -20002181.49007
 -18677907.26247        51.000          40.000
 07  3 13  0 45  0.0000000  0 19R03G04R02G22G26G12R21G29G30R05G14G09
                                G17R10R22G18R17R20G05
  23146001.148                    23146001.762    23145995.723    -5971739.79205
  -5268197.42147        40.000          37.000
  24827115.945                    24827111.957                     -837126.97404
  -2153344.74245        38.000          18.000
  22856822.453                    22856822.129    22856820.004    -8730939.56205
  -6808597.10747        41.000          39.000
  24182011.531                    24182004.785                    -9019420.48406
  -6750897.31446        44.000          27.000
  24424576.875                    24424572.875                    -1515885.50605
   -323289.39346        40.000          24.000
  20839780.328                    20839775.070    20839774.996   -25384485.12207
 -19714419.21247        51.000          42.000
  19579865.352                    19579867.020    19579862.230    -3842929.35604
 -16941096.94447        39.000          40.000
  25031062.969                    25031059.527                     -181888.28104
    279007.43145        38.000          19.000
  23038383.914                    23038380.063                    -7953039.94506
 -10189702.08446        45.000          30.000
  24655359.008                                                            .00010
                          .00051
  23804272.547                    23804266.410                    -9866957.04306
  -6726919.79846        43.000          22.000
  19880294.070                    19880288.711                   -30255592.87007
 -22144834.55247        50.000          42.000
  23118732.883                    23118727.945    23118727.332   -10438134.00406
 -10073355.25047        46.000          32.000
  22782926.141                    22782924.641    22782926.199    -4744053.13906
  -7384462.78547        45.000          41.000
  21417126.539                    21417127.738    21417126.516   -15429488.18206
 -11978983.23748        45.000          44.000
  24547413.070                    24547406.484                    -7629643.71806
  -5480524.19645        43.000          19.000
  24710002.734                                                            .00010
                          .00051
  22586560.695                                                            .00010
                          .00051
  21053236.406                    21053231.797                   -20065202.61207
 -18727014.62347        51.000          40.000
 07  3 13  0 45 30.0000000  0 19R03G04R02G22G26G12R21G29G30R05G14G09
                                G17R10R22G18R17R20G05
  23143483.789                    23143486.043    23143478.984    -5985237.09204
  -5278695.29447        39.000          36.000
  24812996.523                    24812993.703                     -911320.67804
  -2211157.92845        38.000          18.000
  22873407.453                    22873406.188    22873402.539    -8642290.38205
  -6739647.80947        41.000          38.000
  24190612.945                    24190605.266                    -8974221.36706
  -6715677.24146        43.000          27.000
  24447070.070                    24447066.570                    -1397681.39905
   -231182.31346        42.000          24.000
  20831514.734                    20831509.656    20831509.477   -25427920.33107
 -19748264.82147        51.000          43.000
  19577588.781                    19577590.215    19577585.406    -3855129.77304
 -16950586.14947        39.000          41.000
  25052367.438                    25052363.664                      -69935.29104
    366243.49545        39.000          18.000
  23020151.352                    23020147.031                    -8048852.57806
 -10264361.26946        45.000          30.000
  24655359.008                                                            .00010
                          .00051
  23786581.305                    23786575.770                    -9959925.18806
  -6799362.53846        45.000          26.000
  19884454.891                    19884450.109                   -30233725.05807
 -22127794.70947        50.000          42.000
  23132774.141                    23132768.563    23132768.199   -10364347.55606
 -10015859.32247        46.000          33.000
  22801289.609                    22801288.109    22801289.402    -4645786.68206
  -7308033.33147        45.000          41.000
  21394716.992                    21394717.254    21394716.875   -15549659.74806
 -12072449.99448        45.000          44.000
  24562824.102                    24562819.211                    -7548658.32105
  -5417418.67446        42.000          25.000
  24710002.734                                                            .00010
                          .00051
  22586560.695                                                            .00010
                          .00051
  21041311.000                    21041305.875                   -20127873.09007
 -18775848.76247        51.000          40.000
 07  3 13  0 46  0.0000000  0 19R03G04R02G22G26G12R21G29G30R05G14G09
                                G17R10R22G18R17R20G05
  23141111.789                    23141114.867    23141109.578    -5997970.63305
  -5288599.19947        40.000          38.000
  24798925.367                    24798920.688                     -985272.73305
  -2268782.99346        40.000          21.000
  22890080.203                    22890079.406    22890076.957    -8553156.86405
  -6670321.76347        41.000          39.000
  24199293.727                    24199286.594                    -8928601.27406
  -6680129.13746        44.000          27.000
  24469574.922                    24469571.883                    -1279417.02205
   -139028.26546        42.000          22.000
  20823320.094                    20823314.719    20823314.898   -25470983.30507
 -19781820.37547        50.000          43.000
  19575468.547                    19575469.629    19575463.852    -3866494.59804
 -16959425.45547        39.000          40.000
  25073675.383                    25073672.008                       42039.66404
    453496.67245        39.000          17.000
  23001956.781                    23001953.008                    -8144464.74206
 -10338864.20846        43.000          30.000
  24655359.008                                                            .00010
                          .00051
  23768947.789                    23768942.383                   -10052591.29306
  -6871569.93546        43.000          29.000
  19888706.922                    19888702.258                   -30211381.19807
 -22110383.93647        50.000          42.000
  23146895.359                    23146889.590    23146889.395   -10290140.80806
  -9958035.89547        44.000          32.000
  22819693.234                    22819692.672    22819693.102    -4547301.93406
  -7231434.07547        44.000          40.000
  21372380.031                    21372380.762    21372380.449   -15669438.90206
 -12165611.53248        45.000          45.000
  24578269.438                    24578266.605                    -7467484.84203
  -5354166.70845        37.000          20.000
  24710002.734                                                            .00010
                          .00051
  22586560.695                                                            .00010
                          .00051
  21029451.969                    21029447.137                   -20190191.77107
 -18824408.76547        51.000          40.000
 07  3 13  0 46 30.0000000  0 19R03G04R02G22G26G12R21G29G30R05G14G09
                                G17R10R22G18R17R20G05
  23138882.445                    23138884.699    23138878.789    -6009940.03905
  -5297908.77647        40.000          37.000
  24784899.109                    24784894.902                    -1058979.50505
  -2326216.83646        41.000          21.000
  22906844.664                    22906844.219    22906841.504    -8463541.19805
  -6600620.72147        41.000          39.000
  24208054.266                    24208048.094                    -8882561.84306
  -6644254.29146        43.000          25.000
  24492090.438                    24492087.012                    -1161093.88906
    -46828.43246        43.000          23.000
  20815196.289                    20815190.828    20815190.781   -25513673.32507
 -19815085.32447        51.000          43.000
  19573503.805                    19573505.121    19573500.258    -3877021.99704
 -16967613.41547        39.000          40.000
  25094988.148                    25094983.594                      154034.99204
    540765.79845        39.000          17.000
  22983800.953                    22983796.957                    -8239874.80606
 -10413209.68346        43.000          31.000
  24655359.008                                                            .00010
                          .00051
  23751371.039                    23751366.012                   -10144952.36205
  -6943539.56646        41.000          24.000
  19893049.961                    19893044.840                   -30188559.74707
 -22092600.97747        50.000          42.000
  23161095.922                    23161090.230    23161090.316   -10215515.47106
  -9899886.27647        45.000          33.000
  22838138.586                    22838137.438    22838139.102    -4448598.98406
  -7154665.12447        44.000          40.000
  21350117.391                    21350118.473    21350117.965   -15788819.57106
 -12258463.14648        45.000          45.000
  24593751.867                    24593748.270                    -7386125.86904
  -5290770.19145        39.000          19.000
  24710002.734                                                            .00010
                          .00051
  22586560.695                                                            .00010
                          .00051
  21017660.102                    21017655.301                   -20252157.21607
 -18872693.51547        51.000          40.000
 07  3 13  0 47  0.0000000  0 19R03G04R02G22G26G12R21G29G30R05G14G09
                                G17R10R22G18R17R20G05
  23136792.695                    23136794.363    23136787.996    -6021146.09304
  -5306624.56947        39.000          36.000
  24770919.008                    24770916.383                    -1132440.25304
  -2383458.96846        38.000          21.000
  22923698.039                    22923697.715    22923695.441    -8373451.59205
  -6530551.07447        41.000          39.000
  24216895.273                    24216887.766                    -8836107.64606
  -6608056.25446        45.000          27.000
  24514617.398                    24514613.598                    -1042716.74805
     45413.49446        42.000          22.000
  20807143.469                    20807138.055    20807137.805   -25555992.77307
 -19848061.51547        50.000          43.000
  19571694.773                    19571696.090    19571690.660    -3886716.01904
 -16975153.19947        39.000          41.000
  25116302.422                    25116298.363                      266046.16504
    628047.26845        39.000          19.000
  22965683.883                    22965678.914                    -8335083.46006
 -10487398.19846        45.000          31.000
  24655359.008                                                            .00010
                          .00051
  23733852.984                    23733848.777                   -10237007.66406
  -7015270.90946        43.000          25.000
  19897482.813                    19897477.805                   -30165263.97907
 -22074448.42847        50.000          42.000
  23175375.867                    23175370.328    23175369.988   -10140476.00506
  -9841413.97047        46.000          34.000
  22856624.406                    22856623.141    22856623.645    -4349681.00006
  -7077728.94547        44.000          39.000
  21327929.672                    21327930.637    21327929.613   -15907801.42806
 -12351004.56648        44.000          44.000
  24609268.703                    24609264.855                    -7304586.82805
  -5227233.24046        41.000          21.000
  24710002.734                                                            .00010
                          .00051
  22586560.695                                                            .00010
                          .00051
  21005935.648                    21005930.676                   -20313771.17907
 -18920704.38947        51.000          40.000
 07  3 13  0 47 30.0000000  0 19R03G04R02G22G26G12R21G29G30R05G14G09
                                G17R10R22G18R17R20G05
  23134848.734                    23134849.465    23134843.621    -6031587.63804
  -5314745.77147        39.000          37.000
  24756987.305                    24756984.305                    -1205649.94805
  -2440505.44645        40.000          20.000
  22940639.195                    22940639.457    22940635.656    -8282888.85405
  -6460113.45447        41.000          38.000
  24225813.719                    24225806.855                    -8789238.50806
  -6571534.85246        44.000          29.000
  24537154.016                    24537150.887                     -924285.71005
    137697.39146        41.000          22.000
  20799161.156                    20799156.320    20799156.172   -25597939.12507
 -19880746.96347        50.000          42.000
  19570041.672                    19570041.934    19570037.188    -3895575.36104
 -16982043.78847        39.000          40.000
  25137620.172                    25137616.094                      378072.35204
    715340.39945        38.000          18.000
  22947604.969                    22947600.199                    -8430087.67306
 -10561427.44146        45.000          30.000
  24655359.008                                                            .00010
                          .00051
  23716395.406                    23716389.516                   -10328752.38606
  -7086760.28546        44.000          25.000
  19902006.484                    19902002.363                   -30141491.26307
 -22055924.23347        51.000          42.000
  23189733.773                    23189728.902    23189728.559   -10065022.94706
  -9782619.36247        45.000          34.000
  22875148.844                    22875148.281    22875149.145    -4250546.97906
  -7000624.67347        44.000          40.000
  21305817.328                    21305818.996    21305817.602   -16026375.59106
 -12443228.92947        44.000          43.000
  24624819.219                    24624814.449                    -7222868.44905
  -5163556.58146        40.000          21.000
  24710002.734                                                            .00010
                          .00051
  22586560.695                                                            .00010
                          .00051
  20994278.477                    20994273.402                   -20375030.85107
 -18968439.18447        51.000          40.000
 07  3 13  0 48  0.0000000  0 19R03G04R02G22G26G12R21G29G30R05G14G09
                                G17R10R22G18R17R20G05
  23133045.578                    23133046.895    23133042.344    -6041265.29205
  -5322272.87147        40.000          39.000
  24743105.445                    24743101.664                    -1278605.88504
  -2497354.29845        39.000          19.000
  22957668.609                    22957668.402    22957664.723    -8191860.01005
  -6389313.26747        42.000          37.000
  24234810.930                    24234803.695                    -8741957.96105
  -6534692.89946        42.000          26.000
  24559701.133                    24559696.801                     -805803.98805
    230020.81946        41.000          22.000
  20791249.656                    20791244.363    20791244.500   -25639513.29807
 -19913142.41847        50.000          42.000
  19568544.375                    19568545.926    19568540.688    -3903596.42704
 -16988282.38247        39.000          41.000
  25158940.445                    25158936.891                      490111.27304
    802643.46145        39.000          19.000
  22929564.500                    22929560.316                    -8524887.32806
 -10635297.26646        45.000          30.000
  24655359.008                                                            .00010
                          .00051
  23698996.922                    23698990.191                   -10420184.40106
  -7158006.07146        43.000          26.000
  19906620.773                    19906616.305                   -30117242.52707
 -22037029.11947        50.000          42.000
  23204169.648                    23204165.086    23204164.480    -9989159.17006
  -9723504.73847        45.000          32.000
  22893715.359                    22893713.742    22893714.961    -4151198.28506
  -6923353.45547        44.000          40.000
  21283781.578                    21283782.074    21283781.477   -16144542.90206
 -12535136.79448        45.000          44.000
  24640402.852                    24640398.715                    -7140974.34403
  -5099743.01545        37.000          19.000
  24710002.734                                                            .00010
                          .00051
  22586560.695                                                            .00010
                          .00051
  20982688.055                    20982683.504                   -20435936.35107
 -19015897.99847        51.000          40.000
 07  3 13  0 48 30.0000000  0 19R03G04R02G22G26G12R21G29G30R05G14G09
                                G17R10R22G18R17R20G05
  23131383.438                    23131385.926    23131380.691       79613.58705
  -5327626.32447        40.000          37.000
  24729271.172                    24729267.949                    -1351305.43104
  -2554003.27346        39.000          21.000
  22974784.422                    22974783.625    22974780.473    -8100368.81405
  -6318153.50247        41.000          38.000
  24243886.039                    24243879.008                    -8694268.42506
  -6497532.26046        44.000          28.000
  24582256.227                    24582252.402                     -687273.95304
    322381.86446        39.000          22.000
  20783409.164                    20783404.086    20783404.070   -25680714.79107
 -19945247.48447        51.000          42.000
  19567203.352                    19567203.848    19567199.625    -3910782.45404
 -16993871.50547        39.000          41.000
  25180262.992                    25180258.957                      602160.28504
    889954.38445        38.000          19.000
  22911564.484                    22911559.633                    -8619481.31906
 -10709006.85746        46.000          31.000
  24655359.008                                                            .00010
                          .00051
  23681657.391                    23681651.430                   -10511301.54006
  -7229006.47546        43.000          27.000
  19911325.594                    19911320.629                   -30092518.33407
 -22017763.52647        50.000          42.000
  23218684.242                    23218678.992    23218678.754    -9912887.56806
  -9664072.32647        45.000          33.000
  22912321.023                    22912318.820    22912320.973    -4051636.17706
  -6845916.28847        43.000          41.000
  21261823.156                    21261824.004    21261823.348   -16262296.12806
 -12626722.63648        45.000          44.000
  24656020.289                    24656015.871                    -7058908.23404
  -5035795.37645        38.000          20.000
  24710002.734                                                            .00010
                          .00051
  22586560.695                                                            .00010
                          .00051
  20971166.078                    20971161.184                   -20496487.15207
 -19063080.43847        52.000          40.000
 07  3 13  0 49  0.0000000  0 19R03G04R02G22G26G12R21G29G30R05G14G09
                                G17R10R22G18R17R20G05
  23114051.070                                                            .00014
                          .00051
  24715486.414                    24715482.246                    -1423744.80605
  -2610449.53045        40.000          19.000
  22991985.656                    22991985.211    22991982.277    -8008418.74105
  -6246636.79947        41.000          38.000
  24253038.281                    24253031.625                    -8646171.40906
  -6460054.09746        44.000          26.000
  24604819.852                    24604816.453                     -568697.45004
    414779.11946        39.000          21.000
  20775640.172                    20775634.668    20775634.539   -25721543.08007
 -19977061.71847        51.000          42.000
  19566019.070                    19566020.270    19566015.484    -3917131.19004
 -16998809.40747        39.000          41.000
  25201587.125                    25201582.668                      714217.99904
    977272.10045        38.000          19.000
  22893603.320                    22893599.215                    -8713868.47006
 -10782555.25446        47.000          31.000
  24655359.008                                                            .00010
                          .00051
  23664379.453                    23664373.586                   -10602100.14506
  -7299758.59846        44.000          26.000
  19916121.500                    19916115.852                   -30067317.77107
 -21998126.72647        50.000          42.000
  23233274.930                    23233269.875    23233269.770    -9836209.85006
  -9604323.45347        46.000          32.000
  22930966.297                    22930963.625    22930964.582    -3951860.86606
  -6768313.26447        44.000          40.000
  21239942.578                    21239942.957    21239942.031   -16379631.33606
 -12717983.32248        45.000          44.000
  24671668.695                    24671665.660                    -6976672.34002
  -4971715.61345        34.000          20.000
  24710002.734                                                            .00010
                          .00051
  22586560.695                                                            .00010
                          .00051
  20959710.867                    20959705.773                   -20556682.02307
 -19109985.52347        51.000          40.000
 07  3 13  0 49 30.0000000  0 19R03G04R02G22G26G12R21G29G30R05G14G09
                                G17R10R22G18R17R20G05
  23128488.641                    23128489.137    23128484.859       64079.90504
  -5338277.56147        38.000          38.000
  24701751.188                    24701747.230                    -1495921.58304
  -2666691.20645        39.000          20.000
  23009272.125                    23009271.445    23009268.270    -7916014.59305
  -6174766.92447        42.000          37.000
  24262268.031                    24262261.418                    -8597669.58006
  -6422260.47146        44.000          27.000
  24627393.563                    24627389.148                     -450077.05704
    507210.59546        39.000          22.000
  20767942.094                    20767936.422    20767936.555   -25761998.56207
 -20008585.47647        51.000          42.000
  19564989.352                    19564990.199    19564985.480    -3922645.78504
 -17003098.52647        39.000          40.000
  25222911.516                    25222908.164                      826282.18203
   1064594.80445        37.000          19.000
  22875681.008                    22875677.051                    -8808047.82906
 -10855941.73747        47.000          32.000
  24655359.008                                                            .00010
                          .00051
  23647161.523                    23647156.102                   -10692578.41005
  -7370261.14146        42.000          27.000
  19921007.516                    19921002.484                   -30041641.25407
 -21978119.05747        50.000          42.000
  23247943.078                    23247938.094    23247938.336    -9759128.86206
  -9544260.33947        46.000          33.000
  22949651.016                    22949649.633    22949650.297    -3851873.89006
  -6690545.59147        43.000          40.000
  21218139.375                    21218140.340    21218139.496   -16496546.24606
 -12808917.14048        45.000          44.000
  24687350.141                    24687345.723                    -6894270.47305
  -4907506.46046        41.000          25.000
  24710002.734                                                            .00010
                          .00051
  22586560.695                                                            .00010
                          .00051
  20948323.969                    20948319.313                   -20616520.81607
 -19156613.14947        51.000          40.000
 07  3 13  0 50  0.0000000  0 19R03G04R02G22G26G12R21G29G30R05G14G09
                                G17R10R22G18R17R20G05
  23127254.992                    23127256.074    23127253.148       57461.17103
  -5343425.44247        37.000          39.000
  24688067.117                    24688063.109                    -1567832.28005
  -2722725.50845        41.000          20.000
  23026642.305                    23026640.922    23026638.871    -7823161.68505
  -6102548.06347        40.000          38.000
  24271573.828                    24271568.309                    -8548765.11205
  -6384153.11646        42.000          26.000
  24649974.313                    24649969.785                     -331415.03204
    599674.52846        39.000          22.000
  20760314.477                    20760308.945    20760308.895   -25802081.27107
 -20039818.76047        50.000          43.000
  19564115.750                    19564118.121    19564112.641    -3927324.56204
 -17006737.56447        39.000          41.000
  25244237.727                    25244233.895                      938350.01903
   1151920.38145        37.000          19.000
  22857799.227                    22857794.813                    -8902017.95806
 -10929165.19946        46.000          31.000
  24655359.008                                                            .00010
                          .00051
  23630005.930                    23630001.406                   -10782732.88305
  -7440511.35746        42.000          29.000
  19925983.727                    19925979.047                   -30015489.35607
 -21957740.96347        50.000          42.000
  23262687.391                    23262682.285    23262682.277    -9681646.97306
  -9483884.83246        43.000          31.000
  22968375.703                    22968374.438    22968375.559    -3751675.72006
  -6612613.70647        43.000          40.000
  21196416.375                    21196418.043    21196416.461   -16613036.52106
 -12899520.67248        46.000          44.000
  24703061.852                    24703057.070                    -6811705.04105
  -4843169.73446        41.000          21.000
  24710002.734                                                            .00010
                          .00051
  22586560.695                                                            .00010
                          .00051
  20937005.164                    20937000.563                   -20676002.57607
 -19202962.56847        50.000          40.000
 07  3 13  0 50 30.0000000  0 19R03G04R02G22G26G12R21G29G30R05G14G09
                                G17R10R22G18R17R20G05
  23126163.250                    23126165.504    23126161.793       51607.51903
  -5347978.31747        37.000          38.000
  24674433.938                    24674430.266                    -1639474.15005
  -2778550.29846        41.000          21.000
  23044095.508                    23044095.184    23044091.824    -7729864.81005
  -6029983.88647        41.000          38.000
  24280956.500                    24280950.082                    -8499460.37406
  -6345733.84746        43.000          26.000
  24672561.578                    24672557.711                     -212713.95404
    692168.84346        38.000          21.000
  20752757.734                    20752752.836    20752752.551   -25841791.11907
 -20070761.48547        51.000          43.000
  19563400.008                    19563400.855    19563395.563    -3931168.62904
 -17009727.39347        39.000          40.000
  25265562.938                    25265560.020                     1050419.40503
   1239247.21145        37.000          18.000
  22839957.008                    22839952.926                    -8995778.43406
 -11002225.25046        46.000          30.000
  24655359.008                                                            .00010
                          .00051
  23612912.523                    23612906.070                   -10872561.41006
  -7510507.62046        43.000          28.000
  19931050.875                    19931045.848                   -29988862.30107
 -21936992.61147        51.000          43.000
  23277507.492                    23277502.969    23277502.680    -9603766.96206
  -9423199.12246        44.000          31.000
  22987139.211                    22987138.063    22987139.215    -3651267.76206
  -6534518.63447        43.000          41.000
  21174773.070                    21174773.684    21174772.242   -16729098.76306
 -12989791.29948        46.000          44.000
  24718800.367                                                    -6728980.28300
          .00051        31.000
  24710002.734                                                            .00010
                          .00051
  22586560.695                                                            .00010
                          .00051
  20925754.211                    20925749.738                   -20735127.08407
 -19249033.60147        51.000          40.000
 07  3 13  0 51  0.0000000  0 19R03G04R02G22G26G12R21G29G30R05G14G09
                                G17R10R22G18R17R20G05
  23125216.047                    23125216.074    23125210.820       46517.34603
  -5351937.32647        36.000          35.000
  24660852.945                    24660849.137                    -1710843.57705
  -2834162.90546        40.000          22.000
  23061630.008                    23061629.211    23061625.832    -7636127.68405
  -5957077.24247        40.000          37.000
  24290413.813                    24290408.266                    -8449757.65906
  -6307004.49646        43.000          24.000
  24695156.922                    24695152.828                      -93975.69904
    784692.15346        39.000          21.000
  20745272.227                    20745266.961    20745266.809   -25881127.42607
 -20101413.14447        51.000          43.000
  19562837.023                    19562838.105    19562833.441    -3934178.65405
 -17012068.51047        40.000          41.000
  25286890.523                    25286885.102                     1162488.70503
   1326573.92445        37.000          16.000
  22822155.617                    22822151.031                    -9089327.82406
 -11075120.87347        47.000          32.000
  24655359.008                                                            .00010
                          .00051
  23595880.484                    23595875.215                   -10962060.94506
  -7580247.51646        44.000          27.000
  19936208.234                    19936203.273                   -29961759.44507
 -21915873.51447        50.000          43.000
  23292403.055                    23292398.293    23292397.520    -9525490.36506
  -9362204.37847        44.000          32.000
  23005941.367                    23005940.102    23005940.742    -3550650.29206
  -6456260.61647        43.000          40.000
  21153210.344                    21153210.723    21153209.875   -16844726.63006
 -13079724.07648        46.000          44.000
  24734574.570                    24734569.035                    -6646098.42404
  -4769983.58445        38.000          20.000
  24710002.734                                                            .00010
                          .00051
  22586560.695                                                            .00010
                          .00051
  20914571.289                    20914566.758                   -20793893.29207
 -19294825.44347        51.000          40.000
 07  3 13  0 51 30.0000000  0 19R03G04R02G22G26G12R21G29G30R05G14G09
                                G17R10R22G18R17R20G05
  23124411.391                    23124411.652    23124403.969       42191.74904
  -5355301.64947        38.000          36.000
  24647324.188                    24647319.590                    -1781938.52305
  -2889561.55646        40.000          21.000
  23079246.984                    23079246.539    23079244.133    -7541954.80805
  -5883831.72547        40.000          38.000
  24299947.891                    24299941.742                    -8399659.94506
  -6267967.38046        43.000          25.000
  24717758.211                    24717754.824                       24796.80304
    877242.13546        39.000          22.000
  20737857.602                    20737852.234    20737852.082   -25920091.09607
 -20131774.44047        51.000          43.000
  19562430.938                    19562432.840    19562427.949    -3936354.68204
 -17013760.97847        39.000          42.000
  25308215.125                    25308210.125                     1274554.01603
   1413897.56745        37.000          19.000
  22804393.523                    22804389.527                    -9182665.26906
 -11147851.33246        46.000          31.000
  24655359.008                                                            .00010
                          .00051
  23578912.633                    23578906.824                   -11051229.41405
  -7649729.43546        42.000          26.000
  19941456.141                    19941451.668                   -29934181.79307
 -21894384.43747        49.000          43.000
  23307373.391                    23307368.871    23307368.309    -9446820.77306
  -9300903.39547        43.000          32.000
  23024784.266                    23024782.180    23024783.227    -3449824.89706
  -6377840.89347        44.000          40.000
  21131729.391                    21131730.121    21131729.246   -16959918.79606
 -13169317.96048        45.000          44.000
  24750375.445                    24750371.121                    -6563062.89004
  -4705280.59346        39.000          22.000
  24710002.734                                                            .00010
                          .00051
  22586560.695                                                            .00010
                          .00051
  20903456.594                    20903451.863                   -20852301.24207
 -19340338.12647        50.000          40.000
 07  3 13  0 52  0.0000000  0 19R03G04R02G22G26G12R21G29G30R05G14G09
                                G17R10R22G18R17R20G05
  23123745.219                    23123747.945    23123742.418       38630.48504
  -5358071.55947        38.000          36.000
  24633846.297                    24633843.270                    -1852755.23005
  -2944743.37345        41.000          20.000
  23096944.891                    23096945.152    23096941.906    -7447350.47105
  -5810250.68147        42.000          39.000
  24309555.492                    24309549.852                    -8349169.21406
  -6228623.99346        44.000          26.000
  24740366.594                    24740362.531                      143601.70505
    969817.37746        40.000          22.000
  20730514.281                    20730509.016    20730508.996   -25958681.09707
 -20161844.56647        51.000          43.000
  19562181.039                    19562181.770    19562176.480    -3937696.17004
 -17014804.34247        39.000          41.000
  25329538.477                    25329535.367                     1386614.70603
   1501217.58245        37.000          19.000
  22786673.320                    22786668.445                    -9275789.21006
 -11220415.40546        47.000          31.000
  24655359.008                                                            .00010
                          .00051
  23562007.789                    23562002.117                   -11140063.62106
  -7718950.88146        43.000          28.000
  19946794.633                    19946789.707                   -29906128.91707
 -21872525.06147        50.000          42.000
  23322418.102                    23322413.086    23322412.469    -9367760.24606
  -9239297.78246        44.000          31.000
  23043663.422                    23043662.742    23043663.656    -3348792.36006
  -6299260.00947        44.000          39.000
  21110329.063                    21110330.496    21110329.559   -17074670.67806
 -13258569.41447        45.000          43.000
  24766205.445                    24766201.293                    -6479876.59003
  -4640460.18745        37.000          20.000
  24710002.734                                                            .00010
                          .00051
  22586560.695                                                            .00010
                          .00051
  20892410.148                    20892405.789                   -20910349.78907
 -19385570.74447        50.000          40.000
 07  3 13  0 52 30.0000000  0 19R03G04R02G22G26G12R21G29G30R05G14G09
                                G17R10R22G18R17R20G05
  23123223.836                    23123225.270    23123220.344       35833.00804
  -5360247.37947        38.000          36.000
  24620424.563                    24620421.938                    -1923290.60705
  -2999706.00946        40.000          22.000
  23114721.734                    23114722.816    23114719.094    -7352319.30505
  -5736337.61147        41.000          37.000
  24319238.742                    24319232.375                    -8298287.40806
  -6188975.87146        44.000          25.000
  24762980.883                    24762976.211                      262436.76705
   1062416.12346        40.000          22.000
  20723242.031                    20723236.598    20723236.734   -25996897.40107
 -20191623.51247        50.000          43.000
  19562086.102                    19562087.887    19562082.344    -3938204.15604
 -17015199.42647        39.000          41.000
  25350862.484                    25350858.516                     1498668.85102
   1588532.45445        35.000          16.000
  22768992.867                    22768988.770                    -9368698.77806
 -11292812.44747        46.000          32.000
  24655359.008                                                            .00010
                          .00051
  23545167.820                    23545162.313                   -11228560.67006
  -7787909.64246        43.000          28.000
  19952223.508                    19952218.609                   -29877601.13807
 -21850295.64147        49.000          43.000
  23337537.141                    23337532.012    23337531.449    -9288310.99206
  -9177389.27447        44.000          32.000
  23062583.688                    23062582.422    23062582.012    -3247553.09806
  -6220518.37447        44.000          40.000
  21089013.750                    21089014.246    21089013.734   -17188978.88606
 -13347475.77548        45.000          44.000
  24782064.016                    24782059.586                    -6396542.72203
  -4575524.75645        37.000          19.000
  24710002.734                                                            .00010
                          .00051
  22586560.695                                                            .00010
                          .00051
  20881432.313                    20881427.840                   -20968038.21507
 -19430522.75947        50.000          40.000
 07  3 13  0 53  0.0000000  0 19R03G04R02G22G26G12R21G29G30R05G14G09
                                G17R10R22G18R17R20G05
  23122844.539                    23122845.973    23122841.832       33799.26102
  -5361829.17747        35.000          36.000
  24607057.031                    24607054.098                    -1993542.43005
  -3054447.68946        41.000          22.000
  23132577.773                    23132577.328    23132574.219    -7256867.48005
  -5662097.31847        40.000          37.000
  24328995.016                    24328988.539                    -8247017.84406
  -6149025.58846        43.000          27.000
  24785598.461                    24785595.063                      381299.04505
   1155036.07346        40.000          22.000
  20716040.953                    20716035.211    20716035.141   -26034740.85007
 -20221111.90347        51.000          43.000
  19562146.680                    19562147.176    19562141.953    -3937880.75404
 -17014947.88247        39.000          41.000
  25372184.547                    25372179.805                     1610713.05904
   1675839.64645        38.000          16.000
  22751353.492                    22751348.992                    -9461393.42006
 -11365042.00247        46.000          33.000
  24655359.008                                                            .00010
                          .00051
  23528391.883                    23528386.836                   -11316718.60105
  -7856604.12246        41.000          29.000
  19957742.117                    19957737.387                   -29848599.28807
 -21827696.81947        49.000          42.000
  23352729.008                    23352723.980    23352724.215    -9208476.24106
  -9115180.38347        44.000          32.000
  23081540.453                    23081538.602    23081539.680    -3146109.02106
  -6141617.44347        43.000          39.000
  21067781.156                    21067781.535    21067780.996   -17302840.35306
 -13436034.68848        46.000          45.000
  24797948.555                    24797944.699                    -6313065.01304
  -4510477.15045        38.000          18.000
  24710002.734                                                            .00010
                          .00051
  22586560.695                                                            .00010
                          .00051
  20870523.109                    20870518.102                   -21025366.69407
 -19475194.28747        51.000          40.000
 07  3 13  0 53 30.0000000  0 19R03G04R02G22G26G12R21G29G30R05G14G09
                                G17R10R22G18R17R20G05
  23122609.570                    23122609.715    23122605.371       32529.64003
  -5362816.71347        37.000          37.000
  24593742.602                    24593739.805                    -2063507.32704
  -3108965.76046        39.000          22.000
  23150513.742                    23150513.418    23150509.621    -7160998.87405
  -5587532.87947        40.000          38.000
  24338824.070                    24338818.355                    -8195362.56906
  -6108774.74846        43.000          25.000
  24808222.813                    24808218.148                      500186.29505
   1247675.45546        41.000          22.000
  20708910.219                    20708904.387    20708904.316   -26072211.51407
 -20250309.81547        50.000          42.000
  19562364.109                    19562364.137    19562358.398    -3936723.72504
 -17014047.95847        39.000          41.000
  25393502.391                    25393498.715                     1722745.20403
   1763137.43445        37.000          19.000
  22733755.656                    22733751.430                    -9553872.25806
 -11437103.40447        45.000          32.000
  24655359.008                                                            .00010
                          .00051
  23511680.125                    23511675.359                   -11404534.63505
  -7925032.19746        41.000          28.000
  19963351.563                    19963346.652                   -29819123.08707
 -21804728.36647        49.000          42.000
  23367993.883                    23367989.078    23367989.250    -9128258.22906
  -9052672.82847        44.000          33.000
  23100535.000                    23100533.734    23100534.910    -3044460.89406
  -6062557.77047        44.000          40.000
  21046631.781                    21046632.980    21046631.926   -17416251.14106
 -13524243.05748        46.000          45.000
  24813861.180                    24813855.949                    -6229446.62604
  -4445319.96645        39.000          18.000
  24710002.734                                                            .00010
                          .00051
  22586560.695                                                            .00010
                          .00051
  20859682.383                    20859677.395                   -21082334.59607
 -19519584.85547        51.000          40.000
 07  3 13  0 54  0.0000000  0 19R03G04R02G22G26G12R21G29G30R05G14G09
                                G17R10R22G18R17R20G05
  23122515.109                    23122516.660    23122510.008       32023.75004
  -5363210.15347        38.000          36.000
  24580483.563                    24580480.520                    -2133181.70705
  -3163257.52045        40.000          20.000
  23168524.461                    23168523.781    23168521.895    -7064716.89505
  -5512646.92547        40.000          38.000
  24348727.477                    24348721.309                    -8143323.41706
  -6068224.78946        43.000          25.000
  24830851.063                    24830846.797                      619097.09405
   1340333.23846        41.000          22.000
  20701850.828                    20701845.398    20701845.578   -26109308.36807
 -20279216.45547        51.000          43.000
  19562733.367                    19562734.918    19562729.602    -3934736.00704
 -17012501.94847        39.000          40.000
  25414819.117                    25414815.559                     1834764.36603
   1850425.08545        36.000          17.000
  22716198.820                    22716194.309                    -9646133.41506
 -11508995.20246        46.000          31.000
  24655359.008                                                            .00010
                          .00051
  23495035.094                    23495029.777                   -11492005.24905
  -7993191.11346        41.000          26.000
  19969050.703                    19969045.527                   -29789171.94307
 -21781389.80447        49.000          42.000
  23383331.805                    23383326.820    23383326.781    -9047658.78806
  -8989868.06846        44.000          31.000
  23119568.234                    23119567.910    23119569.059    -2942608.93006
  -5983339.60847        44.000          40.000
  21025567.188                    21025568.387    21025567.703   -17529206.93806
 -13612097.54548        45.000          45.000
  24829798.930                    24829794.215                    -6145689.61504
  -4380054.82345        38.000          19.000
  24710002.734                                                            .00010
                          .00051
  22586560.695                                                            .00010
                          .00051
  20848910.805                    20848906.289                   -21138940.26907
 -19563693.15447        50.000          40.000
 07  3 13  0 54 30.0000000  0 19R03G04R02G22G26G12R21G29G30R05G14G09
                                G17R10R22G18R17R20G05
  23122562.281                    23122563.832    23122559.992       32279.57504
  -5363011.15047        38.000          37.000
  24567281.586                    24567277.855                    -2202562.59705
  -3217320.54746        41.000          22.000
  23186614.086                    23186612.586    23186610.473    -6968026.19005
  -5437443.09547        41.000          38.000
  24358703.133                    24358696.754                    -8090903.14306
  -6027377.83446        44.000          25.000
  24853482.461                    24853478.219                      738028.89505
   1433007.36346        41.000          21.000
  20694862.422                    20694857.414    20694857.340   -26146031.54007
 -20307831.90147        50.000          43.000
  19563260.555                    19563260.934    19563255.750    -3931916.01504
 -17010308.60747        39.000          41.000
  25436132.828                    25436129.535                     1946767.69003
   1937700.37445        37.000          20.000
  22698683.648                    22698679.270                    -9738175.86606
 -11580716.58947        46.000          32.000
  24655359.008                                                            .00010
                          .00051
  23478456.609                    23478450.641                   -11579127.91205
  -8061078.92546        42.000          27.000
  19974840.703                    19974835.531                   -29758746.64507
 -21757681.79147        49.000          42.000
  23398740.883                    23398735.777    23398735.730    -8966680.68306
  -8926768.25247        44.000          32.000
  23138640.938                    23138639.086    23138639.727    -2840554.39906
  -5903963.88747        45.000          40.000
  21004588.320                    21004589.871    21004588.418   -17641704.16406
 -13699595.38248        46.000          45.000
  24845763.453                    24845758.469                    -6061797.37604
  -4314684.24845        38.000          18.000
  24710002.734                                                            .00010
                          .00051
  22586560.695                                                            .00010
                          .00051
  20838208.266                    20838203.840                   -21195183.68707
 -19607519.19047        50.000          40.000
 07  3 13  0 55  0.0000000  0 19R03G04R02G22G26G12R21G29G30R05G14G09
                                G17R10R22G18R17R20G05
  23122752.336                    23122753.652    23122749.703       33298.11104
  -5362218.97047        38.000          37.000
  24554135.070                    24554131.520                    -2271647.52905
  -3271152.98646        41.000          21.000
  23204776.711                    23204775.797    23204773.418    -6870932.85505
  -5361926.12147        41.000          38.000
  24368750.094                    24368744.484                    -8038104.56006
  -5986236.07346        43.000          25.000
  24876118.094                    24876113.984                      856978.96404
   1525695.71946        39.000          21.000
  20687945.797                    20687940.367    20687940.520   -26182381.16107
 -20336156.27447        51.000          43.000
  19563940.867                    19563941.832    19563936.121    -3928265.65904
 -17007469.43247        39.000          40.000
  25457442.516                    25457439.602                     2058753.14003
   2024961.81545        36.000          18.000
  22681210.594                    22681206.473                    -9829999.15706
 -11652267.17547        46.000          32.000
  24655359.008                                                            .00010
                          .00051
  23461943.656                    23461939.324                   -11665900.48805
  -8128693.92246        42.000          27.000
  19980720.391                    19980715.285                   -29727847.82607
 -21733604.80247        48.000          42.000
  23414221.641                    23414217.324    23414217.160    -8885326.99906
  -8863375.77646        43.000          30.000
  23157749.555                    23157747.469    23157749.012    -2738298.64206
  -5824431.62447        44.000          40.000
  20983695.344                    20983697.012    20983695.816   -17753739.27106
 -13786733.78748        45.000          45.000
  24861753.109                    24861747.523                    -5977773.76605
  -4249211.32745        40.000          19.000
  24710002.734                                                            .00010
                          .00051
  22586560.695                                                            .00010
                          .00051
  20827574.758                    20827569.402                   -21251064.48707
 -19651062.67547        50.000          40.000
 07  3 13  0 55 30.0000000  0 19R03G04R02G22G26G12R21G29G30R05G14G09
                                G17R10R22G18R17R20G05
  23123084.789                    23123084.934    23123080.301       35079.43603
  -5360833.46647        37.000          37.000
  24541046.438                    24541042.031                    -2340432.85005
  -3324751.94345        41.000          19.000
  23223013.352                    23223013.496    23223011.156    -6773438.82904
  -5286097.48147        39.000          37.000
  24378868.359                    24378863.352                    -7984929.41905
  -5944800.93146        42.000          24.000
  24898756.414                    24898752.781                      975945.63305
   1618397.01046        41.000          21.000
  20681099.641                    20681093.727    20681094.031   -26218356.80707
 -20364189.24047        50.000          43.000
  19564776.922                    19564778.238    19564772.875    -3923785.05704
 -17003984.51547        39.000          41.000
  25478749.359                    25478746.074                     2170718.42503
   2112207.47145        37.000          18.000
  22663778.742                    22663775.215                    -9921601.79306
 -11723645.79647        46.000          33.000
  24655359.008                                                            .00010
                          .00051
  23445499.492                    23445494.594                   -11752319.79305
  -8196033.62546        40.000          28.000
  19986690.797                    19986685.887                   -29696474.99707
 -21709158.45047        50.000          42.000
  23429774.375                    23429769.410    23429769.430    -8803599.49906
  -8799692.00646        45.000          31.000
  23176894.516                    23176894.309    23176896.145    -2635842.01805
  -5744743.11247        42.000          40.000
  20962890.602                    20962891.918    20962891.270   -17865307.99306
 -13873509.43948        44.000          45.000
  24877766.445                    24877762.438                    -5893620.62503
  -4183637.56545        37.000          18.000
  24710002.734                                                            .00010

          .00051                  20727253.609                            .00010
                          .00051
  20817009.742                    20817005.020                   -21306581.62407
 -19694322.77047        50.000          40.000
 07  3 13  0 56  0.0000000  0 19R03G04R02G22G26G12R21G29G30R05G14G09
                                G17R10R22G18R17R20G05
  23123558.703                    23123559.551    23123554.797       37622.18604
  -5358855.78247        39.000          37.000
  24528013.789                    24528009.543                    -2408916.07205
  -3378115.50046        41.000          22.000
  23241326.734                    23241326.996    23241324.078    -6675549.90605
  -5209961.69847        41.000          37.000
  24389058.477                    24389053.223                    -7931380.79305
  -5903074.77946        42.000          24.000
  24921397.086                    24921393.527                     1094926.01905
   1711109.00146        41.000          22.000
  20674324.656                    20674319.270    20674319.234   -26253959.30707
 -20391931.45047        51.000          43.000
  19565767.219                    19565768.770    19565763.594    -3918477.18104
 -16999856.15647        39.000          40.000
  25500051.336                    25500048.633                     2282661.15903
   2199435.54545        37.000          19.000
  22646389.055                    22646384.531                   -10012983.26906
 -11794852.11747        47.000          32.000
  24655359.008                                                            .00010
                          .00051
  23429121.930                    23429117.000                   -11838383.58905
  -8263096.32246        41.000          28.000
  19992750.914                    19992745.844                   -29664628.74207
 -21684343.19247        50.000          42.000
  23445397.414                    23445392.012    23445391.691    -8721501.14406
  -8735719.27346        44.000          30.000
  23196080.102                    23196078.133    23196078.750    -2533185.95906
  -5664899.54347        45.000          39.000
  20942172.555                    20942173.285    20942172.402   -17976406.93406
 -13959919.69348        45.000          45.000
  24893804.781                    24893799.504                    -5809342.08605
  -4117965.95245        41.000          17.000
  24710002.734                                                            .00010

          .00051                  20727253.609                            .00010
                          .00051
  20806514.469                    20806510.039                   -21361735.13207
 -19737299.51047        49.000          40.000
 07  3 13  0 56 30.0000000  0 19R03G04R02G22G26G12R21G29G30R05G14G09
                                G17R10R22G18R17R20G05
  23124175.328                    23124176.410    23124171.742       40924.12905
  -5356287.67547        40.000          38.000
  24515039.305                    24515036.188                    -2477094.44905
  -3431241.48246        41.000          21.000
  23259712.242                    23259710.742    23259708.262    -6577271.55905
  -5133523.03147        40.000          37.000
  24399319.383                    24399313.160                    -7877461.24406
  -5861059.56146        43.000          23.000
  24944040.555                    24944037.422                     1213917.59104
   1803829.70346        39.000          22.000
  20667620.898                    20667615.762    20667615.598   -26289188.38107
 -20419382.66747        49.000          43.000
  19566911.781                    19566913.215    19566908.359    -3912341.63604
 -16995084.06547        38.000          41.000
  25521349.922                    25521345.672                     2394578.95004
   2286644.16845        38.000          19.000
  22629042.188                    22629037.082                   -10104142.58606
 -11865885.32546        47.000          31.000
  24655359.008                                                            .00010
                          .00051
  23412812.930                    23412808.191                   -11924089.36005
  -8329880.05046        42.000          28.000
  19998900.867                    19998895.590                   -29632309.65007
 -21659159.49747        50.000          42.000
  23461090.227                    23461084.832    23461084.531    -8639034.66606
  -8671459.66446        45.000          31.000
  23215301.141                    23215299.289    23215300.086    -2430331.80206
  -5584901.90847        45.000          40.000
  20921542.805                    20921543.535    20921542.805   -18087033.15706
 -14045962.28348        46.000          45.000
  24909865.625                    24909860.594                    -5724941.04505
  -4052198.80445        41.000          19.000
  24710002.734                                                            .00010

          .00051                  20727253.609                            .00010
                          .00051
  20796088.398                    20796083.543                   -21416524.44407
 -19779992.46647        51.000          40.000
 07  3 13  0 57  0.0000000  0 20R03G04R02G22G26G12R21G29G30R05G14G09
                                G17R10R22G18R17R20G05R04
  23124931.602                    23124933.973    23124927.379       44988.31605
  -5353126.64247        40.000          36.000
  24502124.773                    24502121.551                    -2544964.02105
  -3484126.89546        40.000          21.000
  23278169.133                    23278168.336    23278165.680    -6478606.91505
  -5056783.90747        40.000          37.000
  24409650.086                    24409644.523                    -7823172.48705
  -5818756.63746        42.000          25.000
  24966686.000                    24966682.391                     1332919.26905
   1896558.26346        40.000          22.000
  20660987.859                    20660982.746    20660982.516   -26324043.50007
 -20446542.48047        50.000          42.000
  19568212.477                    19568213.090    19568208.516    -3905375.67504
 -16989666.08347        38.000          41.000
  25542641.039                    25542637.977                     2506471.27304
   2373832.95845        38.000          16.000
  22611738.352                    22611733.043                   -10195077.93406
 -11936744.03547        47.000          32.000
  24655359.008                                                            .00010
                          .00051
  23396572.031                    23396567.656                   -12009433.58406
  -8396382.04546        43.000          26.000
  20005140.820                    20005136.102                   -29599517.07607
 -21633606.84347        49.000          43.000
  23476852.641                    23476847.426    23476847.219    -8556201.44806
  -8606914.30446        44.000          31.000
  23234557.375                    23234556.695    23234557.836    -2327279.44606
  -5504750.07247        43.000          39.000
  20901002.250                    20901003.918    20901001.844   -18197181.61606
 -14131633.29648        46.000          44.000
  24925949.359                    24925944.418                    -5640419.79902
  -3986338.13145        35.000          18.000
  24710002.734                                                            .00010

          .00051                  20727253.609                            .00010
                          .00051
  20785732.086                    20785727.445                   -21470948.19907
 -19822400.58347        49.000          40.000
  24419793.531                    24419792.617    24419790.742       17868.33200
     18734.00147        32.000          33.000
 07  3 13  0 57 30.0000000  0 20R03G04R02G22G26G12R21G29G30R05G14G09
                                G17R10R22G18R17R20G05R04
  23125830.367                    23125832.387    23125822.008       49811.65804
  -5349375.06347        38.000          33.000
  24489269.172                    24489264.738                    -2612522.63705
  -3536769.95346        42.000          21.000
  23296696.859                    23296696.063    23296694.516    -6379562.03703
  -4979749.09247        37.000          37.000
  24420050.727                    24420045.340                    -7768517.87205
  -5776168.70246        42.000          25.000
  24989332.063                    24989329.059                     1451927.50804
   1989291.95246        39.000          22.000
  20654426.297                    20654420.887    20654420.664   -26358525.87507
 -20473411.86347        50.000          43.000
  19569666.977                    19569667.707    19569662.758    -3897582.03304
 -16983604.35047        39.000          41.000
  25563927.836                    25563924.633                     2618334.30902
   2460998.97645        35.000          17.000
  22594476.133                    22594471.660                   -10285789.19807
 -12007428.10047        48.000          32.000
  24655359.008                                                            .00010
                          .00051
  23380400.992                    23380395.371                   -12094414.44606
  -8462600.89246        43.000          28.000
  20011471.281                    20011466.281                   -29566252.46507
 -21607686.37247        49.000          43.000
  23492684.250                    23492679.262    23492678.910    -8473005.38506
  -8542086.21746        44.000          31.000
  23253852.297                    23253851.266    23253851.820    -2224031.02006
  -5424445.72347        43.000          39.000
  20880551.547                    20880553.098    20880550.438   -18306849.83006
 -14216930.79948        46.000          45.000
  24942055.766                    24942050.926                    -5555782.66903
  -3920387.24245        37.000          20.000
  24710002.734                                                            .00010

          .00051                  20727253.609                            .00010
                          .00051
  20775445.117                    20775440.055                   -21525006.85907
 -19864524.20047        49.000          40.000
  24404977.445                    24404978.645    24404974.656      -61472.19905
    -42975.26247        42.000          34.000
 07  3 13  0 58  0.0000000  0 19R03G04R02G22G26G12R21G30R05G14G09G17
                                R10R22G18R17R20G05R04
  23126870.258                    23126871.809    23126864.742       55394.98104
  -5345032.47347        38.000          35.000
  24476472.750                    24476468.371                    -2679766.99405
  -3589168.15146        41.000          22.000
  23315296.695                    23315295.781    23315292.215    -6280141.11304
  -4902421.76547        39.000          36.000
  24430520.758                    24430514.777                    -7713499.46706
  -5733297.27046        43.000          25.000
  25011979.867                    25011976.688                     1570940.67004
   2082029.47746        39.000          22.000
  20647935.813                    20647930.246    20647930.078   -26392634.08507
 -20499989.67947        50.000          43.000
  19571275.250                    19571276.332    19571271.082    -3888964.18304
 -16976901.57747        39.000          41.000
  22577257.469                    22577253.172                   -10376274.92206
 -12077936.39547        46.000          33.000
  24655359.008                                                            .00010
                          .00051
  23364298.633                    23364294.449                   -12179028.71205
  -8528534.08646        42.000          27.000
  20017891.398                    20017886.199                   -29532515.31307
 -21581397.69747        50.000          42.000
  23508584.820                    23508579.598    23508579.215    -8389448.50006
  -8476976.94946        43.000          31.000
  23273183.188                    23273180.633    23273181.922    -2120586.89105
  -5343989.16247        42.000          39.000
  20860190.266                    20860191.348    20860189.746   -18416033.79006
 -14301851.63448        46.000          45.000
  24958181.828                    24958178.613                    -5471032.43604
  -3854348.15045        39.000          20.000
  24710002.734                                                            .00010

          .00051                  20727253.609                            .00010
                          .00051
  20765227.367                    20765222.875                   -21578699.37207
 -19906362.52347        51.000          40.000
  24390265.609                    24390265.871    24390262.711     -140250.90304
   -104247.54046        39.000          30.000
 07  3 13  0 58 30.0000000  0 19R03G04R02G22G26G12R21G30R05G14G09G17
                                R10R22G18R17R20G05R04
  23128051.758                    23128052.371    23128049.363       61737.01304
  -5340099.79947        38.000          37.000
  24463736.672                    24463733.836                    -2746693.92905
  -3641318.99246        41.000          22.000
  23333964.188                    23333963.273    23333961.016    -6180348.72904
  -4824805.49147        38.000          36.000
  24441059.344                    24441052.426                    -7658119.44806
  -5690144.02846        43.000          25.000
  25034628.039                    25034624.898                     1689956.67604
   2174769.21146        39.000          22.000
  20641516.398                    20641511.047    20641510.703   -26426368.24007
 -20526276.02847        50.000          43.000
  19573036.398                    19573038.418    19573033.684    -3879519.59904
 -16969555.78647        38.000          41.000
  22560081.203                    22560077.734                   -10466533.77806
 -12148267.94747        45.000          32.000
  24655359.008                                                            .00010
                          .00051
  23348267.836                    23348262.941                   -12263273.59705
  -8594179.45046        41.000          27.000
  20024400.914                    20024396.086                   -29498305.82607
 -21554740.96647        50.000          43.000
  23524553.820                    23524548.082    23524547.629    -8305532.69006
  -8411588.01246        44.000          30.000
  23292551.938                    23292549.734    23292550.504    -2016948.01006
  -5263381.18547        45.000          40.000
  20839920.883                    20839921.730    20839920.332   -18524728.35906
 -14386391.82548        47.000          45.000
  24974330.633                    24974328.090                    -5386171.39704
  -3788222.68745        38.000          17.000
  24710002.734                                                            .00010

          .00051                  20727253.609                            .00010
                          .00051
  20755080.266                    20755075.594                   -21632024.95307
 -19947914.91947        51.000          41.000
  24375659.594                    24375661.027    24375655.957     -218463.96804
   -165080.02846        38.000          31.000
 07  3 13  0 59  0.0000000  0 19R03G04R02G22G26G12R21G30R05G14G09G17
                                R10R22G18R17R20G05R04
  23129373.648                    23129375.668    23129369.297       68837.28203
  -5334577.34747        36.000          35.000
  24451061.719                    24451059.301                    -2813300.45506
  -3693220.20546        43.000          22.000
  23352702.313                    23352700.578    23352699.102    -6080187.96704
  -4746902.78247        39.000          38.000
  24451665.922                    24451659.250                    -7602380.59905
  -5646711.17346        42.000          26.000
  25057275.977                    25057273.367                     1808973.22003
   2267509.37346        37.000          22.000
  20635168.234                    20635162.359    20635162.324   -26459728.60707
 -20552271.13247        50.000          43.000
  19574953.516                    19574953.895    19574949.098    -3869251.26604
 -16961569.29647        38.000          40.000
  22542948.773                    22542944.949                   -10556564.87306
 -12218422.02247        47.000          32.000
  24655359.008                                                            .00010
                          .00051
  23332307.688                    23332302.805                   -12347146.39905
  -8659534.86546        41.000          28.000
  20031000.422                    20030995.973                   -29463624.41307
 -21527716.49447        51.000          43.000
  23540589.484                    23540584.961    23540584.566    -8221261.25506
  -8345921.95546        43.000          31.000
  23311954.461                    23311952.492    23311954.148    -1913115.41706
  -5182622.48947        45.000          41.000
  20819743.398                    20819744.363    20819743.031   -18632931.24506
 -14470549.62848        47.000          45.000
  24990499.984                    24990496.898                    -5301202.60801
  -3722013.13142        33.000          13.000
  24710002.734                                                            .00010

          .00051                  20727253.609                            .00010
                          .00051
  20745002.516                    20744997.781                   -21684983.21307
 -19989181.09747        51.000          41.000
  24361161.445                    24361161.355    24361155.176     -296108.41605
   -225470.07546        40.000          21.000
